GEFSSE_prec_meanprecacc_006.txt.gz
Total_Precipitation_Accumulation
0.00 0.00 0.00 0.00 0.00 0.00 0.00 0.00 0.00 0.00 0.00 0.00 0.00 0.00 0.00 0.00 0.00 0.00 0.00 0.00 0.00 0.00 0.00 0.00 0.00 0.00 0.00 0.00 0.00 0.00 0.00 0.00 0.00 0.00 0.00 0.00 0.00 0.00 0.00 0.00 0.04 0.01 0.00
0.00 0.00 0.00 0.00 0.00 0.00 0.00 0.00 0.00 0.00 0.00 0.00 0.00 0.00 0.00 0.00 0.00 0.00 0.00 0.00 0.00 0.00 0.00 0.00 0.00 0.00 0.00 0.00 0.00 0.00 0.00 0.00 0.00 0.00 0.00 0.00 0.00 0.00 0.00 0.00 0.03 0.01 0.00
0.00 0.00 0.00 0.00 0.00 0.00 0.00 0.00 0.00 0.00 0.00 0.00 0.00 0.00 0.00 0.00 0.00 0.00 0.00 0.00 0.00 0.00 0.00 0.00 0.00 0.00 0.00 0.00 0.00 0.00 0.00 0.00 0.00 0.00 0.00 0.01 0.00 0.00 0.00 0.00 0.00 0.00 0.00
0.00 0.00 0.00 0.00 0.00 0.00 0.00 0.00 0.00 0.00 0.00 0.00 0.00 0.00 0.00 0.00 0.00 0.00 0.00 0.00 0.00 0.00 0.00 0.00 0.00 0.00 0.00 0.00 0.00 0.00 0.00 0.00 0.00 0.00 0.01 0.03 0.00 0.00 0.00 0.00 0.00 0.00 0.00
0.00 0.00 0.00 0.00 0.00 0.00 0.00 0.00 0.00 0.00 0.00 0.00 0.00 0.00 0.00 0.00 0.00 0.00 0.00 0.00 0.00 0.00 0.00 0.00 0.00 0.00 0.00 0.00 0.00 0.00 0.00 0.00 0.00 0.00 0.00 0.00 0.01 0.01 0.00 0.00 0.00 0.00 0.00
0.00 0.00 0.00 0.00 0.00 0.00 0.00 0.00 0.00 0.00 0.00 0.00 0.00 0.00 0.00 0.01 0.01 0.00 0.00 0.00 0.00 0.00 0.00 0.00 0.00 0.00 0.00 0.00 0.00 0.00 0.01 0.01 0.00 0.00 0.00 0.00 0.02 0.03 0.00 0.00 0.00 0.00 0.00
0.00 0.00 0.00 0.00 0.00 0.00 0.00 0.00 0.00 0.00 0.00 0.00 0.00 0.00 0.00 0.01 0.01 0.01 0.00 0.00 0.00 0.00 0.00 0.00 0.00 0.00 0.00 0.00 0.00 0.00 0.00 0.00 0.01 0.02 0.03 0.03 0.07 0.07 0.04 0.03 0.04 0.03 0.02
0.00 0.00 0.00 0.00 0.00 0.00 0.00 0.00 0.00 0.00 0.00 0.00 0.00 0.00 0.00 0.00 0.00 0.00 0.00 0.00 0.01 0.02 0.01 0.00 0.00 0.00 0.00 0.00 0.00 0.00 0.00 0.00 0.00 0.00 0.01 0.03 0.10 0.11 0.09 0.05 0.05 0.05 0.05
0.00 0.00 0.00 0.00 0.00 0.00 0.00 0.00 0.00 0.00 0.00 0.00 0.00 0.00 0.00 0.00 0.00 0.00 0.00 0.00 0.01 0.02 0.02 0.02 0.00 0.00 0.00 0.00 0.00 0.00 0.00 0.00 0.00 0.01 0.00 0.00 0.02 0.02 0.03 0.04 0.04 0.05 0.05
0.00 0.00 0.00 0.00 0.00 0.00 0.00 0.00 0.01 0.01 0.01 0.01 0.00 0.00 0.00 0.00 0.00 0.01 0.01 0.01 0.01 0.01 0.02 0.02 0.02 0.02 0.02 0.02 0.03 0.01 0.00 0.00 0.00 0.00 0.00 0.01 0.02 0.02 0.02 0.02 0.01 0.03 0.03
0.00 0.00 0.00 0.00 0.00 0.00 0.00 0.00 0.00 0.00 0.00 0.00 0.01 0.01 0.00 0.01 0.04 0.05 0.07 0.10 0.08 0.04 0.03 0.03 0.04 0.06 0.05 0.02 0.03 0.08 0.06 0.01 0.00 0.00 0.00 0.00 0.01 0.01 0.00 0.01 0.00 0.00 0.01
0.00 0.00 0.00 0.00 0.00 0.00 0.00 0.00 0.00 0.00 0.00 0.00 0.01 0.04 0.03 0.03 0.05 0.03 0.10 0.12 0.08 0.05 0.02 0.02 0.08 0.07 0.02 0.00 0.12 0.32 0.16 0.03 0.02 0.02 0.01 0.01 0.00 0.01 0.00 0.00 0.00 0.00 0.00
0.00 0.00 0.00 0.00 0.00 0.00 0.00 0.00 0.00 0.00 0.01 0.02 0.02 0.02 0.05 0.04 0.04 0.02 0.02 0.04 0.06 0.05 0.04 0.07 0.11 0.03 0.01 0.01 0.05 0.13 0.13 0.04 0.02 0.03 0.06 0.07 0.03 0.01 0.00 0.00 0.00 0.00 0.00
0.00 0.00 0.00 0.00 0.00 0.01 0.01 0.01 0.01 0.02 0.02 0.03 0.06 0.05 0.07 0.05 0.03 0.02 0.02 0.01 0.03 0.04 0.09 0.07 0.06 0.05 0.05 0.02 0.02 0.03 0.08 0.12 0.06 0.06 0.13 0.11 0.04 0.02 0.02 0.01 0.01 0.00 0.01
0.00 0.00 0.00 0.00 0.00 0.01 0.01 0.02 0.01 0.01 0.01 0.01 0.05 0.05 0.05 0.04 0.02 0.02 0.01 0.00 0.01 0.04 0.09 0.08 0.06 0.05 0.05 0.04 0.03 0.02 0.02 0.04 0.07 0.08 0.14 0.08 0.04 0.03 0.02 0.01 0.01 0.01 0.01
0.00 0.00 0.00 0.00 0.00 0.01 0.01 0.01 0.01 0.01 0.01 0.01 0.02 0.03 0.04 0.03 0.03 0.03 0.02 0.01 0.01 0.01 0.01 0.04 0.06 0.07 0.08 0.10 0.05 0.01 0.01 0.01 0.03 0.05 0.05 0.13 0.13 0.04 0.03 0.01 0.00 0.01 0.01
0.00 0.00 0.00 0.00 0.01 0.02 0.02 0.02 0.02 0.01 0.01 0.01 0.01 0.01 0.03 0.05 0.07 0.06 0.06 0.04 0.02 0.03 0.05 0.05 0.05 0.06 0.04 0.04 0.04 0.04 0.03 0.02 0.02 0.04 0.04 0.08 0.11 0.05 0.04 0.02 0.01 0.01 0.01
0.01 0.01 0.01 0.01 0.01 0.03 0.04 0.04 0.02 0.02 0.01 0.01 0.00 0.00 0.02 0.04 0.08 0.11 0.11 0.08 0.08 0.13 0.16 0.16 0.15 0.13 0.09 0.06 0.04 0.04 0.03 0.03 0.02 0.03 0.02 0.03 0.04 0.02 0.06 0.10 0.04 0.01 0.01
0.01 0.02 0.02 0.02 0.03 0.05 0.07 0.06 0.05 0.04 0.03 0.02 0.01 0.00 0.01 0.01 0.02 0.06 0.06 0.09 0.15 0.18 0.20 0.19 0.13 0.13 0.12 0.11 0.09 0.10 0.06 0.02 0.01 0.00 0.00 0.00 0.01 0.01 0.01 0.08 0.03 0.03 0.03
0.01 0.04 0.07 0.09 0.11 0.10 0.08 0.10 0.11 0.12 0.12 0.11 0.08 0.05 0.02 0.01 0.02 0.03 0.02 0.02 0.05 0.09 0.12 0.17 0.18 0.19 0.18 0.18 0.09 0.06 0.02 0.01 0.00 0.00 0.00 0.00 0.00 0.00 0.00 0.01 0.08 0.08 0.06
0.02 0.03 0.05 0.06 0.06 0.05 0.04 0.04 0.08 0.11 0.16 0.19 0.18 0.15 0.11 0.09 0.08 0.08 0.06 0.05 0.04 0.06 0.08 0.09 0.12 0.17 0.18 0.19 0.13 0.06 0.01 0.00 0.00 0.00 0.00 0.00 0.00 0.00 0.00 0.00 0.02 0.05 0.17
0.01 0.01 0.01 0.01 0.01 0.01 0.01 0.02 0.03 0.06 0.09 0.11 0.11 0.12 0.10 0.11 0.12 0.09 0.06 0.06 0.06 0.08 0.11 0.10 0.11 0.15 0.18 0.22 0.16 0.10 0.04 0.01 0.00 0.00 0.00 0.00 0.00 0.00 0.00 0.00 0.00 0.04 0.12
0.00 0.00 0.00 0.00 0.01 0.01 0.00 0.01 0.02 0.03 0.03 0.04 0.04 0.05 0.06 0.09 0.11 0.10 0.07 0.07 0.08 0.10 0.17 0.21 0.23 0.25 0.21 0.22 0.20 0.15 0.08 0.03 0.02 0.00 0.00 0.00 0.00 0.00 0.00 0.00 0.02 0.06 0.13
0.00 0.00 0.00 0.00 0.01 0.01 0.01 0.01 0.02 0.03 0.03 0.03 0.03 0.04 0.05 0.06 0.07 0.06 0.08 0.16 0.19 0.22 0.26 0.26 0.27 0.30 0.28 0.24 0.22 0.18 0.12 0.09 0.07 0.02 0.00 0.00 0.01 0.01 0.02 0.03 0.02 0.04 0.10
0.00 0.00 0.00 0.00 0.00 0.01 0.02 0.02 0.02 0.01 0.01 0.01 0.03 0.04 0.04 0.04 0.03 0.02 0.02 0.06 0.14 0.21 0.26 0.27 0.27 0.29 0.31 0.27 0.22 0.18 0.14 0.13 0.10 0.06 0.01 0.02 0.06 0.07 0.07 0.07 0.05 0.03 0.02
0.00 0.00 0.00 0.00 0.00 0.00 0.01 0.02 0.03 0.02 0.02 0.03 0.04 0.05 0.06 0.05 0.03 0.02 0.01 0.03 0.07 0.09 0.11 0.17 0.19 0.21 0.21 0.20 0.19 0.18 0.14 0.09 0.07 0.09 0.06 0.05 0.06 0.10 0.12 0.12 0.13 0.08 0.05

GEFSSE_prec_meanprecacc_012.txt.gz
Total_Precipitation_Accumulation
0.00 0.00 0.00 0.00 0.00 0.00 0.00 0.00 0.00 0.00 0.00 0.00 0.00 0.00 0.00 0.00 0.00 0.00 0.00 0.00 0.00 0.00 0.00 0.00 0.00 0.00 0.00 0.00 0.00 0.00 0.00 0.00 0.00 0.00 0.00 0.00 0.00 0.00 0.00 0.00 0.04 0.01 0.00
0.00 0.00 0.00 0.00 0.00 0.00 0.00 0.00 0.00 0.00 0.00 0.00 0.00 0.00 0.00 0.00 0.00 0.00 0.00 0.00 0.00 0.00 0.00 0.00 0.00 0.00 0.00 0.00 0.00 0.00 0.00 0.00 0.00 0.00 0.00 0.00 0.00 0.00 0.00 0.00 0.03 0.01 0.00
0.00 0.00 0.00 0.00 0.00 0.00 0.00 0.00 0.00 0.00 0.00 0.00 0.00 0.00 0.00 0.00 0.00 0.00 0.00 0.00 0.00 0.00 0.00 0.00 0.00 0.00 0.00 0.00 0.00 0.00 0.00 0.00 0.00 0.00 0.00 0.01 0.00 0.00 0.00 0.00 0.00 0.00 0.00
0.00 0.00 0.00 0.00 0.00 0.00 0.00 0.00 0.00 0.00 0.00 0.00 0.00 0.00 0.00 0.00 0.00 0.00 0.00 0.00 0.00 0.00 0.00 0.00 0.00 0.00 0.00 0.00 0.00 0.00 0.00 0.00 0.00 0.00 0.01 0.03 0.01 0.00 0.00 0.00 0.00 0.00 0.00
0.00 0.00 0.00 0.00 0.00 0.00 0.00 0.00 0.00 0.00 0.00 0.00 0.00 0.00 0.00 0.00 0.00 0.00 0.00 0.00 0.00 0.00 0.00 0.00 0.00 0.00 0.00 0.00 0.00 0.00 0.00 0.00 0.00 0.00 0.00 0.01 0.01 0.01 0.00 0.00 0.00 0.00 0.00
0.00 0.00 0.00 0.00 0.00 0.00 0.00 0.00 0.00 0.00 0.00 0.00 0.00 0.00 0.00 0.01 0.01 0.00 0.00 0.00 0.00 0.00 0.00 0.00 0.00 0.00 0.00 0.00 0.00 0.00 0.01 0.01 0.00 0.00 0.00 0.01 0.02 0.04 0.01 0.00 0.00 0.00 0.00
0.00 0.00 0.00 0.00 0.00 0.00 0.00 0.00 0.00 0.00 0.00 0.00 0.00 0.00 0.00 0.01 0.01 0.01 0.00 0.00 0.00 0.00 0.00 0.00 0.00 0.00 0.00 0.00 0.00 0.00 0.00 0.00 0.01 0.02 0.04 0.06 0.08 0.09 0.06 0.04 0.04 0.03 0.02
0.00 0.00 0.00 0.00 0.00 0.00 0.00 0.00 0.00 0.00 0.00 0.00 0.00 0.00 0.00 0.00 0.00 0.00 0.00 0.00 0.01 0.02 0.01 0.00 0.00 0.00 0.00 0.00 0.00 0.00 0.00 0.00 0.00 0.00 0.01 0.06 0.12 0.13 0.16 0.13 0.09 0.07 0.06
0.00 0.00 0.00 0.00 0.00 0.00 0.00 0.01 0.00 0.00 0.00 0.00 0.00 0.00 0.00 0.00 0.00 0.00 0.00 0.00 0.01 0.02 0.02 0.02 0.01 0.00 0.00 0.00 0.00 0.00 0.00 0.00 0.00 0.01 0.01 0.01 0.03 0.04 0.12 0.13 0.09 0.08 0.07
0.00 0.00 0.00 0.00 0.00 0.00 0.00 0.00 0.01 0.01 0.01 0.01 0.00 0.00 0.00 0.00 0.00 0.01 0.01 0.01 0.01 0.01 0.02 0.03 0.03 0.03 0.03 0.03 0.03 0.02 0.01 0.00 0.00 0.00 0.00 0.01 0.03 0.07 0.13 0.11 0.06 0.06 0.05
0.00 0.00 0.00 0.00 0.00 0.00 0.00 0.00 0.00 0.00 0.00 0.00 0.01 0.01 0.00 0.01 0.04 0.05 0.08 0.12 0.09 0.05 0.04 0.03 0.05 0.07 0.06 0.03 0.05 0.10 0.08 0.01 0.01 0.00 0.00 0.01 0.04 0.11 0.14 0.10 0.07 0.04 0.03
0.00 0.00 0.00 0.00 0.00 0.00 0.00 0.00 0.00 0.00 0.00 0.00 0.01 0.04 0.03 0.03 0.05 0.03 0.10 0.14 0.10 0.06 0.03 0.03 0.10 0.07 0.02 0.01 0.12 0.35 0.17 0.04 0.03 0.04 0.03 0.03 0.05 0.10 0.12 0.09 0.06 0.04 0.02
0.00 0.00 0.00 0.00 0.00 0.00 0.00 0.00 0.00 0.00 0.01 0.02 0.02 0.02 0.05 0.05 0.04 0.02 0.03 0.04 0.07 0.06 0.04 0.07 0.12 0.03 0.01 0.01 0.05 0.14 0.13 0.05 0.04 0.06 0.11 0.13 0.13 0.10 0.09 0.06 0.04 0.03 0.01
0.00 0.00 0.00 0.00 0.00 0.01 0.01 0.01 0.01 0.02 0.02 0.03 0.06 0.05 0.07 0.06 0.04 0.02 0.02 0.01 0.03 0.04 0.09 0.07 0.06 0.05 0.05 0.03 0.03 0.05 0.09 0.13 0.07 0.09 0.17 0.15 0.07 0.05 0.06 0.05 0.02 0.01 0.01
0.00 0.00 0.00 0.00 0.00 0.01 0.01 0.02 0.01 0.01 0.01 0.01 0.05 0.05 0.06 0.04 0.02 0.02 0.01 0.00 0.01 0.04 0.09 0.08 0.06 0.05 0.05 0.05 0.04 0.02 0.02 0.05 0.08 0.10 0.16 0.10 0.05 0.04 0.04 0.04 0.03 0.02 0.01
0.00 0.00 0.00 0.00 0.00 0.01 0.01 0.01 0.01 0.01 0.01 0.01 0.02 0.03 0.05 0.04 0.03 0.03 0.02 0.02 0.01 0.01 0.02 0.05 0.07 0.08 0.08 0.11 0.06 0.02 0.02 0.01 0.04 0.06 0.06 0.14 0.14 0.04 0.04 0.02 0.03 0.03 0.03
0.00 0.00 0.01 0.01 0.02 0.02 0.02 0.03 0.02 0.02 0.02 0.05 0.06 0.07 0.09 0.10 0.12 0.12 0.11 0.07 0.05 0.07 0.09 0.08 0.07 0.08 0.06 0.07 0.06 0.06 0.05 0.04 0.03 0.05 0.05 0.09 0.12 0.06 0.05 0.03 0.04 0.05 0.05
0.02 0.02 0.03 0.04 0.05 0.07 0.08 0.11 0.11 0.11 0.13 0.17 0.20 0.18 0.19 0.22 0.25 0.30 0.23 0.15 0.16 0.23 0.25 0.24 0.22 0.19 0.16 0.15 0.14 0.15 0.12 0.10 0.06 0.05 0.05 0.05 0.05 0.03 0.07 0.12 0.08 0.05 0.08
0.02 0.05 0.08 0.13 0.16 0.20 0.27 0.33 0.34 0.31 0.30 0.29 0.29 0.24 0.21 0.23 0.26 0.29 0.21 0.19 0.29 0.34 0.33 0.31 0.24 0.27 0.26 0.25 0.25 0.23 0.16 0.10 0.06 0.06 0.06 0.04 0.04 0.03 0.02 0.11 0.06 0.06 0.11
0.04 0.10 0.17 0.24 0.28 0.28 0.26 0.29 0.30 0.30 0.30 0.29 0.24 0.19 0.15 0.15 0.19 0.28 0.25 0.23 0.30 0.33 0.33 0.41 0.40 0.41 0.36 0.32 0.25 0.14 0.07 0.07 0.07 0.05 0.04 0.04 0.03 0.01 0.01 0.02 0.09 0.11 0.16
0.04 0.07 0.10 0.12 0.11 0.09 0.10 0.11 0.13 0.16 0.21 0.23 0.22 0.18 0.14 0.13 0.18 0.30 0.29 0.29 0.31 0.33 0.34 0.41 0.44 0.43 0.34 0.38 0.34 0.14 0.05 0.03 0.03 0.02 0.02 0.01 0.01 0.01 0.01 0.01 0.03 0.07 0.21
0.01 0.01 0.02 0.02 0.02 0.01 0.01 0.03 0.04 0.07 0.10 0.11 0.12 0.13 0.11 0.13 0.18 0.23 0.24 0.25 0.28 0.31 0.32 0.33 0.37 0.39 0.34 0.45 0.40 0.29 0.15 0.06 0.03 0.02 0.03 0.04 0.04 0.05 0.05 0.04 0.03 0.06 0.15
0.00 0.00 0.01 0.01 0.01 0.01 0.01 0.01 0.02 0.03 0.04 0.04 0.05 0.06 0.07 0.11 0.15 0.16 0.16 0.20 0.25 0.27 0.30 0.34 0.42 0.49 0.40 0.42 0.48 0.44 0.32 0.19 0.14 0.09 0.12 0.16 0.16 0.16 0.14 0.11 0.09 0.10 0.16
0.00 0.00 0.00 0.00 0.01 0.01 0.01 0.01 0.02 0.03 0.03 0.03 0.03 0.04 0.06 0.08 0.08 0.09 0.12 0.22 0.29 0.35 0.39 0.38 0.41 0.46 0.44 0.40 0.42 0.43 0.42 0.39 0.32 0.18 0.12 0.15 0.18 0.19 0.18 0.15 0.12 0.12 0.15
0.00 0.00 0.00 0.00 0.00 0.01 0.02 0.02 0.02 0.02 0.01 0.02 0.03 0.05 0.05 0.05 0.05 0.05 0.05 0.11 0.22 0.31 0.34 0.35 0.34 0.38 0.40 0.38 0.36 0.36 0.39 0.42 0.39 0.30 0.17 0.13 0.14 0.14 0.14 0.13 0.10 0.08 0.08
0.00 0.00 0.00 0.00 0.00 0.00 0.02 0.03 0.03 0.03 0.03 0.03 0.04 0.06 0.07 0.06 0.05 0.04 0.05 0.08 0.12 0.15 0.18 0.23 0.25 0.27 0.27 0.28 0.28 0.32 0.33 0.34 0.37 0.40 0.33 0.23 0.16 0.15 0.16 0.15 0.15 0.10 0.07

GEFSSE_prec_meanprecacc_018.txt.gz
Total_Precipitation_Accumulation
0.00 0.00 0.00 0.00 0.00 0.00 0.00 0.00 0.00 0.00 0.00 0.00 0.00 0.00 0.00 0.00 0.00 0.00 0.00 0.00 0.00 0.00 0.00 0.00 0.00 0.00 0.00 0.00 0.00 0.00 0.00 0.00 0.00 0.00 0.00 0.00 0.00 0.00 0.00 0.00 0.04 0.01 0.00
0.00 0.00 0.00 0.00 0.00 0.00 0.00 0.00 0.00 0.00 0.00 0.00 0.00 0.00 0.00 0.00 0.00 0.00 0.00 0.00 0.00 0.00 0.00 0.00 0.00 0.00 0.00 0.00 0.00 0.00 0.00 0.00 0.00 0.00 0.00 0.00 0.00 0.00 0.00 0.00 0.03 0.01 0.00
0.00 0.00 0.00 0.00 0.00 0.00 0.00 0.00 0.00 0.00 0.00 0.00 0.00 0.00 0.00 0.00 0.00 0.00 0.00 0.00 0.00 0.00 0.00 0.00 0.00 0.00 0.00 0.00 0.00 0.00 0.00 0.00 0.00 0.00 0.00 0.01 0.00 0.00 0.00 0.00 0.00 0.00 0.00
0.00 0.00 0.00 0.00 0.00 0.00 0.00 0.00 0.00 0.00 0.00 0.00 0.00 0.00 0.00 0.00 0.00 0.00 0.00 0.00 0.00 0.00 0.00 0.00 0.00 0.00 0.00 0.00 0.00 0.00 0.00 0.00 0.00 0.00 0.01 0.03 0.01 0.00 0.00 0.00 0.00 0.00 0.00
0.00 0.00 0.00 0.00 0.00 0.00 0.00 0.00 0.00 0.00 0.00 0.00 0.00 0.00 0.00 0.00 0.00 0.00 0.00 0.00 0.00 0.00 0.00 0.00 0.00 0.00 0.00 0.00 0.00 0.00 0.00 0.00 0.00 0.00 0.00 0.01 0.01 0.01 0.00 0.00 0.00 0.00 0.00
0.00 0.00 0.00 0.00 0.00 0.00 0.00 0.00 0.00 0.00 0.00 0.00 0.00 0.00 0.00 0.01 0.01 0.00 0.00 0.00 0.00 0.00 0.00 0.00 0.00 0.00 0.00 0.00 0.00 0.00 0.01 0.01 0.00 0.00 0.00 0.01 0.02 0.04 0.01 0.01 0.01 0.01 0.00
0.00 0.00 0.00 0.00 0.00 0.00 0.00 0.00 0.00 0.00 0.00 0.00 0.00 0.00 0.00 0.01 0.01 0.01 0.00 0.00 0.00 0.00 0.00 0.00 0.00 0.00 0.00 0.00 0.00 0.00 0.00 0.00 0.01 0.02 0.04 0.06 0.08 0.09 0.07 0.09 0.10 0.07 0.04
0.00 0.00 0.00 0.00 0.00 0.00 0.00 0.00 0.00 0.00 0.00 0.00 0.00 0.00 0.00 0.00 0.00 0.00 0.00 0.00 0.01 0.02 0.01 0.00 0.00 0.00 0.00 0.00 0.00 0.00 0.00 0.00 0.00 0.00 0.01 0.06 0.12 0.13 0.19 0.23 0.19 0.14 0.11
0.00 0.00 0.00 0.00 0.00 0.00 0.01 0.01 0.00 0.00 0.00 0.00 0.00 0.00 0.00 0.00 0.00 0.00 0.00 0.00 0.01 0.02 0.02 0.02 0.01 0.00 0.00 0.01 0.01 0.01 0.01 0.01 0.00 0.01 0.01 0.01 0.03 0.04 0.16 0.24 0.19 0.14 0.13
0.00 0.00 0.00 0.00 0.00 0.00 0.00 0.01 0.01 0.01 0.01 0.01 0.00 0.00 0.00 0.00 0.01 0.01 0.01 0.02 0.01 0.01 0.02 0.03 0.03 0.03 0.03 0.04 0.05 0.03 0.01 0.01 0.01 0.01 0.00 0.01 0.03 0.07 0.16 0.20 0.16 0.13 0.11
0.00 0.00 0.00 0.00 0.00 0.00 0.00 0.00 0.01 0.01 0.01 0.01 0.01 0.01 0.00 0.01 0.04 0.05 0.08 0.12 0.09 0.05 0.04 0.04 0.06 0.08 0.07 0.04 0.06 0.11 0.08 0.02 0.01 0.00 0.01 0.01 0.05 0.13 0.20 0.17 0.15 0.14 0.12
0.00 0.00 0.00 0.00 0.00 0.00 0.00 0.00 0.00 0.00 0.00 0.00 0.01 0.04 0.03 0.03 0.05 0.03 0.10 0.14 0.10 0.08 0.06 0.06 0.15 0.13 0.06 0.02 0.13 0.36 0.17 0.04 0.03 0.04 0.03 0.04 0.07 0.16 0.24 0.18 0.13 0.15 0.16
0.00 0.00 0.00 0.00 0.00 0.00 0.00 0.00 0.00 0.00 0.01 0.02 0.02 0.02 0.05 0.05 0.04 0.02 0.03 0.04 0.08 0.10 0.11 0.16 0.22 0.09 0.05 0.04 0.07 0.15 0.14 0.05 0.04 0.06 0.11 0.13 0.15 0.21 0.25 0.18 0.13 0.13 0.14
0.00 0.00 0.00 0.00 0.00 0.01 0.01 0.01 0.01 0.02 0.02 0.03 0.06 0.05 0.07 0.06 0.04 0.02 0.02 0.02 0.05 0.08 0.16 0.17 0.14 0.11 0.09 0.05 0.05 0.06 0.09 0.13 0.08 0.09 0.17 0.16 0.10 0.15 0.21 0.18 0.13 0.11 0.11
0.00 0.00 0.00 0.00 0.00 0.01 0.01 0.02 0.01 0.01 0.01 0.01 0.05 0.06 0.07 0.06 0.04 0.03 0.02 0.03 0.04 0.10 0.18 0.20 0.20 0.18 0.13 0.10 0.07 0.04 0.03 0.06 0.10 0.12 0.18 0.11 0.09 0.10 0.13 0.15 0.13 0.10 0.08
0.00 0.00 0.00 0.00 0.01 0.02 0.02 0.02 0.02 0.02 0.02 0.02 0.04 0.07 0.12 0.11 0.11 0.11 0.09 0.10 0.09 0.09 0.10 0.15 0.20 0.24 0.20 0.19 0.11 0.07 0.07 0.07 0.08 0.09 0.09 0.16 0.15 0.07 0.08 0.09 0.11 0.11 0.10
0.01 0.01 0.02 0.03 0.04 0.06 0.05 0.06 0.05 0.06 0.08 0.12 0.16 0.21 0.29 0.34 0.34 0.35 0.29 0.19 0.15 0.22 0.26 0.24 0.23 0.25 0.18 0.18 0.17 0.22 0.22 0.17 0.13 0.12 0.10 0.12 0.14 0.07 0.07 0.07 0.10 0.13 0.13
0.03 0.04 0.06 0.09 0.11 0.14 0.17 0.21 0.25 0.26 0.30 0.32 0.33 0.32 0.37 0.46 0.51 0.53 0.37 0.19 0.23 0.41 0.50 0.47 0.42 0.39 0.32 0.31 0.29 0.34 0.34 0.26 0.19 0.14 0.11 0.09 0.08 0.04 0.08 0.16 0.14 0.14 0.18
0.04 0.08 0.16 0.22 0.26 0.31 0.41 0.52 0.56 0.53 0.48 0.44 0.40 0.33 0.30 0.34 0.40 0.45 0.27 0.21 0.38 0.53 0.55 0.55 0.48 0.51 0.43 0.39 0.43 0.39 0.31 0.23 0.16 0.14 0.11 0.09 0.08 0.05 0.04 0.13 0.10 0.13 0.23
0.06 0.14 0.25 0.32 0.34 0.32 0.31 0.36 0.38 0.38 0.36 0.34 0.28 0.22 0.18 0.18 0.22 0.34 0.29 0.25 0.42 0.52 0.48 0.63 0.69 0.70 0.57 0.48 0.48 0.26 0.14 0.12 0.12 0.09 0.07 0.07 0.05 0.04 0.03 0.03 0.11 0.14 0.24
0.06 0.09 0.12 0.14 0.12 0.10 0.11 0.11 0.14 0.17 0.21 0.24 0.23 0.19 0.15 0.14 0.19 0.33 0.32 0.32 0.38 0.42 0.40 0.54 0.65 0.64 0.46 0.60 0.66 0.27 0.10 0.07 0.06 0.04 0.03 0.03 0.03 0.03 0.03 0.03 0.06 0.10 0.24
0.01 0.02 0.02 0.02 0.02 0.01 0.01 0.03 0.05 0.07 0.10 0.11 0.12 0.13 0.11 0.14 0.18 0.24 0.25 0.25 0.30 0.34 0.34 0.38 0.46 0.50 0.42 0.63 0.69 0.53 0.26 0.10 0.06 0.04 0.05 0.05 0.06 0.07 0.08 0.08 0.08 0.11 0.20
0.00 0.00 0.01 0.01 0.01 0.01 0.01 0.01 0.02 0.03 0.04 0.04 0.05 0.06 0.07 0.11 0.15 0.16 0.17 0.21 0.26 0.28 0.30 0.35 0.46 0.56 0.46 0.50 0.67 0.72 0.50 0.25 0.19 0.14 0.16 0.19 0.19 0.19 0.18 0.17 0.18 0.21 0.26
0.00 0.00 0.00 0.00 0.01 0.01 0.01 0.01 0.02 0.03 0.03 0.03 0.03 0.04 0.06 0.08 0.08 0.09 0.12 0.22 0.29 0.35 0.39 0.38 0.42 0.49 0.48 0.43 0.48 0.57 0.60 0.55 0.45 0.25 0.17 0.19 0.22 0.23 0.23 0.22 0.20 0.23 0.27
0.00 0.00 0.00 0.00 0.00 0.01 0.02 0.02 0.02 0.02 0.01 0.02 0.03 0.05 0.05 0.05 0.05 0.05 0.05 0.11 0.22 0.31 0.35 0.35 0.35 0.39 0.43 0.41 0.40 0.42 0.49 0.54 0.51 0.39 0.23 0.16 0.17 0.18 0.19 0.20 0.20 0.19 0.22
0.00 0.00 0.00 0.00 0.00 0.00 0.02 0.03 0.03 0.03 0.03 0.03 0.04 0.06 0.07 0.06 0.05 0.04 0.05 0.08 0.12 0.15 0.18 0.23 0.26 0.28 0.29 0.30 0.32 0.35 0.38 0.40 0.42 0.45 0.37 0.26 0.19 0.20 0.23 0.27 0.29 0.26 0.23

GEFSSE_prec_meanprecacc_024.txt.gz
Total_Precipitation_Accumulation
0.00 0.00 0.00 0.00 0.00 0.00 0.00 0.00 0.00 0.00 0.00 0.00 0.00 0.00 0.00 0.00 0.00 0.00 0.00 0.00 0.00 0.00 0.00 0.00 0.00 0.00 0.00 0.00 0.00 0.00 0.00 0.00 0.00 0.00 0.00 0.00 0.00 0.00 0.01 0.01 0.05 0.04 0.02
0.00 0.00 0.00 0.00 0.00 0.00 0.00 0.00 0.00 0.00 0.00 0.00 0.00 0.00 0.00 0.00 0.00 0.00 0.00 0.00 0.00 0.00 0.00 0.00 0.00 0.00 0.00 0.00 0.00 0.00 0.00 0.00 0.00 0.00 0.00 0.00 0.00 0.00 0.00 0.00 0.04 0.03 0.00
0.00 0.00 0.00 0.00 0.00 0.00 0.00 0.00 0.00 0.00 0.00 0.00 0.00 0.00 0.00 0.00 0.00 0.00 0.00 0.00 0.00 0.00 0.00 0.00 0.00 0.00 0.00 0.00 0.00 0.00 0.00 0.00 0.00 0.00 0.00 0.01 0.00 0.00 0.00 0.00 0.00 0.00 0.00
0.00 0.00 0.00 0.00 0.00 0.00 0.00 0.00 0.00 0.00 0.00 0.00 0.00 0.00 0.00 0.00 0.00 0.00 0.00 0.00 0.00 0.00 0.00 0.00 0.00 0.00 0.00 0.00 0.00 0.00 0.00 0.00 0.00 0.00 0.01 0.03 0.01 0.00 0.00 0.00 0.00 0.00 0.00
0.00 0.00 0.00 0.00 0.00 0.00 0.00 0.00 0.00 0.00 0.00 0.00 0.00 0.00 0.00 0.00 0.00 0.00 0.00 0.00 0.00 0.00 0.00 0.00 0.00 0.00 0.00 0.00 0.00 0.00 0.00 0.00 0.00 0.00 0.00 0.01 0.02 0.02 0.00 0.00 0.00 0.00 0.00
0.00 0.00 0.00 0.00 0.00 0.00 0.00 0.00 0.00 0.00 0.00 0.00 0.00 0.00 0.00 0.01 0.01 0.00 0.00 0.00 0.00 0.00 0.00 0.00 0.00 0.00 0.00 0.00 0.00 0.00 0.01 0.01 0.00 0.00 0.01 0.01 0.05 0.06 0.03 0.06 0.04 0.02 0.01
0.00 0.00 0.00 0.00 0.00 0.00 0.00 0.00 0.00 0.00 0.00 0.00 0.00 0.00 0.00 0.01 0.01 0.01 0.00 0.00 0.00 0.00 0.00 0.00 0.00 0.00 0.00 0.00 0.00 0.00 0.00 0.01 0.01 0.02 0.04 0.07 0.11 0.10 0.11 0.25 0.27 0.18 0.10
0.00 0.00 0.00 0.00 0.00 0.00 0.00 0.00 0.00 0.00 0.00 0.00 0.00 0.00 0.00 0.00 0.00 0.00 0.00 0.00 0.01 0.02 0.01 0.00 0.00 0.00 0.00 0.00 0.00 0.01 0.01 0.01 0.00 0.00 0.01 0.06 0.12 0.13 0.23 0.43 0.44 0.34 0.26
0.00 0.00 0.00 0.00 0.00 0.00 0.01 0.01 0.00 0.00 0.00 0.00 0.00 0.00 0.00 0.00 0.00 0.00 0.00 0.00 0.01 0.02 0.03 0.02 0.01 0.00 0.00 0.01 0.02 0.02 0.02 0.03 0.01 0.02 0.02 0.02 0.04 0.05 0.18 0.32 0.33 0.29 0.26
0.00 0.00 0.00 0.00 0.00 0.00 0.00 0.01 0.01 0.01 0.01 0.01 0.00 0.00 0.00 0.00 0.01 0.01 0.01 0.02 0.01 0.01 0.02 0.03 0.03 0.03 0.04 0.06 0.07 0.06 0.06 0.04 0.02 0.01 0.02 0.02 0.05 0.09 0.18 0.22 0.22 0.23 0.22
0.00 0.00 0.00 0.00 0.00 0.00 0.00 0.00 0.01 0.01 0.01 0.01 0.01 0.01 0.01 0.01 0.04 0.05 0.09 0.13 0.09 0.05 0.05 0.05 0.07 0.09 0.10 0.06 0.10 0.18 0.13 0.03 0.02 0.01 0.01 0.02 0.08 0.17 0.23 0.21 0.20 0.21 0.22
0.00 0.00 0.00 0.00 0.00 0.00 0.00 0.00 0.00 0.00 0.01 0.01 0.02 0.05 0.05 0.06 0.07 0.04 0.11 0.14 0.10 0.08 0.06 0.08 0.21 0.19 0.10 0.05 0.20 0.48 0.21 0.06 0.04 0.04 0.04 0.05 0.13 0.22 0.30 0.22 0.19 0.22 0.23
0.00 0.00 0.00 0.00 0.01 0.00 0.00 0.00 0.00 0.01 0.02 0.03 0.03 0.04 0.08 0.08 0.06 0.03 0.03 0.05 0.08 0.10 0.11 0.17 0.26 0.13 0.11 0.14 0.18 0.26 0.21 0.12 0.07 0.08 0.12 0.14 0.20 0.30 0.34 0.24 0.20 0.21 0.23
0.00 0.00 0.00 0.00 0.01 0.01 0.01 0.01 0.01 0.02 0.03 0.05 0.09 0.08 0.13 0.10 0.07 0.04 0.04 0.03 0.05 0.09 0.17 0.19 0.18 0.17 0.18 0.15 0.16 0.14 0.17 0.23 0.15 0.16 0.21 0.17 0.13 0.24 0.34 0.26 0.20 0.19 0.20
0.00 0.00 0.00 0.00 0.00 0.01 0.02 0.02 0.01 0.01 0.02 0.03 0.08 0.10 0.13 0.13 0.11 0.11 0.09 0.07 0.07 0.14 0.22 0.26 0.29 0.28 0.23 0.20 0.15 0.11 0.09 0.13 0.17 0.19 0.21 0.13 0.11 0.18 0.23 0.26 0.21 0.17 0.15
0.00 0.00 0.01 0.01 0.02 0.02 0.03 0.03 0.04 0.05 0.06 0.08 0.13 0.21 0.30 0.32 0.31 0.34 0.27 0.23 0.19 0.20 0.24 0.33 0.36 0.40 0.32 0.29 0.16 0.14 0.15 0.15 0.15 0.16 0.12 0.19 0.18 0.11 0.13 0.17 0.20 0.19 0.16
0.01 0.01 0.03 0.04 0.07 0.09 0.10 0.11 0.12 0.16 0.21 0.30 0.41 0.48 0.61 0.69 0.68 0.67 0.52 0.34 0.31 0.43 0.50 0.46 0.40 0.46 0.28 0.25 0.22 0.30 0.31 0.25 0.19 0.17 0.14 0.15 0.16 0.08 0.08 0.10 0.15 0.19 0.20
0.03 0.05 0.09 0.12 0.16 0.21 0.27 0.31 0.35 0.38 0.43 0.50 0.56 0.54 0.59 0.72 0.75 0.75 0.51 0.28 0.37 0.63 0.72 0.66 0.59 0.57 0.43 0.41 0.40 0.45 0.43 0.34 0.23 0.18 0.13 0.11 0.10 0.05 0.09 0.16 0.15 0.16 0.22
0.04 0.10 0.20 0.28 0.33 0.39 0.49 0.58 0.60 0.57 0.54 0.52 0.49 0.41 0.39 0.43 0.47 0.52 0.32 0.26 0.45 0.61 0.65 0.64 0.61 0.68 0.58 0.56 0.61 0.52 0.39 0.27 0.19 0.16 0.12 0.10 0.10 0.07 0.05 0.13 0.10 0.13 0.24
0.07 0.16 0.30 0.37 0.40 0.37 0.34 0.37 0.38 0.39 0.37 0.35 0.29 0.23 0.20 0.20 0.24 0.36 0.30 0.27 0.44 0.54 0.51 0.68 0.74 0.79 0.65 0.59 0.61 0.35 0.21 0.17 0.15 0.11 0.08 0.08 0.06 0.04 0.03 0.04 0.12 0.14 0.24
0.06 0.11 0.15 0.17 0.15 0.11 0.11 0.12 0.14 0.17 0.22 0.24 0.23 0.19 0.15 0.14 0.19 0.33 0.32 0.32 0.39 0.43 0.41 0.56 0.67 0.67 0.50 0.68 0.76 0.34 0.14 0.09 0.08 0.06 0.05 0.03 0.03 0.03 0.04 0.04 0.06 0.11 0.25
0.01 0.02 0.03 0.03 0.03 0.02 0.02 0.04 0.05 0.07 0.10 0.11 0.12 0.13 0.11 0.14 0.18 0.24 0.25 0.26 0.30 0.34 0.34 0.38 0.47 0.51 0.43 0.68 0.77 0.61 0.31 0.14 0.08 0.05 0.06 0.06 0.06 0.07 0.08 0.09 0.09 0.12 0.20
0.01 0.01 0.01 0.01 0.02 0.01 0.01 0.01 0.02 0.03 0.04 0.05 0.05 0.06 0.07 0.11 0.15 0.16 0.17 0.21 0.26 0.28 0.31 0.35 0.47 0.57 0.48 0.53 0.72 0.80 0.55 0.27 0.22 0.16 0.17 0.20 0.20 0.20 0.19 0.18 0.18 0.22 0.27
0.01 0.01 0.01 0.01 0.02 0.02 0.02 0.02 0.03 0.04 0.03 0.03 0.04 0.05 0.06 0.08 0.08 0.09 0.12 0.23 0.30 0.35 0.39 0.39 0.43 0.50 0.51 0.46 0.51 0.61 0.65 0.60 0.50 0.27 0.19 0.20 0.24 0.25 0.24 0.23 0.21 0.24 0.29
0.01 0.01 0.01 0.01 0.03 0.03 0.04 0.05 0.04 0.02 0.02 0.02 0.03 0.05 0.05 0.05 0.05 0.05 0.06 0.11 0.22 0.31 0.35 0.36 0.37 0.42 0.46 0.45 0.43 0.45 0.53 0.59 0.57 0.44 0.25 0.18 0.22 0.22 0.22 0.24 0.22 0.22 0.26
0.01 0.01 0.01 0.02 0.03 0.03 0.04 0.05 0.05 0.04 0.04 0.03 0.04 0.06 0.07 0.06 0.05 0.04 0.05 0.08 0.13 0.15 0.19 0.25 0.28 0.31 0.33 0.36 0.37 0.41 0.44 0.45 0.46 0.51 0.42 0.31 0.26 0.28 0.31 0.33 0.35 0.32 0.30

GEFSSE_prec_meanprecacc_030.txt.gz
Total_Precipitation_Accumulation
0.00 0.00 0.00 0.00 0.00 0.00 0.00 0.00 0.00 0.00 0.00 0.00 0.00 0.00 0.00 0.00 0.00 0.00 0.00 0.00 0.00 0.00 0.00 0.00 0.00 0.00 0.00 0.00 0.00 0.00 0.00 0.00 0.00 0.00 0.00 0.00 0.00 0.00 0.01 0.01 0.11 0.14 0.03
0.00 0.00 0.00 0.00 0.00 0.00 0.00 0.00 0.00 0.00 0.00 0.00 0.00 0.00 0.00 0.00 0.00 0.00 0.00 0.00 0.00 0.00 0.00 0.00 0.00 0.00 0.00 0.00 0.00 0.00 0.00 0.00 0.00 0.00 0.00 0.00 0.00 0.00 0.00 0.00 0.09 0.08 0.01
0.00 0.00 0.00 0.00 0.00 0.00 0.00 0.00 0.00 0.00 0.00 0.00 0.00 0.00 0.00 0.00 0.00 0.00 0.00 0.00 0.00 0.00 0.00 0.00 0.00 0.00 0.00 0.00 0.00 0.00 0.00 0.00 0.00 0.00 0.01 0.02 0.00 0.00 0.00 0.00 0.00 0.00 0.00
0.00 0.00 0.00 0.00 0.00 0.00 0.00 0.00 0.00 0.00 0.00 0.00 0.00 0.00 0.00 0.00 0.00 0.00 0.00 0.00 0.00 0.00 0.00 0.00 0.00 0.00 0.00 0.00 0.00 0.00 0.00 0.00 0.00 0.00 0.02 0.08 0.01 0.00 0.00 0.00 0.00 0.00 0.00
0.00 0.00 0.00 0.00 0.00 0.00 0.00 0.00 0.00 0.00 0.00 0.00 0.00 0.00 0.00 0.00 0.00 0.00 0.00 0.00 0.00 0.00 0.00 0.00 0.00 0.00 0.00 0.00 0.00 0.00 0.00 0.00 0.00 0.00 0.01 0.02 0.03 0.03 0.00 0.00 0.00 0.00 0.00
0.00 0.00 0.00 0.00 0.00 0.00 0.00 0.00 0.00 0.00 0.00 0.00 0.00 0.00 0.00 0.01 0.01 0.00 0.00 0.00 0.00 0.00 0.00 0.00 0.00 0.00 0.00 0.00 0.00 0.00 0.01 0.01 0.00 0.00 0.01 0.02 0.10 0.10 0.03 0.06 0.05 0.02 0.01
0.00 0.00 0.00 0.00 0.00 0.00 0.00 0.00 0.00 0.00 0.00 0.00 0.00 0.00 0.00 0.01 0.01 0.01 0.00 0.00 0.00 0.00 0.00 0.00 0.00 0.00 0.00 0.00 0.00 0.00 0.00 0.01 0.01 0.02 0.04 0.07 0.13 0.12 0.11 0.27 0.29 0.20 0.11
0.00 0.00 0.00 0.00 0.00 0.00 0.00 0.00 0.00 0.00 0.00 0.00 0.00 0.00 0.00 0.00 0.00 0.00 0.00 0.00 0.01 0.02 0.01 0.00 0.00 0.00 0.00 0.00 0.00 0.01 0.01 0.01 0.00 0.00 0.01 0.06 0.12 0.14 0.24 0.44 0.45 0.38 0.29
0.00 0.00 0.00 0.00 0.00 0.00 0.01 0.01 0.00 0.00 0.00 0.00 0.00 0.00 0.00 0.00 0.00 0.00 0.00 0.00 0.01 0.02 0.03 0.02 0.01 0.00 0.01 0.01 0.02 0.02 0.02 0.03 0.01 0.02 0.02 0.02 0.04 0.05 0.19 0.33 0.33 0.31 0.30
0.00 0.00 0.00 0.00 0.00 0.00 0.00 0.01 0.01 0.01 0.01 0.01 0.00 0.00 0.00 0.00 0.01 0.01 0.02 0.02 0.01 0.02 0.03 0.03 0.03 0.03 0.05 0.06 0.07 0.07 0.07 0.04 0.02 0.01 0.02 0.02 0.05 0.09 0.19 0.23 0.22 0.23 0.24
0.00 0.00 0.00 0.00 0.00 0.00 0.00 0.00 0.01 0.01 0.01 0.01 0.01 0.01 0.01 0.01 0.06 0.11 0.14 0.17 0.11 0.07 0.05 0.05 0.07 0.10 0.10 0.06 0.11 0.22 0.16 0.03 0.02 0.01 0.01 0.02 0.09 0.17 0.24 0.22 0.22 0.22 0.23
0.00 0.00 0.00 0.00 0.00 0.00 0.00 0.00 0.00 0.00 0.01 0.01 0.03 0.09 0.11 0.14 0.14 0.07 0.20 0.22 0.15 0.12 0.08 0.08 0.23 0.20 0.11 0.06 0.28 0.69 0.26 0.06 0.04 0.04 0.04 0.06 0.14 0.24 0.32 0.24 0.20 0.24 0.25
0.00 0.00 0.00 0.00 0.01 0.00 0.00 0.00 0.00 0.01 0.06 0.06 0.07 0.14 0.24 0.25 0.15 0.07 0.07 0.13 0.20 0.19 0.16 0.21 0.30 0.15 0.13 0.19 0.27 0.40 0.25 0.13 0.08 0.09 0.14 0.17 0.23 0.34 0.37 0.25 0.21 0.23 0.24
0.00 0.00 0.00 0.00 0.01 0.01 0.01 0.01 0.01 0.02 0.05 0.07 0.11 0.13 0.25 0.24 0.17 0.12 0.11 0.09 0.16 0.20 0.29 0.27 0.24 0.21 0.22 0.19 0.19 0.17 0.20 0.27 0.17 0.17 0.24 0.20 0.16 0.27 0.36 0.27 0.22 0.21 0.22
0.00 0.00 0.00 0.00 0.00 0.01 0.02 0.02 0.02 0.02 0.03 0.04 0.11 0.13 0.21 0.27 0.23 0.25 0.23 0.19 0.13 0.21 0.31 0.36 0.35 0.35 0.29 0.23 0.18 0.12 0.10 0.15 0.19 0.21 0.25 0.19 0.14 0.20 0.25 0.28 0.23 0.19 0.18
0.00 0.00 0.01 0.01 0.02 0.02 0.03 0.06 0.08 0.08 0.10 0.12 0.19 0.27 0.40 0.47 0.49 0.50 0.43 0.37 0.30 0.33 0.36 0.47 0.47 0.51 0.41 0.39 0.22 0.17 0.19 0.17 0.17 0.19 0.18 0.32 0.32 0.17 0.16 0.19 0.22 0.22 0.19
0.01 0.01 0.03 0.04 0.07 0.10 0.14 0.17 0.20 0.22 0.27 0.37 0.49 0.53 0.68 0.82 0.85 0.81 0.65 0.46 0.47 0.62 0.69 0.60 0.53 0.64 0.42 0.38 0.34 0.42 0.44 0.34 0.25 0.23 0.20 0.24 0.28 0.17 0.12 0.11 0.17 0.21 0.22
0.03 0.05 0.09 0.12 0.17 0.28 0.36 0.37 0.41 0.41 0.48 0.55 0.59 0.56 0.61 0.77 0.82 0.82 0.58 0.36 0.49 0.74 0.82 0.75 0.71 0.70 0.59 0.59 0.60 0.65 0.64 0.51 0.34 0.27 0.19 0.15 0.14 0.08 0.11 0.19 0.17 0.17 0.24
0.05 0.11 0.22 0.31 0.38 0.51 0.59 0.63 0.63 0.59 0.55 0.53 0.50 0.42 0.40 0.43 0.49 0.55 0.34 0.28 0.47 0.64 0.68 0.67 0.70 0.77 0.66 0.69 0.75 0.69 0.55 0.42 0.30 0.23 0.18 0.13 0.12 0.09 0.06 0.15 0.11 0.15 0.26
0.13 0.22 0.36 0.46 0.50 0.45 0.38 0.39 0.40 0.40 0.38 0.35 0.29 0.23 0.20 0.20 0.24 0.36 0.30 0.27 0.45 0.54 0.51 0.68 0.75 0.82 0.69 0.64 0.66 0.45 0.33 0.22 0.20 0.14 0.11 0.10 0.07 0.05 0.04 0.05 0.14 0.16 0.27
0.23 0.27 0.30 0.33 0.29 0.21 0.19 0.15 0.16 0.17 0.22 0.24 0.23 0.19 0.15 0.14 0.19 0.33 0.32 0.32 0.39 0.43 0.41 0.56 0.67 0.68 0.51 0.71 0.79 0.37 0.17 0.10 0.10 0.08 0.06 0.05 0.05 0.05 0.07 0.07 0.09 0.13 0.29
0.40 0.43 0.36 0.29 0.25 0.16 0.10 0.07 0.06 0.07 0.10 0.11 0.12 0.13 0.11 0.14 0.18 0.24 0.25 0.26 0.30 0.34 0.34 0.39 0.48 0.52 0.44 0.70 0.79 0.64 0.33 0.16 0.10 0.06 0.08 0.08 0.08 0.09 0.11 0.13 0.15 0.20 0.25
0.86 0.78 0.56 0.37 0.29 0.15 0.08 0.04 0.04 0.04 0.04 0.05 0.05 0.06 0.07 0.11 0.15 0.16 0.17 0.21 0.26 0.28 0.31 0.36 0.47 0.58 0.49 0.54 0.74 0.83 0.58 0.29 0.23 0.17 0.19 0.23 0.23 0.25 0.24 0.28 0.34 0.38 0.37
0.90 0.75 0.53 0.34 0.24 0.16 0.11 0.09 0.09 0.06 0.04 0.03 0.04 0.05 0.06 0.08 0.08 0.09 0.12 0.23 0.30 0.35 0.40 0.39 0.44 0.52 0.54 0.47 0.54 0.67 0.70 0.66 0.54 0.30 0.21 0.23 0.28 0.29 0.28 0.28 0.29 0.35 0.41
0.52 0.45 0.33 0.31 0.29 0.23 0.19 0.18 0.14 0.07 0.03 0.02 0.03 0.05 0.06 0.05 0.05 0.05 0.06 0.11 0.23 0.31 0.36 0.37 0.39 0.44 0.50 0.48 0.47 0.51 0.61 0.71 0.67 0.51 0.28 0.21 0.27 0.28 0.30 0.31 0.30 0.32 0.38
0.19 0.18 0.16 0.20 0.24 0.21 0.20 0.20 0.17 0.13 0.09 0.06 0.06 0.08 0.07 0.06 0.05 0.04 0.05 0.08 0.13 0.15 0.19 0.26 0.30 0.34 0.38 0.41 0.44 0.47 0.51 0.53 0.57 0.64 0.51 0.39 0.35 0.36 0.44 0.48 0.49 0.47 0.45

GEFSSE_prec_meanprecacc_036.txt.gz
Total_Precipitation_Accumulation
0.00 0.00 0.00 0.00 0.00 0.00 0.00 0.00 0.00 0.00 0.00 0.00 0.00 0.00 0.00 0.00 0.00 0.00 0.00 0.00 0.00 0.00 0.01 0.01 0.01 0.01 0.00 0.00 0.00 0.00 0.00 0.00 0.00 0.00 0.00 0.00 0.01 0.01 0.01 0.01 0.11 0.14 0.03
0.00 0.00 0.00 0.00 0.00 0.00 0.00 0.00 0.00 0.00 0.00 0.00 0.00 0.01 0.00 0.00 0.00 0.00 0.00 0.00 0.00 0.00 0.00 0.00 0.00 0.00 0.00 0.00 0.00 0.00 0.00 0.00 0.00 0.00 0.00 0.00 0.01 0.01 0.01 0.01 0.09 0.08 0.01
0.00 0.00 0.00 0.00 0.00 0.00 0.00 0.00 0.00 0.00 0.00 0.00 0.00 0.00 0.00 0.00 0.00 0.00 0.00 0.00 0.00 0.00 0.00 0.00 0.00 0.00 0.00 0.00 0.00 0.00 0.00 0.00 0.00 0.00 0.01 0.02 0.00 0.00 0.00 0.00 0.00 0.00 0.00
0.00 0.00 0.00 0.00 0.00 0.00 0.00 0.00 0.00 0.00 0.00 0.00 0.00 0.00 0.00 0.00 0.00 0.00 0.00 0.00 0.00 0.00 0.00 0.00 0.00 0.00 0.00 0.00 0.00 0.00 0.00 0.00 0.00 0.00 0.03 0.10 0.02 0.00 0.00 0.00 0.00 0.00 0.00
0.00 0.00 0.00 0.00 0.00 0.00 0.00 0.00 0.00 0.00 0.00 0.00 0.00 0.00 0.00 0.00 0.00 0.00 0.00 0.00 0.00 0.00 0.00 0.00 0.00 0.00 0.00 0.00 0.00 0.00 0.00 0.00 0.00 0.00 0.01 0.05 0.05 0.03 0.00 0.00 0.00 0.00 0.00
0.00 0.00 0.00 0.00 0.00 0.00 0.00 0.00 0.00 0.00 0.00 0.00 0.00 0.00 0.00 0.01 0.01 0.00 0.00 0.00 0.00 0.00 0.00 0.00 0.00 0.00 0.00 0.00 0.00 0.00 0.01 0.01 0.00 0.00 0.01 0.03 0.11 0.11 0.04 0.07 0.05 0.02 0.01
0.00 0.00 0.00 0.00 0.00 0.00 0.00 0.00 0.00 0.00 0.00 0.00 0.00 0.00 0.00 0.01 0.01 0.01 0.00 0.00 0.00 0.00 0.00 0.00 0.00 0.00 0.00 0.00 0.00 0.00 0.00 0.01 0.01 0.02 0.04 0.08 0.13 0.14 0.14 0.27 0.29 0.20 0.11
0.00 0.00 0.00 0.00 0.00 0.00 0.00 0.00 0.00 0.00 0.00 0.00 0.00 0.00 0.00 0.00 0.00 0.00 0.00 0.00 0.01 0.02 0.01 0.00 0.00 0.00 0.00 0.00 0.00 0.01 0.01 0.01 0.00 0.00 0.01 0.06 0.13 0.17 0.29 0.46 0.46 0.38 0.30
0.00 0.00 0.00 0.00 0.00 0.01 0.01 0.01 0.01 0.00 0.00 0.00 0.00 0.00 0.00 0.00 0.00 0.00 0.00 0.00 0.01 0.02 0.03 0.02 0.01 0.00 0.01 0.01 0.02 0.02 0.02 0.03 0.01 0.02 0.02 0.02 0.06 0.09 0.25 0.38 0.35 0.32 0.30
0.00 0.00 0.00 0.00 0.00 0.00 0.00 0.01 0.01 0.01 0.01 0.01 0.00 0.00 0.00 0.00 0.01 0.01 0.02 0.02 0.02 0.02 0.03 0.03 0.03 0.03 0.05 0.06 0.07 0.07 0.07 0.04 0.02 0.01 0.02 0.03 0.07 0.15 0.28 0.31 0.27 0.27 0.27
0.00 0.00 0.00 0.00 0.00 0.00 0.00 0.00 0.01 0.01 0.01 0.01 0.01 0.01 0.01 0.01 0.06 0.11 0.15 0.19 0.15 0.11 0.08 0.07 0.08 0.10 0.11 0.06 0.11 0.23 0.17 0.03 0.02 0.01 0.01 0.02 0.10 0.25 0.36 0.32 0.29 0.28 0.27
0.00 0.00 0.00 0.00 0.00 0.00 0.00 0.00 0.00 0.00 0.01 0.01 0.03 0.09 0.11 0.15 0.14 0.08 0.23 0.27 0.24 0.24 0.18 0.17 0.30 0.24 0.12 0.07 0.29 0.72 0.27 0.07 0.06 0.05 0.04 0.06 0.17 0.36 0.48 0.34 0.28 0.30 0.29
0.01 0.01 0.00 0.00 0.01 0.00 0.00 0.00 0.00 0.01 0.06 0.06 0.07 0.14 0.25 0.26 0.16 0.08 0.10 0.22 0.31 0.35 0.27 0.35 0.44 0.23 0.18 0.23 0.30 0.44 0.30 0.18 0.12 0.14 0.18 0.20 0.31 0.51 0.57 0.38 0.30 0.29 0.29
0.02 0.02 0.01 0.01 0.01 0.01 0.01 0.01 0.01 0.02 0.05 0.07 0.12 0.16 0.29 0.28 0.21 0.16 0.16 0.16 0.24 0.28 0.39 0.37 0.33 0.33 0.34 0.28 0.28 0.26 0.32 0.38 0.27 0.31 0.37 0.29 0.31 0.48 0.60 0.47 0.35 0.30 0.28
0.04 0.04 0.05 0.05 0.03 0.02 0.03 0.03 0.03 0.03 0.04 0.06 0.15 0.20 0.28 0.35 0.30 0.32 0.31 0.25 0.18 0.27 0.40 0.47 0.47 0.48 0.43 0.37 0.32 0.25 0.25 0.32 0.40 0.46 0.45 0.44 0.52 0.56 0.55 0.55 0.44 0.32 0.27
0.08 0.11 0.15 0.16 0.12 0.09 0.07 0.09 0.11 0.12 0.14 0.17 0.25 0.33 0.45 0.54 0.56 0.58 0.50 0.43 0.34 0.38 0.43 0.55 0.56 0.61 0.50 0.49 0.31 0.29 0.32 0.31 0.38 0.43 0.43 0.61 0.70 0.56 0.46 0.45 0.42 0.35 0.28
0.21 0.25 0.29 0.35 0.36 0.30 0.28 0.26 0.27 0.27 0.32 0.44 0.54 0.58 0.72 0.87 0.91 0.86 0.69 0.49 0.49 0.65 0.73 0.63 0.56 0.68 0.46 0.42 0.38 0.46 0.49 0.40 0.34 0.35 0.36 0.44 0.55 0.48 0.38 0.32 0.36 0.36 0.34
0.51 0.55 0.60 0.66 0.67 0.70 0.70 0.60 0.56 0.53 0.59 0.66 0.66 0.60 0.65 0.80 0.84 0.84 0.60 0.37 0.50 0.75 0.83 0.76 0.71 0.71 0.60 0.61 0.61 0.65 0.64 0.52 0.36 0.30 0.24 0.26 0.29 0.26 0.31 0.38 0.35 0.32 0.38
1.02 1.23 1.34 1.33 1.21 1.22 1.18 1.04 0.90 0.79 0.73 0.66 0.59 0.47 0.43 0.45 0.49 0.55 0.34 0.28 0.47 0.64 0.68 0.67 0.70 0.77 0.66 0.69 0.76 0.70 0.55 0.42 0.31 0.24 0.21 0.18 0.19 0.19 0.18 0.28 0.25 0.29 0.43
1.44 1.86 2.17 2.12 1.88 1.57 1.21 0.96 0.82 0.69 0.58 0.49 0.40 0.32 0.24 0.21 0.25 0.36 0.30 0.27 0.45 0.54 0.51 0.68 0.75 0.82 0.69 0.64 0.66 0.45 0.33 0.22 0.20 0.14 0.12 0.11 0.11 0.11 0.12 0.15 0.26 0.27 0.41
1.79 2.24 2.43 2.34 1.87 1.39 1.10 0.87 0.68 0.49 0.40 0.36 0.31 0.25 0.18 0.14 0.19 0.33 0.32 0.32 0.39 0.43 0.41 0.56 0.67 0.68 0.51 0.71 0.79 0.37 0.17 0.10 0.10 0.08 0.07 0.07 0.07 0.10 0.15 0.18 0.23 0.29 0.46
1.79 2.28 2.33 1.87 1.40 1.05 0.82 0.64 0.48 0.37 0.33 0.31 0.24 0.19 0.14 0.15 0.19 0.24 0.25 0.26 0.30 0.34 0.34 0.39 0.48 0.52 0.44 0.70 0.79 0.64 0.33 0.16 0.10 0.06 0.09 0.10 0.12 0.14 0.18 0.23 0.33 0.43 0.54
1.64 1.68 1.41 1.12 0.86 0.66 0.54 0.45 0.41 0.32 0.28 0.22 0.16 0.13 0.13 0.15 0.17 0.17 0.17 0.21 0.26 0.28 0.31 0.36 0.47 0.58 0.49 0.54 0.74 0.84 0.58 0.29 0.24 0.17 0.19 0.24 0.26 0.31 0.34 0.42 0.52 0.59 0.66
1.13 0.98 0.80 0.69 0.57 0.50 0.48 0.37 0.38 0.31 0.23 0.16 0.11 0.11 0.13 0.13 0.11 0.10 0.13 0.23 0.30 0.35 0.40 0.39 0.44 0.52 0.54 0.47 0.54 0.68 0.71 0.67 0.55 0.30 0.21 0.23 0.30 0.34 0.38 0.44 0.49 0.59 0.63
0.61 0.56 0.46 0.52 0.57 0.51 0.46 0.38 0.30 0.22 0.15 0.11 0.12 0.15 0.16 0.12 0.10 0.09 0.08 0.13 0.24 0.32 0.36 0.37 0.39 0.44 0.50 0.49 0.47 0.51 0.61 0.71 0.68 0.52 0.29 0.21 0.28 0.31 0.39 0.46 0.52 0.57 0.61
0.26 0.25 0.24 0.31 0.38 0.37 0.36 0.34 0.30 0.25 0.21 0.18 0.17 0.17 0.16 0.15 0.13 0.11 0.09 0.11 0.14 0.17 0.20 0.26 0.30 0.34 0.38 0.41 0.44 0.47 0.51 0.54 0.58 0.66 0.52 0.40 0.36 0.37 0.47 0.55 0.65 0.71 0.71

GEFSSE_prec_meanprecacc_042.txt.gz
Total_Precipitation_Accumulation
0.00 0.00 0.00 0.00 0.00 0.00 0.00 0.00 0.00 0.00 0.00 0.00 0.00 0.00 0.00 0.00 0.00 0.00 0.00 0.00 0.00 0.01 0.01 0.01 0.01 0.01 0.00 0.00 0.00 0.00 0.00 0.00 0.00 0.00 0.00 0.01 0.03 0.05 0.04 0.02 0.11 0.14 0.04
0.00 0.00 0.00 0.00 0.00 0.00 0.00 0.00 0.00 0.00 0.00 0.00 0.00 0.01 0.00 0.00 0.00 0.00 0.00 0.00 0.00 0.00 0.00 0.00 0.00 0.00 0.00 0.00 0.00 0.00 0.00 0.00 0.00 0.00 0.01 0.01 0.04 0.06 0.03 0.01 0.09 0.08 0.01
0.00 0.00 0.00 0.00 0.00 0.00 0.00 0.00 0.00 0.00 0.00 0.00 0.01 0.00 0.00 0.00 0.00 0.00 0.00 0.00 0.00 0.00 0.00 0.00 0.00 0.00 0.00 0.00 0.00 0.00 0.00 0.00 0.00 0.00 0.01 0.02 0.02 0.04 0.02 0.00 0.00 0.01 0.01
0.00 0.00 0.00 0.00 0.00 0.00 0.00 0.00 0.00 0.00 0.00 0.00 0.00 0.00 0.00 0.00 0.00 0.00 0.00 0.00 0.00 0.00 0.00 0.00 0.00 0.00 0.00 0.00 0.00 0.00 0.00 0.00 0.00 0.00 0.03 0.10 0.02 0.01 0.01 0.00 0.00 0.00 0.00
0.00 0.00 0.00 0.00 0.00 0.01 0.00 0.00 0.00 0.00 0.00 0.00 0.00 0.00 0.00 0.00 0.01 0.00 0.00 0.00 0.00 0.00 0.00 0.00 0.00 0.00 0.00 0.00 0.00 0.00 0.00 0.00 0.00 0.00 0.01 0.05 0.05 0.03 0.01 0.01 0.00 0.00 0.00
0.00 0.00 0.00 0.00 0.00 0.01 0.00 0.00 0.00 0.00 0.00 0.00 0.00 0.00 0.00 0.01 0.01 0.00 0.00 0.00 0.00 0.00 0.00 0.00 0.00 0.00 0.00 0.00 0.00 0.00 0.01 0.01 0.00 0.01 0.01 0.03 0.11 0.11 0.05 0.08 0.05 0.03 0.01
0.00 0.00 0.00 0.00 0.00 0.00 0.00 0.00 0.00 0.00 0.00 0.01 0.00 0.00 0.00 0.01 0.01 0.01 0.00 0.00 0.00 0.00 0.00 0.00 0.00 0.00 0.00 0.00 0.00 0.00 0.00 0.01 0.01 0.02 0.04 0.08 0.14 0.15 0.16 0.30 0.32 0.22 0.11
0.00 0.00 0.00 0.00 0.00 0.01 0.01 0.01 0.00 0.00 0.00 0.00 0.00 0.00 0.00 0.00 0.00 0.00 0.00 0.00 0.01 0.02 0.01 0.00 0.00 0.00 0.00 0.00 0.00 0.01 0.01 0.01 0.00 0.00 0.01 0.06 0.14 0.18 0.32 0.52 0.52 0.42 0.32
0.00 0.00 0.00 0.00 0.00 0.01 0.01 0.01 0.01 0.01 0.00 0.00 0.00 0.00 0.00 0.00 0.00 0.00 0.00 0.00 0.01 0.02 0.03 0.02 0.01 0.00 0.01 0.01 0.02 0.02 0.03 0.03 0.01 0.02 0.02 0.02 0.06 0.09 0.29 0.46 0.43 0.39 0.36
0.00 0.00 0.00 0.00 0.00 0.00 0.00 0.01 0.01 0.01 0.01 0.01 0.00 0.00 0.00 0.00 0.01 0.01 0.02 0.02 0.02 0.02 0.03 0.04 0.03 0.03 0.05 0.06 0.07 0.07 0.07 0.04 0.02 0.01 0.02 0.03 0.07 0.16 0.34 0.42 0.37 0.37 0.36
0.00 0.00 0.00 0.00 0.00 0.00 0.00 0.00 0.01 0.01 0.01 0.01 0.01 0.01 0.01 0.01 0.06 0.11 0.15 0.20 0.16 0.13 0.10 0.08 0.09 0.11 0.11 0.07 0.11 0.23 0.17 0.03 0.02 0.01 0.01 0.02 0.11 0.27 0.45 0.47 0.44 0.41 0.38
0.00 0.01 0.01 0.01 0.00 0.00 0.00 0.01 0.01 0.01 0.02 0.01 0.03 0.09 0.12 0.15 0.14 0.08 0.23 0.29 0.29 0.32 0.26 0.25 0.38 0.28 0.15 0.07 0.30 0.74 0.28 0.09 0.07 0.06 0.05 0.08 0.22 0.42 0.56 0.48 0.44 0.45 0.43
0.01 0.01 0.01 0.01 0.01 0.01 0.01 0.01 0.01 0.02 0.06 0.07 0.08 0.15 0.25 0.26 0.17 0.08 0.11 0.23 0.36 0.46 0.36 0.44 0.57 0.31 0.24 0.28 0.34 0.48 0.34 0.23 0.15 0.18 0.21 0.26 0.41 0.61 0.68 0.54 0.47 0.47 0.46
0.03 0.04 0.05 0.04 0.03 0.03 0.03 0.02 0.02 0.04 0.07 0.08 0.14 0.18 0.31 0.31 0.24 0.19 0.18 0.18 0.28 0.37 0.51 0.49 0.44 0.44 0.46 0.40 0.41 0.40 0.43 0.45 0.32 0.36 0.41 0.37 0.44 0.61 0.75 0.64 0.52 0.50 0.48
0.08 0.13 0.18 0.17 0.13 0.11 0.09 0.08 0.06 0.08 0.10 0.11 0.20 0.26 0.35 0.44 0.39 0.41 0.38 0.32 0.26 0.36 0.50 0.60 0.60 0.61 0.57 0.53 0.51 0.45 0.42 0.42 0.47 0.51 0.48 0.50 0.64 0.70 0.72 0.72 0.63 0.53 0.47
0.17 0.28 0.39 0.44 0.45 0.38 0.31 0.27 0.24 0.23 0.25 0.28 0.38 0.47 0.58 0.66 0.72 0.77 0.67 0.56 0.44 0.47 0.52 0.65 0.65 0.71 0.60 0.60 0.42 0.40 0.41 0.38 0.43 0.47 0.47 0.65 0.76 0.64 0.57 0.58 0.60 0.54 0.46
0.38 0.49 0.59 0.74 0.88 0.84 0.74 0.65 0.57 0.54 0.56 0.65 0.77 0.81 0.94 1.06 1.11 1.07 0.86 0.62 0.58 0.73 0.79 0.68 0.61 0.73 0.50 0.45 0.40 0.49 0.51 0.42 0.36 0.36 0.37 0.46 0.57 0.52 0.43 0.40 0.46 0.48 0.50
0.74 0.83 0.97 1.12 1.19 1.25 1.19 1.09 1.00 0.96 0.99 0.99 0.97 0.91 0.93 1.06 1.07 1.05 0.75 0.46 0.55 0.79 0.86 0.78 0.73 0.73 0.61 0.62 0.62 0.66 0.65 0.52 0.36 0.31 0.25 0.26 0.31 0.27 0.33 0.43 0.41 0.39 0.50
1.27 1.53 1.74 1.86 1.76 1.81 1.80 1.69 1.57 1.43 1.25 1.08 1.00 0.85 0.77 0.74 0.72 0.73 0.46 0.35 0.51 0.66 0.69 0.68 0.71 0.77 0.67 0.69 0.76 0.70 0.55 0.42 0.31 0.25 0.21 0.18 0.20 0.20 0.19 0.30 0.29 0.34 0.51
1.69 2.15 2.48 2.51 2.31 2.08 1.86 1.59 1.50 1.39 1.27 1.11 0.94 0.74 0.63 0.54 0.49 0.54 0.41 0.32 0.47 0.56 0.52 0.68 0.75 0.82 0.69 0.64 0.66 0.45 0.33 0.22 0.20 0.14 0.12 0.11 0.11 0.11 0.12 0.17 0.28 0.29 0.47
1.95 2.42 2.61 2.56 2.12 1.67 1.49 1.30 1.18 1.03 0.93 0.89 0.81 0.70 0.60 0.49 0.47 0.53 0.44 0.38 0.41 0.44 0.41 0.56 0.67 0.68 0.51 0.71 0.79 0.37 0.17 0.10 0.10 0.08 0.07 0.07 0.07 0.10 0.15 0.19 0.24 0.30 0.48
1.87 2.35 2.41 1.96 1.50 1.22 1.08 0.96 0.83 0.79 0.73 0.66 0.57 0.48 0.43 0.41 0.41 0.43 0.37 0.30 0.31 0.35 0.35 0.39 0.48 0.52 0.44 0.70 0.79 0.64 0.33 0.16 0.10 0.06 0.09 0.10 0.12 0.14 0.19 0.23 0.33 0.44 0.55
1.68 1.73 1.44 1.15 0.89 0.70 0.60 0.55 0.56 0.53 0.50 0.42 0.35 0.31 0.32 0.35 0.33 0.30 0.26 0.25 0.28 0.29 0.31 0.36 0.47 0.58 0.49 0.54 0.74 0.84 0.58 0.29 0.24 0.17 0.19 0.24 0.26 0.31 0.34 0.42 0.52 0.59 0.67
1.15 1.00 0.81 0.70 0.58 0.53 0.52 0.45 0.51 0.45 0.39 0.34 0.28 0.27 0.29 0.30 0.27 0.24 0.24 0.31 0.34 0.37 0.41 0.40 0.44 0.52 0.54 0.47 0.54 0.68 0.71 0.67 0.55 0.30 0.21 0.23 0.30 0.34 0.38 0.44 0.49 0.60 0.64
0.61 0.56 0.46 0.53 0.59 0.54 0.50 0.44 0.40 0.34 0.29 0.26 0.28 0.30 0.33 0.33 0.30 0.27 0.23 0.25 0.31 0.37 0.39 0.39 0.39 0.45 0.50 0.49 0.47 0.51 0.61 0.71 0.68 0.52 0.29 0.21 0.28 0.31 0.39 0.46 0.52 0.57 0.61
0.26 0.25 0.25 0.32 0.39 0.39 0.39 0.38 0.35 0.32 0.30 0.27 0.27 0.28 0.29 0.31 0.32 0.30 0.27 0.27 0.27 0.27 0.28 0.31 0.33 0.35 0.38 0.41 0.44 0.47 0.51 0.54 0.58 0.66 0.52 0.40 0.36 0.37 0.47 0.56 0.65 0.71 0.72

GEFSSE_prec_meanprecacc_048.txt.gz
Total_Precipitation_Accumulation
0.00 0.00 0.01 0.00 0.00 0.00 0.00 0.00 0.00 0.00 0.00 0.00 0.00 0.00 0.00 0.00 0.00 0.00 0.00 0.00 0.00 0.01 0.01 0.01 0.01 0.01 0.01 0.01 0.01 0.00 0.00 0.00 0.00 0.00 0.01 0.03 0.06 0.08 0.07 0.04 0.13 0.16 0.05
0.00 0.00 0.00 0.00 0.00 0.00 0.00 0.00 0.00 0.00 0.00 0.00 0.01 0.01 0.00 0.00 0.00 0.00 0.00 0.00 0.00 0.00 0.00 0.00 0.00 0.00 0.00 0.00 0.00 0.00 0.00 0.00 0.00 0.01 0.01 0.02 0.06 0.09 0.05 0.02 0.11 0.10 0.02
0.00 0.00 0.00 0.00 0.00 0.00 0.00 0.00 0.00 0.00 0.00 0.00 0.01 0.00 0.00 0.00 0.00 0.00 0.00 0.00 0.00 0.00 0.00 0.00 0.00 0.00 0.00 0.00 0.00 0.00 0.00 0.00 0.01 0.01 0.02 0.04 0.02 0.05 0.04 0.01 0.01 0.01 0.01
0.00 0.00 0.00 0.00 0.00 0.01 0.00 0.00 0.00 0.00 0.00 0.00 0.00 0.00 0.00 0.00 0.00 0.00 0.00 0.00 0.00 0.00 0.00 0.00 0.00 0.00 0.00 0.00 0.00 0.00 0.00 0.00 0.00 0.01 0.04 0.11 0.02 0.01 0.02 0.01 0.01 0.01 0.01
0.00 0.00 0.00 0.00 0.00 0.01 0.00 0.00 0.00 0.00 0.01 0.00 0.00 0.00 0.00 0.01 0.01 0.01 0.00 0.00 0.00 0.00 0.00 0.00 0.00 0.00 0.00 0.00 0.00 0.00 0.00 0.00 0.00 0.00 0.01 0.05 0.06 0.04 0.01 0.01 0.01 0.01 0.01
0.00 0.00 0.00 0.00 0.00 0.01 0.00 0.00 0.00 0.00 0.01 0.01 0.00 0.00 0.01 0.01 0.01 0.01 0.01 0.01 0.00 0.00 0.00 0.00 0.00 0.00 0.00 0.00 0.00 0.00 0.01 0.01 0.00 0.01 0.01 0.03 0.12 0.12 0.06 0.08 0.06 0.04 0.03
0.00 0.00 0.00 0.00 0.01 0.01 0.01 0.00 0.00 0.01 0.01 0.01 0.01 0.00 0.01 0.01 0.02 0.01 0.01 0.00 0.00 0.00 0.00 0.00 0.00 0.00 0.00 0.00 0.00 0.00 0.00 0.01 0.01 0.02 0.06 0.10 0.15 0.15 0.17 0.32 0.33 0.22 0.12
0.00 0.00 0.00 0.01 0.01 0.01 0.01 0.01 0.01 0.01 0.01 0.00 0.00 0.01 0.01 0.01 0.01 0.01 0.00 0.00 0.02 0.02 0.01 0.00 0.00 0.00 0.00 0.00 0.00 0.01 0.01 0.01 0.00 0.01 0.02 0.08 0.16 0.18 0.34 0.57 0.57 0.44 0.33
0.00 0.00 0.00 0.01 0.01 0.01 0.01 0.01 0.01 0.01 0.01 0.01 0.00 0.01 0.00 0.00 0.00 0.01 0.00 0.00 0.01 0.02 0.03 0.02 0.01 0.01 0.01 0.01 0.02 0.02 0.03 0.03 0.01 0.02 0.02 0.03 0.07 0.10 0.34 0.56 0.53 0.45 0.39
0.00 0.00 0.01 0.01 0.01 0.01 0.01 0.01 0.01 0.01 0.01 0.01 0.01 0.01 0.01 0.00 0.01 0.02 0.02 0.02 0.02 0.02 0.03 0.04 0.04 0.04 0.05 0.07 0.08 0.07 0.07 0.05 0.02 0.01 0.02 0.03 0.07 0.17 0.41 0.57 0.53 0.48 0.43
0.01 0.01 0.01 0.01 0.02 0.01 0.01 0.01 0.02 0.02 0.01 0.01 0.01 0.01 0.01 0.01 0.06 0.11 0.16 0.20 0.16 0.14 0.11 0.09 0.10 0.12 0.12 0.08 0.12 0.24 0.18 0.04 0.02 0.01 0.01 0.03 0.11 0.28 0.50 0.58 0.60 0.57 0.52
0.01 0.01 0.02 0.02 0.02 0.02 0.02 0.02 0.02 0.02 0.02 0.02 0.04 0.10 0.12 0.15 0.14 0.08 0.23 0.29 0.29 0.33 0.28 0.27 0.42 0.32 0.18 0.10 0.35 0.77 0.30 0.10 0.08 0.07 0.06 0.09 0.23 0.43 0.59 0.55 0.55 0.58 0.57
0.01 0.02 0.02 0.03 0.03 0.04 0.04 0.03 0.03 0.03 0.08 0.08 0.09 0.16 0.27 0.27 0.17 0.08 0.11 0.23 0.37 0.47 0.39 0.49 0.66 0.39 0.33 0.40 0.48 0.59 0.40 0.27 0.18 0.19 0.23 0.29 0.45 0.65 0.74 0.60 0.54 0.56 0.58
0.04 0.05 0.06 0.05 0.04 0.05 0.05 0.04 0.04 0.06 0.09 0.10 0.16 0.21 0.34 0.34 0.26 0.20 0.19 0.20 0.31 0.39 0.56 0.59 0.60 0.60 0.62 0.57 0.58 0.53 0.51 0.51 0.35 0.39 0.45 0.42 0.50 0.66 0.83 0.72 0.60 0.60 0.59
0.09 0.14 0.18 0.18 0.14 0.13 0.12 0.10 0.08 0.10 0.12 0.14 0.23 0.29 0.40 0.48 0.42 0.44 0.42 0.37 0.31 0.42 0.59 0.73 0.76 0.78 0.76 0.74 0.68 0.58 0.54 0.53 0.54 0.57 0.54 0.55 0.69 0.75 0.80 0.82 0.73 0.63 0.57
0.19 0.32 0.43 0.47 0.48 0.43 0.34 0.29 0.26 0.25 0.27 0.30 0.41 0.53 0.66 0.74 0.79 0.85 0.75 0.66 0.52 0.57 0.66 0.85 0.87 0.93 0.83 0.82 0.55 0.51 0.52 0.52 0.56 0.56 0.52 0.70 0.81 0.68 0.62 0.66 0.69 0.64 0.58
0.42 0.54 0.65 0.81 0.95 0.89 0.78 0.68 0.60 0.57 0.58 0.67 0.80 0.89 1.06 1.19 1.24 1.21 1.01 0.76 0.71 0.89 0.98 0.89 0.83 0.95 0.68 0.60 0.53 0.62 0.65 0.54 0.45 0.44 0.43 0.52 0.62 0.54 0.46 0.44 0.52 0.55 0.59
0.78 0.88 1.04 1.20 1.25 1.30 1.24 1.15 1.06 0.99 1.02 1.03 1.03 1.02 1.09 1.24 1.27 1.26 0.94 0.63 0.73 0.99 1.04 0.97 0.91 0.91 0.79 0.77 0.77 0.80 0.77 0.63 0.43 0.36 0.28 0.29 0.33 0.29 0.35 0.46 0.46 0.43 0.55
1.30 1.58 1.82 1.94 1.84 1.87 1.87 1.76 1.62 1.47 1.30 1.16 1.12 1.03 0.97 0.96 0.98 1.01 0.71 0.58 0.73 0.85 0.86 0.81 0.84 0.90 0.80 0.83 0.88 0.80 0.63 0.49 0.36 0.27 0.23 0.19 0.20 0.21 0.19 0.32 0.32 0.36 0.54
1.74 2.22 2.55 2.57 2.37 2.12 1.89 1.63 1.55 1.46 1.37 1.28 1.17 1.05 0.96 0.87 0.86 0.93 0.77 0.63 0.73 0.76 0.68 0.82 0.87 0.91 0.76 0.71 0.70 0.48 0.35 0.24 0.21 0.15 0.12 0.12 0.11 0.11 0.12 0.17 0.29 0.30 0.48
2.00 2.47 2.67 2.61 2.17 1.72 1.52 1.33 1.24 1.13 1.09 1.12 1.13 1.08 1.03 0.94 0.90 0.97 0.83 0.69 0.66 0.64 0.58 0.69 0.77 0.74 0.56 0.74 0.82 0.39 0.17 0.10 0.10 0.08 0.07 0.07 0.07 0.10 0.15 0.19 0.24 0.30 0.49
1.90 2.39 2.43 1.98 1.53 1.25 1.11 0.99 0.88 0.86 0.85 0.82 0.79 0.77 0.75 0.76 0.78 0.81 0.74 0.62 0.53 0.52 0.49 0.51 0.58 0.58 0.47 0.73 0.80 0.64 0.33 0.16 0.10 0.06 0.09 0.10 0.12 0.14 0.19 0.24 0.33 0.45 0.56
1.69 1.74 1.45 1.16 0.90 0.71 0.61 0.57 0.59 0.57 0.56 0.50 0.45 0.44 0.50 0.55 0.56 0.54 0.51 0.51 0.49 0.45 0.43 0.45 0.56 0.65 0.53 0.56 0.75 0.84 0.58 0.29 0.24 0.17 0.19 0.24 0.26 0.31 0.34 0.42 0.52 0.60 0.67
1.15 1.00 0.82 0.70 0.59 0.53 0.52 0.46 0.52 0.47 0.42 0.38 0.33 0.33 0.37 0.41 0.41 0.39 0.40 0.47 0.49 0.49 0.50 0.47 0.49 0.57 0.59 0.50 0.56 0.68 0.71 0.67 0.55 0.30 0.21 0.23 0.30 0.34 0.38 0.44 0.49 0.60 0.64
0.61 0.56 0.46 0.53 0.59 0.54 0.50 0.44 0.40 0.34 0.30 0.28 0.30 0.34 0.39 0.41 0.40 0.38 0.36 0.37 0.44 0.47 0.48 0.46 0.45 0.49 0.54 0.51 0.48 0.52 0.61 0.72 0.68 0.52 0.29 0.21 0.28 0.31 0.39 0.46 0.52 0.58 0.62
0.26 0.25 0.25 0.32 0.40 0.39 0.39 0.38 0.35 0.32 0.31 0.28 0.28 0.29 0.32 0.35 0.38 0.38 0.37 0.38 0.39 0.39 0.39 0.40 0.40 0.41 0.44 0.46 0.47 0.49 0.52 0.54 0.58 0.66 0.52 0.40 0.36 0.37 0.47 0.56 0.65 0.72 0.72

GEFSSE_prec_meanprecacc_054.txt.gz
Total_Precipitation_Accumulation
0.00 0.00 0.01 0.00 0.00 0.00 0.00 0.00 0.00 0.00 0.00 0.00 0.00 0.00 0.00 0.00 0.00 0.00 0.00 0.00 0.00 0.01 0.01 0.01 0.01 0.01 0.01 0.01 0.01 0.00 0.00 0.00 0.00 0.01 0.01 0.03 0.06 0.08 0.07 0.06 0.20 0.20 0.06
0.00 0.00 0.00 0.00 0.00 0.00 0.00 0.00 0.00 0.00 0.00 0.00 0.01 0.01 0.00 0.00 0.00 0.00 0.00 0.00 0.00 0.00 0.01 0.01 0.00 0.00 0.00 0.00 0.00 0.00 0.00 0.00 0.00 0.01 0.01 0.02 0.06 0.09 0.06 0.05 0.21 0.14 0.03
0.00 0.00 0.00 0.00 0.00 0.00 0.00 0.00 0.01 0.01 0.01 0.01 0.01 0.01 0.01 0.00 0.00 0.00 0.00 0.00 0.00 0.01 0.01 0.01 0.01 0.00 0.00 0.00 0.00 0.00 0.00 0.00 0.01 0.01 0.07 0.08 0.03 0.05 0.05 0.05 0.06 0.03 0.02
0.00 0.00 0.00 0.00 0.00 0.01 0.00 0.00 0.01 0.01 0.01 0.01 0.01 0.01 0.01 0.01 0.00 0.00 0.00 0.00 0.01 0.01 0.01 0.00 0.00 0.00 0.00 0.00 0.00 0.00 0.00 0.00 0.01 0.02 0.16 0.17 0.03 0.01 0.02 0.02 0.02 0.02 0.02
0.00 0.00 0.00 0.00 0.00 0.01 0.01 0.01 0.01 0.01 0.01 0.01 0.01 0.01 0.01 0.01 0.01 0.01 0.01 0.01 0.01 0.01 0.00 0.00 0.00 0.00 0.00 0.00 0.00 0.00 0.00 0.00 0.00 0.02 0.07 0.09 0.09 0.05 0.02 0.02 0.02 0.02 0.02
0.00 0.00 0.00 0.00 0.00 0.01 0.01 0.00 0.00 0.01 0.01 0.01 0.01 0.01 0.02 0.02 0.02 0.01 0.01 0.01 0.01 0.01 0.00 0.00 0.00 0.00 0.00 0.00 0.00 0.00 0.01 0.01 0.01 0.02 0.04 0.06 0.16 0.14 0.06 0.09 0.07 0.06 0.04
0.00 0.00 0.00 0.00 0.01 0.01 0.01 0.00 0.01 0.01 0.01 0.01 0.01 0.01 0.01 0.02 0.02 0.02 0.01 0.01 0.01 0.01 0.01 0.01 0.00 0.00 0.00 0.00 0.00 0.00 0.00 0.01 0.01 0.04 0.08 0.15 0.22 0.16 0.17 0.32 0.33 0.23 0.14
0.00 0.00 0.00 0.01 0.01 0.01 0.01 0.01 0.01 0.01 0.01 0.01 0.01 0.01 0.01 0.01 0.01 0.01 0.01 0.01 0.02 0.02 0.01 0.00 0.00 0.00 0.00 0.00 0.00 0.01 0.01 0.01 0.00 0.01 0.03 0.11 0.18 0.19 0.34 0.58 0.58 0.45 0.33
0.00 0.00 0.00 0.01 0.01 0.01 0.01 0.01 0.01 0.01 0.01 0.01 0.01 0.01 0.01 0.01 0.01 0.01 0.01 0.01 0.01 0.03 0.03 0.02 0.01 0.01 0.01 0.01 0.02 0.02 0.03 0.03 0.01 0.02 0.03 0.04 0.07 0.10 0.34 0.57 0.54 0.47 0.41
0.00 0.00 0.01 0.01 0.01 0.01 0.01 0.01 0.01 0.01 0.01 0.01 0.01 0.01 0.01 0.01 0.01 0.02 0.02 0.02 0.02 0.03 0.04 0.04 0.04 0.04 0.06 0.07 0.08 0.07 0.07 0.05 0.02 0.01 0.02 0.03 0.07 0.17 0.42 0.58 0.56 0.52 0.46
0.01 0.01 0.01 0.01 0.02 0.02 0.01 0.01 0.02 0.02 0.02 0.01 0.02 0.01 0.01 0.01 0.06 0.11 0.16 0.20 0.16 0.14 0.11 0.09 0.11 0.12 0.13 0.08 0.13 0.24 0.18 0.04 0.02 0.01 0.01 0.03 0.12 0.28 0.50 0.59 0.63 0.62 0.57
0.01 0.01 0.02 0.02 0.02 0.02 0.02 0.02 0.02 0.02 0.03 0.02 0.04 0.10 0.12 0.15 0.15 0.08 0.23 0.30 0.30 0.34 0.28 0.27 0.43 0.33 0.18 0.11 0.40 0.83 0.31 0.10 0.08 0.07 0.06 0.10 0.24 0.44 0.59 0.55 0.56 0.60 0.60
0.01 0.02 0.02 0.03 0.04 0.04 0.04 0.03 0.03 0.04 0.11 0.11 0.11 0.19 0.31 0.30 0.19 0.09 0.12 0.26 0.39 0.50 0.41 0.51 0.68 0.41 0.35 0.44 0.60 0.71 0.42 0.28 0.19 0.21 0.26 0.33 0.49 0.68 0.75 0.61 0.55 0.58 0.60
0.04 0.05 0.06 0.05 0.05 0.06 0.07 0.07 0.05 0.07 0.13 0.16 0.24 0.30 0.43 0.44 0.31 0.23 0.21 0.23 0.37 0.50 0.68 0.67 0.68 0.66 0.70 0.68 0.69 0.64 0.57 0.55 0.36 0.41 0.54 0.54 0.58 0.73 0.87 0.74 0.61 0.61 0.61
0.10 0.15 0.19 0.19 0.18 0.20 0.22 0.20 0.14 0.15 0.17 0.19 0.31 0.40 0.53 0.64 0.55 0.55 0.53 0.46 0.37 0.51 0.76 0.90 0.89 0.93 0.92 0.91 0.82 0.73 0.65 0.62 0.59 0.61 0.68 0.79 0.85 0.83 0.85 0.85 0.75 0.66 0.60
0.21 0.34 0.45 0.50 0.54 0.53 0.46 0.42 0.36 0.31 0.32 0.33 0.46 0.60 0.78 0.89 0.99 1.08 0.97 0.89 0.69 0.69 0.80 1.04 1.08 1.20 1.07 1.03 0.69 0.66 0.67 0.69 0.74 0.70 0.69 1.01 1.08 0.80 0.68 0.69 0.72 0.68 0.62
0.45 0.58 0.69 0.86 1.01 0.98 0.88 0.77 0.67 0.61 0.62 0.71 0.85 0.95 1.16 1.35 1.48 1.50 1.31 1.07 0.97 1.11 1.19 1.08 1.05 1.25 0.96 0.85 0.73 0.84 0.88 0.78 0.70 0.67 0.65 0.82 0.90 0.75 0.58 0.50 0.56 0.58 0.63
0.82 0.93 1.09 1.25 1.30 1.37 1.32 1.24 1.14 1.06 1.09 1.10 1.09 1.09 1.22 1.44 1.49 1.50 1.18 0.88 1.02 1.27 1.35 1.25 1.16 1.18 1.08 1.08 1.06 1.03 1.03 0.88 0.64 0.55 0.43 0.42 0.46 0.41 0.51 0.57 0.51 0.46 0.59
1.33 1.62 1.87 1.99 1.90 1.93 1.94 1.85 1.71 1.57 1.40 1.26 1.22 1.15 1.09 1.09 1.16 1.25 0.96 0.83 1.02 1.17 1.18 1.12 1.18 1.25 1.12 1.15 1.18 1.04 0.80 0.67 0.51 0.38 0.31 0.25 0.26 0.27 0.27 0.38 0.36 0.40 0.57
1.77 2.24 2.58 2.60 2.41 2.15 1.94 1.70 1.64 1.55 1.46 1.37 1.29 1.17 1.05 0.98 1.00 1.17 1.05 0.94 1.07 1.13 1.04 1.15 1.22 1.25 1.06 1.02 0.96 0.68 0.51 0.34 0.29 0.21 0.16 0.15 0.15 0.15 0.19 0.23 0.35 0.33 0.49
2.02 2.49 2.69 2.63 2.20 1.74 1.56 1.37 1.28 1.18 1.14 1.18 1.19 1.15 1.10 1.00 0.99 1.12 1.03 0.93 0.93 0.94 0.89 1.02 1.10 1.08 0.87 1.03 1.12 0.62 0.35 0.24 0.19 0.12 0.10 0.09 0.09 0.11 0.18 0.23 0.28 0.33 0.50
1.91 2.39 2.44 1.99 1.54 1.26 1.11 1.00 0.89 0.87 0.87 0.85 0.82 0.80 0.78 0.79 0.84 0.91 0.88 0.80 0.75 0.77 0.76 0.83 0.93 0.93 0.79 1.01 1.10 0.91 0.56 0.35 0.23 0.12 0.12 0.12 0.13 0.16 0.20 0.24 0.34 0.46 0.58
1.70 1.74 1.45 1.16 0.90 0.71 0.61 0.57 0.60 0.57 0.56 0.51 0.46 0.46 0.52 0.57 0.58 0.57 0.59 0.63 0.67 0.67 0.68 0.73 0.88 0.97 0.82 0.83 1.01 1.06 0.76 0.43 0.34 0.24 0.24 0.27 0.27 0.32 0.34 0.42 0.53 0.60 0.68
1.15 1.00 0.82 0.70 0.59 0.53 0.53 0.47 0.53 0.47 0.42 0.38 0.33 0.34 0.38 0.41 0.41 0.40 0.43 0.53 0.60 0.65 0.69 0.64 0.68 0.81 0.85 0.76 0.82 0.88 0.84 0.79 0.67 0.40 0.27 0.25 0.30 0.34 0.38 0.44 0.50 0.60 0.65
0.61 0.56 0.46 0.53 0.60 0.55 0.52 0.46 0.42 0.36 0.31 0.28 0.31 0.34 0.39 0.41 0.41 0.38 0.37 0.39 0.49 0.57 0.63 0.64 0.66 0.70 0.75 0.73 0.72 0.74 0.77 0.82 0.76 0.60 0.37 0.26 0.30 0.31 0.39 0.46 0.53 0.59 0.63
0.26 0.25 0.25 0.32 0.41 0.41 0.41 0.40 0.37 0.34 0.32 0.29 0.28 0.30 0.32 0.36 0.38 0.38 0.38 0.39 0.41 0.43 0.46 0.53 0.58 0.62 0.66 0.67 0.66 0.71 0.75 0.70 0.66 0.71 0.57 0.44 0.39 0.38 0.47 0.56 0.66 0.73 0.74

GEFSSE_prec_meanprecacc_060.txt.gz
Total_Precipitation_Accumulation
0.00 0.00 0.01 0.00 0.00 0.00 0.00 0.00 0.00 0.00 0.00 0.00 0.00 0.00 0.00 0.00 0.00 0.00 0.00 0.00 0.01 0.01 0.01 0.01 0.01 0.01 0.01 0.01 0.01 0.00 0.00 0.00 0.01 0.02 0.03 0.03 0.06 0.09 0.09 0.08 0.22 0.22 0.08
0.00 0.00 0.00 0.00 0.00 0.00 0.00 0.00 0.00 0.00 0.00 0.00 0.01 0.01 0.00 0.00 0.00 0.00 0.00 0.00 0.00 0.00 0.01 0.01 0.01 0.00 0.00 0.00 0.00 0.00 0.00 0.01 0.01 0.02 0.03 0.03 0.06 0.10 0.08 0.07 0.22 0.15 0.05
0.00 0.00 0.00 0.00 0.00 0.00 0.00 0.00 0.01 0.01 0.01 0.01 0.01 0.01 0.01 0.00 0.00 0.00 0.00 0.00 0.01 0.01 0.01 0.01 0.01 0.00 0.00 0.00 0.00 0.00 0.00 0.01 0.02 0.03 0.08 0.09 0.03 0.06 0.07 0.06 0.07 0.04 0.03
0.00 0.00 0.00 0.00 0.00 0.01 0.00 0.00 0.01 0.01 0.01 0.01 0.01 0.01 0.01 0.01 0.01 0.00 0.00 0.01 0.01 0.01 0.01 0.01 0.00 0.00 0.00 0.00 0.00 0.00 0.00 0.01 0.01 0.03 0.17 0.18 0.03 0.02 0.03 0.03 0.03 0.02 0.03
0.00 0.00 0.00 0.00 0.00 0.01 0.01 0.01 0.01 0.01 0.01 0.02 0.01 0.01 0.01 0.01 0.01 0.01 0.01 0.01 0.01 0.01 0.01 0.00 0.00 0.00 0.00 0.00 0.00 0.00 0.00 0.00 0.01 0.03 0.11 0.10 0.10 0.05 0.02 0.02 0.02 0.02 0.02
0.00 0.00 0.00 0.00 0.00 0.01 0.01 0.00 0.01 0.01 0.01 0.02 0.02 0.02 0.02 0.02 0.02 0.01 0.01 0.01 0.01 0.01 0.01 0.00 0.00 0.00 0.00 0.00 0.00 0.00 0.01 0.01 0.01 0.03 0.07 0.09 0.18 0.14 0.06 0.09 0.07 0.06 0.04
0.00 0.00 0.00 0.00 0.01 0.01 0.01 0.01 0.01 0.01 0.01 0.02 0.01 0.01 0.02 0.02 0.03 0.02 0.01 0.01 0.01 0.01 0.01 0.01 0.00 0.00 0.00 0.00 0.00 0.00 0.00 0.01 0.02 0.05 0.11 0.18 0.24 0.18 0.18 0.33 0.33 0.23 0.14
0.00 0.00 0.00 0.01 0.01 0.01 0.01 0.01 0.01 0.01 0.01 0.01 0.01 0.01 0.02 0.02 0.02 0.01 0.01 0.01 0.02 0.02 0.01 0.01 0.00 0.00 0.00 0.00 0.00 0.01 0.01 0.01 0.01 0.02 0.06 0.14 0.20 0.22 0.35 0.58 0.58 0.45 0.33
0.00 0.00 0.00 0.01 0.01 0.01 0.01 0.01 0.01 0.01 0.01 0.01 0.01 0.01 0.01 0.01 0.01 0.01 0.01 0.01 0.02 0.03 0.03 0.03 0.01 0.01 0.01 0.01 0.02 0.02 0.03 0.03 0.02 0.03 0.05 0.07 0.11 0.15 0.37 0.58 0.54 0.47 0.41
0.00 0.00 0.01 0.01 0.01 0.01 0.01 0.01 0.01 0.01 0.01 0.01 0.01 0.01 0.01 0.01 0.01 0.02 0.02 0.03 0.03 0.03 0.04 0.05 0.04 0.04 0.06 0.07 0.08 0.07 0.07 0.05 0.02 0.02 0.04 0.05 0.12 0.23 0.46 0.60 0.56 0.52 0.46
0.01 0.01 0.01 0.01 0.02 0.02 0.01 0.01 0.02 0.02 0.02 0.01 0.02 0.02 0.01 0.01 0.06 0.11 0.16 0.21 0.17 0.16 0.13 0.11 0.12 0.13 0.13 0.08 0.13 0.25 0.18 0.04 0.02 0.02 0.02 0.04 0.16 0.35 0.58 0.63 0.64 0.62 0.57
0.02 0.02 0.02 0.02 0.03 0.02 0.02 0.02 0.02 0.02 0.03 0.02 0.04 0.10 0.12 0.15 0.15 0.08 0.24 0.34 0.35 0.40 0.35 0.33 0.48 0.37 0.21 0.13 0.41 0.84 0.31 0.11 0.08 0.08 0.07 0.12 0.29 0.53 0.70 0.63 0.60 0.62 0.61
0.04 0.04 0.05 0.05 0.05 0.05 0.05 0.04 0.04 0.05 0.13 0.12 0.12 0.21 0.33 0.32 0.20 0.11 0.15 0.34 0.51 0.66 0.56 0.65 0.80 0.49 0.41 0.49 0.63 0.74 0.45 0.30 0.21 0.24 0.29 0.40 0.63 0.84 0.91 0.72 0.62 0.62 0.63
0.09 0.09 0.11 0.09 0.09 0.11 0.13 0.12 0.11 0.13 0.20 0.22 0.31 0.37 0.52 0.53 0.39 0.31 0.31 0.37 0.58 0.76 1.01 1.02 0.94 0.86 0.85 0.79 0.78 0.70 0.62 0.60 0.42 0.49 0.62 0.66 0.80 0.96 1.09 0.93 0.74 0.68 0.65
0.18 0.22 0.29 0.29 0.27 0.28 0.32 0.31 0.23 0.24 0.25 0.28 0.41 0.51 0.69 0.84 0.74 0.71 0.70 0.69 0.65 0.84 1.12 1.27 1.21 1.24 1.21 1.14 1.02 0.89 0.77 0.74 0.72 0.77 0.83 1.00 1.13 1.11 1.10 1.08 0.95 0.78 0.67
0.33 0.46 0.58 0.64 0.66 0.65 0.61 0.58 0.51 0.43 0.42 0.42 0.57 0.72 0.92 1.07 1.18 1.27 1.20 1.14 0.90 0.92 1.03 1.30 1.42 1.61 1.49 1.38 0.94 0.85 0.86 0.90 0.95 0.93 0.96 1.34 1.46 1.16 1.03 0.97 0.93 0.85 0.74
0.62 0.76 0.87 1.05 1.17 1.15 1.05 0.93 0.78 0.73 0.73 0.82 0.96 1.05 1.26 1.45 1.59 1.61 1.41 1.16 1.04 1.18 1.28 1.23 1.25 1.52 1.29 1.15 0.97 1.05 1.10 1.02 0.99 0.97 0.97 1.22 1.33 1.07 0.84 0.74 0.77 0.75 0.75
0.95 1.07 1.26 1.42 1.48 1.56 1.52 1.44 1.26 1.16 1.18 1.19 1.17 1.17 1.29 1.50 1.55 1.55 1.22 0.92 1.06 1.30 1.38 1.33 1.27 1.33 1.29 1.32 1.30 1.27 1.25 1.11 0.89 0.81 0.70 0.67 0.75 0.66 0.68 0.77 0.69 0.60 0.70
1.41 1.71 1.97 2.10 2.00 2.03 2.04 1.93 1.79 1.64 1.47 1.32 1.28 1.21 1.14 1.13 1.21 1.29 1.00 0.86 1.04 1.20 1.22 1.19 1.32 1.42 1.31 1.35 1.41 1.27 1.01 0.86 0.71 0.60 0.52 0.43 0.41 0.41 0.39 0.53 0.51 0.50 0.68
1.81 2.29 2.63 2.65 2.45 2.19 1.97 1.72 1.66 1.59 1.52 1.41 1.31 1.19 1.07 1.00 1.03 1.19 1.07 0.96 1.09 1.17 1.10 1.23 1.34 1.42 1.22 1.18 1.16 0.89 0.71 0.51 0.45 0.38 0.30 0.29 0.28 0.25 0.29 0.36 0.48 0.42 0.59
2.03 2.51 2.70 2.64 2.21 1.75 1.56 1.37 1.29 1.19 1.15 1.20 1.21 1.17 1.12 1.02 1.00 1.14 1.04 0.95 0.94 0.96 0.93 1.07 1.18 1.17 0.97 1.17 1.30 0.84 0.56 0.42 0.34 0.24 0.20 0.19 0.19 0.21 0.28 0.38 0.48 0.46 0.58
1.91 2.40 2.44 1.99 1.54 1.26 1.11 1.00 0.90 0.88 0.87 0.85 0.83 0.81 0.80 0.81 0.86 0.93 0.90 0.81 0.76 0.78 0.77 0.85 0.97 0.98 0.87 1.14 1.25 1.09 0.74 0.53 0.40 0.25 0.21 0.20 0.21 0.25 0.30 0.34 0.49 0.58 0.65
1.70 1.74 1.45 1.16 0.90 0.71 0.61 0.57 0.60 0.57 0.57 0.51 0.46 0.46 0.52 0.58 0.59 0.59 0.59 0.64 0.67 0.68 0.69 0.75 0.90 1.01 0.89 0.92 1.13 1.23 0.94 0.62 0.54 0.40 0.37 0.38 0.38 0.42 0.45 0.54 0.63 0.67 0.73
1.15 1.00 0.82 0.71 0.59 0.53 0.53 0.47 0.53 0.47 0.43 0.38 0.34 0.34 0.39 0.42 0.42 0.41 0.43 0.53 0.60 0.66 0.70 0.65 0.70 0.85 0.90 0.82 0.92 1.01 1.00 0.98 0.90 0.63 0.46 0.40 0.44 0.45 0.47 0.52 0.58 0.66 0.68
0.61 0.57 0.47 0.54 0.60 0.56 0.52 0.46 0.42 0.36 0.31 0.28 0.31 0.34 0.39 0.41 0.41 0.38 0.37 0.39 0.49 0.57 0.64 0.65 0.67 0.72 0.79 0.77 0.79 0.83 0.89 0.97 0.93 0.82 0.58 0.43 0.43 0.41 0.47 0.51 0.57 0.62 0.65
0.26 0.26 0.25 0.32 0.42 0.42 0.42 0.40 0.37 0.34 0.32 0.29 0.28 0.30 0.32 0.36 0.38 0.38 0.38 0.40 0.42 0.43 0.46 0.53 0.59 0.63 0.69 0.70 0.71 0.78 0.86 0.83 0.81 0.89 0.75 0.60 0.54 0.48 0.55 0.60 0.69 0.76 0.76

GEFSSE_prec_meanprecacc_066.txt.gz
Total_Precipitation_Accumulation
0.00 0.00 0.01 0.01 0.00 0.00 0.00 0.00 0.00 0.00 0.00 0.00 0.00 0.00 0.00 0.00 0.01 0.01 0.01 0.01 0.01 0.01 0.01 0.01 0.01 0.01 0.01 0.01 0.01 0.01 0.01 0.01 0.02 0.02 0.03 0.04 0.08 0.12 0.13 0.13 0.25 0.24 0.12
0.00 0.00 0.01 0.01 0.00 0.00 0.00 0.00 0.00 0.01 0.01 0.01 0.01 0.01 0.00 0.00 0.00 0.00 0.01 0.01 0.01 0.01 0.01 0.01 0.01 0.00 0.00 0.00 0.00 0.00 0.00 0.01 0.02 0.03 0.05 0.06 0.09 0.14 0.12 0.11 0.23 0.17 0.08
0.00 0.01 0.01 0.01 0.00 0.00 0.00 0.00 0.01 0.01 0.01 0.01 0.01 0.01 0.01 0.00 0.00 0.00 0.01 0.01 0.01 0.01 0.01 0.01 0.01 0.00 0.00 0.00 0.00 0.00 0.00 0.01 0.03 0.04 0.09 0.11 0.08 0.12 0.11 0.08 0.09 0.07 0.06
0.00 0.00 0.00 0.01 0.00 0.01 0.00 0.01 0.01 0.01 0.01 0.01 0.01 0.01 0.01 0.01 0.01 0.01 0.01 0.01 0.01 0.01 0.01 0.01 0.00 0.00 0.00 0.00 0.00 0.00 0.01 0.01 0.03 0.04 0.18 0.19 0.05 0.06 0.06 0.04 0.05 0.04 0.04
0.00 0.00 0.00 0.01 0.01 0.01 0.01 0.01 0.01 0.01 0.01 0.02 0.01 0.01 0.01 0.01 0.01 0.01 0.01 0.01 0.02 0.02 0.01 0.01 0.00 0.00 0.00 0.00 0.00 0.00 0.01 0.01 0.02 0.04 0.11 0.11 0.11 0.08 0.04 0.03 0.04 0.04 0.04
0.00 0.00 0.00 0.01 0.01 0.01 0.01 0.01 0.01 0.01 0.01 0.02 0.02 0.02 0.02 0.02 0.02 0.01 0.01 0.01 0.02 0.01 0.01 0.01 0.01 0.00 0.00 0.00 0.00 0.00 0.01 0.01 0.02 0.04 0.08 0.09 0.18 0.16 0.07 0.09 0.07 0.06 0.05
0.00 0.00 0.00 0.01 0.01 0.01 0.01 0.01 0.01 0.01 0.01 0.02 0.02 0.02 0.02 0.02 0.03 0.02 0.01 0.01 0.02 0.01 0.01 0.01 0.01 0.00 0.00 0.00 0.00 0.00 0.01 0.02 0.03 0.06 0.12 0.19 0.24 0.20 0.19 0.33 0.34 0.23 0.14
0.00 0.00 0.00 0.01 0.02 0.01 0.01 0.01 0.01 0.01 0.02 0.02 0.02 0.02 0.02 0.02 0.02 0.02 0.02 0.01 0.03 0.03 0.02 0.01 0.01 0.00 0.00 0.00 0.00 0.01 0.02 0.02 0.02 0.03 0.08 0.15 0.22 0.25 0.38 0.60 0.59 0.45 0.34
0.00 0.00 0.01 0.01 0.02 0.02 0.02 0.02 0.02 0.02 0.02 0.02 0.02 0.02 0.02 0.02 0.02 0.02 0.02 0.02 0.03 0.04 0.05 0.04 0.02 0.01 0.01 0.01 0.02 0.02 0.03 0.04 0.03 0.04 0.07 0.09 0.12 0.18 0.41 0.62 0.56 0.48 0.41
0.01 0.01 0.01 0.01 0.01 0.02 0.02 0.02 0.02 0.02 0.02 0.02 0.02 0.02 0.02 0.03 0.03 0.04 0.04 0.04 0.04 0.05 0.06 0.06 0.05 0.05 0.06 0.07 0.08 0.07 0.08 0.06 0.03 0.02 0.05 0.08 0.13 0.27 0.51 0.65 0.60 0.55 0.47
0.02 0.01 0.01 0.01 0.02 0.02 0.02 0.02 0.02 0.03 0.03 0.03 0.03 0.03 0.03 0.03 0.08 0.12 0.17 0.22 0.19 0.18 0.16 0.14 0.15 0.16 0.15 0.09 0.14 0.25 0.19 0.04 0.03 0.02 0.03 0.05 0.17 0.40 0.65 0.72 0.70 0.66 0.59
0.04 0.03 0.03 0.02 0.03 0.03 0.02 0.03 0.03 0.03 0.04 0.03 0.05 0.11 0.13 0.16 0.15 0.09 0.24 0.36 0.39 0.47 0.43 0.40 0.55 0.45 0.27 0.17 0.44 0.87 0.33 0.12 0.09 0.09 0.07 0.13 0.31 0.59 0.81 0.76 0.70 0.68 0.65
0.07 0.05 0.06 0.07 0.07 0.08 0.07 0.06 0.06 0.06 0.14 0.14 0.14 0.23 0.35 0.35 0.22 0.13 0.17 0.37 0.58 0.77 0.70 0.80 0.96 0.64 0.54 0.61 0.73 0.81 0.48 0.33 0.23 0.25 0.31 0.42 0.66 0.90 1.02 0.86 0.74 0.72 0.70
0.14 0.15 0.19 0.17 0.18 0.19 0.21 0.21 0.19 0.21 0.27 0.28 0.37 0.43 0.57 0.59 0.46 0.39 0.38 0.46 0.68 0.86 1.16 1.20 1.12 1.04 1.02 0.96 0.91 0.79 0.68 0.64 0.45 0.51 0.64 0.68 0.84 1.02 1.18 1.07 0.89 0.82 0.77
0.30 0.41 0.49 0.45 0.47 0.52 0.56 0.55 0.46 0.45 0.45 0.45 0.57 0.67 0.85 1.00 0.91 0.88 0.84 0.82 0.75 0.92 1.23 1.43 1.39 1.43 1.40 1.31 1.16 1.01 0.86 0.81 0.76 0.80 0.86 1.05 1.18 1.17 1.20 1.24 1.12 0.94 0.82
0.50 0.67 0.81 0.88 0.98 1.00 0.94 0.92 0.86 0.70 0.64 0.63 0.77 0.93 1.13 1.27 1.40 1.45 1.38 1.28 1.02 1.01 1.10 1.40 1.54 1.72 1.61 1.50 1.05 0.98 1.00 1.02 1.04 1.00 1.01 1.42 1.56 1.25 1.12 1.11 1.13 1.06 0.94
0.84 1.00 1.16 1.34 1.49 1.49 1.37 1.25 1.10 0.99 0.96 1.04 1.14 1.22 1.42 1.62 1.76 1.76 1.52 1.25 1.10 1.22 1.32 1.28 1.30 1.59 1.39 1.25 1.08 1.17 1.22 1.15 1.10 1.06 1.05 1.30 1.42 1.17 0.94 0.86 0.92 0.94 0.96
1.15 1.27 1.48 1.65 1.74 1.83 1.78 1.74 1.53 1.35 1.36 1.34 1.31 1.30 1.42 1.61 1.64 1.65 1.29 0.96 1.08 1.32 1.41 1.35 1.30 1.37 1.34 1.40 1.39 1.36 1.33 1.19 0.98 0.90 0.78 0.75 0.84 0.75 0.79 0.89 0.83 0.78 0.89
1.55 1.84 2.10 2.23 2.15 2.17 2.17 2.11 1.96 1.77 1.56 1.41 1.37 1.29 1.22 1.21 1.28 1.35 1.05 0.89 1.07 1.22 1.24 1.20 1.33 1.44 1.32 1.38 1.45 1.32 1.08 0.93 0.76 0.66 0.59 0.50 0.48 0.50 0.50 0.65 0.69 0.72 0.90
1.89 2.35 2.69 2.71 2.51 2.26 2.04 1.78 1.72 1.63 1.56 1.46 1.35 1.22 1.10 1.02 1.05 1.21 1.09 0.98 1.11 1.18 1.12 1.25 1.35 1.43 1.24 1.21 1.19 0.93 0.75 0.55 0.49 0.42 0.34 0.34 0.33 0.32 0.38 0.48 0.63 0.60 0.82
2.07 2.54 2.73 2.68 2.24 1.78 1.58 1.39 1.30 1.20 1.16 1.21 1.22 1.18 1.13 1.03 1.01 1.15 1.05 0.96 0.95 0.97 0.93 1.08 1.19 1.18 0.97 1.18 1.32 0.87 0.59 0.46 0.37 0.26 0.22 0.23 0.23 0.25 0.35 0.47 0.59 0.59 0.73
1.93 2.42 2.46 2.01 1.56 1.27 1.12 1.00 0.90 0.88 0.87 0.85 0.83 0.81 0.80 0.81 0.86 0.93 0.90 0.81 0.77 0.78 0.78 0.85 0.98 0.98 0.87 1.14 1.27 1.11 0.77 0.56 0.43 0.27 0.24 0.23 0.23 0.30 0.35 0.40 0.56 0.67 0.75
1.71 1.75 1.46 1.16 0.90 0.71 0.61 0.57 0.60 0.57 0.57 0.51 0.46 0.46 0.52 0.58 0.59 0.59 0.59 0.64 0.68 0.68 0.69 0.75 0.90 1.02 0.89 0.92 1.15 1.25 0.97 0.65 0.56 0.43 0.41 0.42 0.41 0.46 0.50 0.60 0.69 0.73 0.80
1.15 1.00 0.82 0.71 0.59 0.53 0.53 0.47 0.53 0.47 0.43 0.38 0.34 0.34 0.39 0.42 0.42 0.41 0.43 0.53 0.60 0.66 0.70 0.65 0.70 0.85 0.90 0.83 0.92 1.03 1.04 1.02 0.94 0.66 0.49 0.45 0.49 0.50 0.52 0.58 0.63 0.71 0.73
0.62 0.57 0.47 0.54 0.60 0.56 0.52 0.46 0.42 0.36 0.31 0.28 0.31 0.34 0.39 0.41 0.41 0.38 0.37 0.39 0.49 0.57 0.64 0.66 0.67 0.72 0.79 0.77 0.79 0.84 0.91 0.99 0.97 0.88 0.64 0.47 0.47 0.47 0.53 0.58 0.63 0.67 0.70
0.26 0.26 0.26 0.33 0.42 0.42 0.42 0.40 0.37 0.34 0.32 0.29 0.28 0.30 0.32 0.36 0.38 0.38 0.38 0.40 0.42 0.43 0.46 0.53 0.59 0.64 0.69 0.71 0.71 0.78 0.87 0.85 0.85 0.94 0.81 0.64 0.58 0.53 0.61 0.67 0.76 0.82 0.81

GEFSSE_prec_meanprecacc_072.txt.gz
Total_Precipitation_Accumulation
0.00 0.01 0.01 0.01 0.01 0.01 0.01 0.02 0.03 0.03 0.02 0.02 0.01 0.01 0.01 0.01 0.01 0.01 0.01 0.01 0.01 0.01 0.01 0.01 0.02 0.02 0.03 0.02 0.03 0.02 0.02 0.02 0.03 0.03 0.04 0.06 0.10 0.15 0.17 0.17 0.29 0.28 0.14
0.00 0.01 0.01 0.01 0.01 0.01 0.02 0.02 0.02 0.03 0.03 0.02 0.02 0.02 0.01 0.01 0.01 0.01 0.01 0.01 0.01 0.01 0.01 0.01 0.01 0.01 0.01 0.01 0.01 0.01 0.01 0.02 0.03 0.05 0.07 0.08 0.12 0.19 0.17 0.14 0.28 0.21 0.10
0.00 0.01 0.01 0.01 0.01 0.01 0.01 0.02 0.02 0.03 0.02 0.02 0.02 0.02 0.01 0.01 0.00 0.01 0.01 0.01 0.01 0.01 0.01 0.01 0.01 0.00 0.00 0.00 0.00 0.01 0.01 0.02 0.04 0.06 0.14 0.17 0.12 0.18 0.15 0.12 0.13 0.09 0.07
0.00 0.01 0.01 0.01 0.01 0.01 0.01 0.02 0.02 0.02 0.02 0.02 0.02 0.01 0.01 0.01 0.01 0.01 0.01 0.01 0.02 0.02 0.01 0.01 0.00 0.00 0.00 0.00 0.00 0.00 0.01 0.02 0.04 0.05 0.21 0.22 0.09 0.09 0.11 0.09 0.09 0.06 0.05
0.00 0.00 0.01 0.01 0.01 0.01 0.01 0.01 0.01 0.02 0.02 0.02 0.02 0.01 0.01 0.01 0.01 0.01 0.01 0.01 0.02 0.02 0.01 0.01 0.01 0.00 0.00 0.00 0.00 0.01 0.01 0.02 0.03 0.05 0.13 0.13 0.18 0.12 0.08 0.08 0.09 0.06 0.05
0.00 0.00 0.01 0.02 0.02 0.01 0.01 0.01 0.01 0.01 0.02 0.02 0.02 0.02 0.02 0.03 0.02 0.02 0.01 0.02 0.02 0.02 0.01 0.01 0.01 0.00 0.00 0.00 0.00 0.01 0.01 0.02 0.03 0.04 0.09 0.11 0.22 0.18 0.11 0.16 0.14 0.10 0.06
0.00 0.00 0.01 0.02 0.03 0.02 0.02 0.02 0.02 0.02 0.02 0.02 0.02 0.02 0.02 0.03 0.03 0.02 0.02 0.02 0.03 0.02 0.02 0.01 0.01 0.01 0.00 0.00 0.00 0.00 0.01 0.03 0.04 0.07 0.14 0.21 0.27 0.22 0.22 0.39 0.41 0.29 0.16
0.01 0.01 0.02 0.03 0.03 0.03 0.03 0.03 0.03 0.03 0.03 0.03 0.02 0.02 0.02 0.03 0.03 0.02 0.02 0.02 0.04 0.05 0.04 0.02 0.01 0.01 0.01 0.01 0.01 0.01 0.02 0.04 0.04 0.05 0.09 0.18 0.24 0.27 0.42 0.64 0.66 0.52 0.37
0.01 0.01 0.02 0.03 0.04 0.04 0.04 0.04 0.04 0.04 0.04 0.04 0.04 0.04 0.04 0.04 0.04 0.04 0.04 0.03 0.04 0.06 0.06 0.05 0.03 0.02 0.02 0.02 0.02 0.03 0.04 0.05 0.06 0.06 0.07 0.11 0.14 0.20 0.46 0.66 0.61 0.54 0.45
0.02 0.02 0.02 0.04 0.05 0.06 0.05 0.06 0.06 0.05 0.05 0.05 0.05 0.05 0.05 0.06 0.06 0.07 0.07 0.07 0.07 0.09 0.09 0.09 0.08 0.07 0.08 0.08 0.08 0.08 0.09 0.07 0.04 0.04 0.07 0.10 0.15 0.30 0.59 0.74 0.66 0.59 0.52
0.02 0.02 0.02 0.03 0.05 0.05 0.05 0.05 0.06 0.07 0.08 0.07 0.08 0.07 0.08 0.09 0.14 0.19 0.22 0.26 0.24 0.25 0.24 0.21 0.22 0.22 0.20 0.13 0.17 0.28 0.20 0.05 0.04 0.04 0.05 0.07 0.19 0.45 0.74 0.85 0.81 0.73 0.64
0.04 0.04 0.04 0.04 0.05 0.06 0.05 0.07 0.09 0.09 0.11 0.10 0.12 0.18 0.21 0.26 0.25 0.17 0.32 0.43 0.46 0.56 0.54 0.51 0.68 0.57 0.40 0.28 0.55 0.96 0.37 0.14 0.11 0.10 0.09 0.14 0.34 0.64 0.91 0.91 0.84 0.78 0.72
0.08 0.06 0.07 0.08 0.10 0.10 0.10 0.09 0.10 0.12 0.22 0.21 0.21 0.30 0.45 0.46 0.35 0.24 0.30 0.50 0.71 0.91 0.85 0.96 1.14 0.82 0.74 0.80 0.91 0.96 0.58 0.40 0.28 0.28 0.33 0.45 0.69 0.95 1.10 1.00 0.90 0.86 0.81
0.15 0.16 0.20 0.19 0.21 0.22 0.24 0.25 0.24 0.28 0.37 0.40 0.51 0.57 0.74 0.77 0.67 0.57 0.57 0.64 0.86 1.05 1.35 1.40 1.33 1.26 1.23 1.15 1.10 0.93 0.78 0.75 0.52 0.56 0.68 0.71 0.86 1.06 1.24 1.17 1.03 0.98 0.94
0.32 0.44 0.52 0.49 0.52 0.59 0.63 0.64 0.54 0.57 0.59 0.63 0.76 0.85 1.08 1.24 1.18 1.16 1.09 1.03 0.95 1.10 1.40 1.60 1.57 1.62 1.59 1.50 1.33 1.15 0.98 0.93 0.87 0.93 0.96 1.11 1.22 1.20 1.24 1.30 1.21 1.08 0.99
0.55 0.74 0.89 0.97 1.11 1.12 1.05 1.05 1.03 0.86 0.78 0.79 0.95 1.10 1.31 1.49 1.68 1.75 1.64 1.48 1.20 1.19 1.27 1.55 1.68 1.87 1.78 1.64 1.16 1.08 1.11 1.14 1.14 1.10 1.11 1.52 1.63 1.30 1.16 1.15 1.18 1.14 1.07
0.92 1.10 1.27 1.47 1.65 1.63 1.50 1.37 1.23 1.11 1.08 1.19 1.30 1.35 1.55 1.76 1.93 1.93 1.68 1.37 1.21 1.34 1.42 1.35 1.37 1.66 1.48 1.35 1.17 1.26 1.29 1.23 1.18 1.14 1.14 1.39 1.50 1.24 0.99 0.90 0.96 1.00 1.05
1.24 1.37 1.59 1.75 1.88 1.94 1.88 1.84 1.62 1.44 1.46 1.45 1.43 1.43 1.53 1.71 1.74 1.74 1.38 1.03 1.14 1.37 1.45 1.39 1.33 1.41 1.38 1.44 1.44 1.43 1.40 1.25 1.03 0.96 0.85 0.80 0.90 0.81 0.84 0.95 0.88 0.83 0.96
1.63 1.93 2.18 2.30 2.21 2.24 2.23 2.20 2.04 1.84 1.63 1.46 1.45 1.41 1.32 1.27 1.32 1.40 1.10 0.94 1.11 1.26 1.28 1.25 1.37 1.46 1.34 1.41 1.47 1.35 1.11 0.96 0.80 0.69 0.63 0.55 0.53 0.53 0.54 0.70 0.75 0.79 0.97
1.94 2.41 2.74 2.76 2.56 2.29 2.06 1.80 1.75 1.67 1.59 1.48 1.40 1.28 1.15 1.06 1.08 1.24 1.12 1.00 1.13 1.21 1.14 1.28 1.38 1.46 1.26 1.23 1.21 0.96 0.77 0.57 0.52 0.46 0.37 0.38 0.38 0.35 0.41 0.52 0.70 0.66 0.87
2.11 2.58 2.78 2.73 2.27 1.79 1.60 1.41 1.31 1.20 1.17 1.22 1.23 1.18 1.13 1.04 1.03 1.17 1.07 0.98 0.97 0.99 0.95 1.10 1.21 1.20 0.99 1.20 1.34 0.88 0.60 0.47 0.39 0.29 0.25 0.26 0.26 0.29 0.40 0.52 0.65 0.66 0.78
1.97 2.46 2.50 2.04 1.57 1.28 1.13 1.01 0.90 0.88 0.87 0.86 0.83 0.81 0.80 0.82 0.86 0.94 0.91 0.82 0.78 0.80 0.79 0.87 1.00 1.00 0.88 1.16 1.29 1.13 0.79 0.58 0.46 0.30 0.27 0.26 0.27 0.35 0.41 0.46 0.62 0.74 0.82
1.73 1.77 1.47 1.17 0.91 0.72 0.62 0.57 0.60 0.58 0.57 0.52 0.46 0.46 0.52 0.58 0.59 0.59 0.60 0.64 0.68 0.69 0.70 0.76 0.91 1.03 0.90 0.93 1.16 1.27 1.00 0.68 0.59 0.46 0.45 0.47 0.47 0.52 0.57 0.67 0.76 0.82 0.89
1.16 1.00 0.82 0.71 0.60 0.54 0.54 0.48 0.53 0.48 0.43 0.39 0.34 0.34 0.39 0.42 0.42 0.41 0.43 0.53 0.60 0.66 0.70 0.65 0.70 0.86 0.91 0.83 0.93 1.04 1.06 1.06 0.98 0.70 0.52 0.49 0.54 0.55 0.57 0.62 0.70 0.78 0.82
0.62 0.57 0.47 0.55 0.61 0.56 0.53 0.47 0.43 0.37 0.32 0.29 0.31 0.34 0.39 0.42 0.41 0.38 0.37 0.39 0.49 0.57 0.64 0.66 0.68 0.73 0.80 0.78 0.79 0.85 0.92 1.01 1.00 0.91 0.67 0.51 0.51 0.50 0.57 0.61 0.68 0.73 0.77
0.27 0.27 0.27 0.34 0.44 0.43 0.42 0.41 0.38 0.35 0.33 0.30 0.29 0.30 0.32 0.36 0.38 0.38 0.38 0.40 0.42 0.43 0.46 0.53 0.59 0.64 0.69 0.72 0.72 0.79 0.88 0.86 0.86 0.96 0.84 0.67 0.62 0.57 0.65 0.71 0.81 0.89 0.89

GEFSSE_prec_meanprecacc_078.txt.gz
Total_Precipitation_Accumulation
0.01 0.01 0.01 0.01 0.01 0.01 0.02 0.04 0.04 0.05 0.05 0.04 0.03 0.02 0.01 0.01 0.01 0.01 0.01 0.01 0.02 0.02 0.02 0.03 0.04 0.04 0.04 0.04 0.04 0.03 0.02 0.02 0.03 0.04 0.04 0.06 0.10 0.15 0.19 0.22 0.37 0.33 0.14
0.00 0.01 0.01 0.01 0.01 0.01 0.03 0.04 0.05 0.06 0.06 0.06 0.05 0.04 0.02 0.01 0.01 0.01 0.01 0.01 0.01 0.01 0.02 0.02 0.02 0.02 0.02 0.01 0.01 0.01 0.01 0.02 0.04 0.06 0.09 0.09 0.13 0.20 0.19 0.19 0.38 0.27 0.10
0.00 0.01 0.01 0.01 0.01 0.01 0.02 0.03 0.05 0.06 0.07 0.06 0.06 0.05 0.03 0.01 0.01 0.01 0.01 0.01 0.01 0.02 0.02 0.01 0.01 0.01 0.01 0.01 0.00 0.01 0.01 0.03 0.05 0.11 0.28 0.30 0.14 0.18 0.17 0.17 0.21 0.12 0.08
0.00 0.01 0.01 0.01 0.01 0.01 0.02 0.03 0.05 0.06 0.06 0.06 0.05 0.04 0.03 0.02 0.01 0.01 0.01 0.01 0.02 0.02 0.01 0.01 0.01 0.01 0.01 0.00 0.00 0.01 0.02 0.04 0.07 0.17 0.49 0.35 0.13 0.10 0.12 0.12 0.11 0.07 0.05
0.00 0.00 0.01 0.01 0.01 0.01 0.01 0.02 0.04 0.05 0.05 0.05 0.05 0.04 0.03 0.02 0.02 0.01 0.01 0.02 0.03 0.03 0.02 0.01 0.01 0.01 0.00 0.01 0.01 0.01 0.02 0.04 0.08 0.20 0.30 0.28 0.31 0.13 0.08 0.10 0.11 0.07 0.05
0.01 0.00 0.01 0.02 0.02 0.02 0.01 0.02 0.02 0.03 0.04 0.04 0.04 0.03 0.03 0.03 0.03 0.02 0.02 0.02 0.03 0.03 0.02 0.01 0.01 0.01 0.00 0.00 0.01 0.01 0.01 0.03 0.10 0.14 0.16 0.24 0.33 0.19 0.12 0.17 0.17 0.11 0.07
0.01 0.01 0.01 0.02 0.03 0.02 0.02 0.02 0.02 0.03 0.03 0.04 0.04 0.03 0.03 0.03 0.03 0.03 0.02 0.02 0.03 0.04 0.03 0.02 0.01 0.01 0.01 0.00 0.00 0.00 0.01 0.05 0.13 0.12 0.17 0.32 0.37 0.23 0.23 0.40 0.44 0.30 0.17
0.01 0.01 0.02 0.03 0.03 0.03 0.03 0.04 0.04 0.04 0.04 0.04 0.04 0.04 0.04 0.04 0.03 0.03 0.02 0.02 0.05 0.06 0.04 0.03 0.02 0.02 0.01 0.01 0.01 0.01 0.03 0.05 0.08 0.09 0.12 0.27 0.29 0.27 0.42 0.66 0.69 0.54 0.39
0.01 0.01 0.03 0.04 0.04 0.04 0.05 0.05 0.05 0.05 0.06 0.06 0.05 0.05 0.05 0.05 0.05 0.05 0.04 0.04 0.05 0.07 0.08 0.06 0.04 0.03 0.03 0.03 0.03 0.03 0.04 0.06 0.09 0.10 0.12 0.19 0.16 0.21 0.47 0.67 0.63 0.57 0.48
0.02 0.02 0.03 0.06 0.08 0.08 0.07 0.08 0.08 0.08 0.08 0.07 0.08 0.08 0.08 0.08 0.08 0.09 0.08 0.09 0.09 0.11 0.12 0.12 0.10 0.09 0.10 0.10 0.09 0.08 0.09 0.07 0.05 0.06 0.13 0.23 0.19 0.32 0.60 0.76 0.68 0.61 0.54
0.03 0.03 0.03 0.04 0.07 0.08 0.09 0.09 0.09 0.10 0.11 0.10 0.11 0.11 0.11 0.14 0.24 0.30 0.31 0.33 0.30 0.30 0.28 0.26 0.26 0.26 0.24 0.16 0.19 0.29 0.21 0.05 0.04 0.07 0.17 0.28 0.27 0.47 0.77 0.88 0.85 0.76 0.67
0.05 0.04 0.04 0.05 0.07 0.07 0.07 0.13 0.14 0.16 0.19 0.15 0.21 0.28 0.31 0.38 0.38 0.30 0.49 0.55 0.56 0.64 0.60 0.58 0.75 0.64 0.46 0.36 0.68 1.04 0.39 0.15 0.11 0.11 0.19 0.29 0.45 0.70 0.95 0.95 0.88 0.83 0.76
0.08 0.07 0.07 0.09 0.11 0.12 0.13 0.13 0.16 0.20 0.34 0.30 0.32 0.44 0.60 0.59 0.46 0.36 0.47 0.69 0.86 1.04 1.01 1.12 1.27 0.92 0.87 0.94 1.07 1.08 0.62 0.42 0.29 0.29 0.40 0.57 0.84 1.04 1.15 1.04 0.96 0.92 0.86
0.16 0.17 0.21 0.21 0.24 0.25 0.28 0.30 0.30 0.34 0.47 0.52 0.67 0.72 0.90 0.92 0.80 0.70 0.71 0.81 1.05 1.23 1.56 1.62 1.52 1.42 1.39 1.31 1.23 1.05 0.88 0.83 0.57 0.61 0.82 0.90 1.03 1.18 1.30 1.22 1.07 1.03 1.00
0.34 0.46 0.54 0.51 0.56 0.64 0.71 0.73 0.63 0.67 0.73 0.78 0.96 1.04 1.23 1.41 1.37 1.34 1.25 1.18 1.10 1.28 1.60 1.82 1.77 1.81 1.77 1.66 1.47 1.29 1.10 1.05 0.98 1.02 1.13 1.32 1.34 1.29 1.30 1.36 1.25 1.12 1.03
0.58 0.77 0.92 1.00 1.16 1.19 1.15 1.16 1.13 0.94 0.91 0.92 1.09 1.23 1.45 1.66 1.87 1.94 1.82 1.67 1.40 1.38 1.48 1.81 1.93 2.07 1.96 1.81 1.29 1.22 1.22 1.27 1.27 1.22 1.23 1.69 1.74 1.37 1.21 1.20 1.22 1.18 1.11
0.96 1.15 1.32 1.50 1.69 1.68 1.58 1.47 1.32 1.19 1.18 1.31 1.42 1.43 1.65 1.88 2.06 2.07 1.82 1.52 1.36 1.48 1.56 1.51 1.52 1.81 1.60 1.47 1.28 1.37 1.40 1.33 1.28 1.26 1.24 1.51 1.61 1.31 1.05 0.95 1.00 1.04 1.09
1.30 1.44 1.64 1.78 1.92 1.99 1.95 1.91 1.69 1.52 1.58 1.55 1.49 1.47 1.57 1.77 1.82 1.84 1.48 1.14 1.24 1.46 1.54 1.48 1.42 1.50 1.48 1.53 1.52 1.50 1.47 1.32 1.10 1.04 0.93 0.89 0.99 0.88 0.91 1.02 0.94 0.87 0.99
1.69 1.98 2.22 2.35 2.26 2.29 2.28 2.24 2.08 1.88 1.67 1.49 1.49 1.44 1.35 1.31 1.36 1.44 1.15 1.02 1.18 1.32 1.34 1.30 1.43 1.52 1.40 1.47 1.52 1.40 1.15 1.01 0.85 0.74 0.69 0.61 0.61 0.62 0.61 0.80 0.83 0.84 1.01
2.00 2.45 2.79 2.80 2.59 2.32 2.09 1.83 1.78 1.69 1.60 1.50 1.42 1.31 1.16 1.07 1.09 1.26 1.14 1.03 1.16 1.23 1.18 1.32 1.43 1.51 1.31 1.29 1.24 0.98 0.80 0.60 0.56 0.48 0.39 0.42 0.42 0.40 0.46 0.58 0.80 0.71 0.91
2.16 2.62 2.81 2.76 2.29 1.81 1.62 1.44 1.34 1.22 1.18 1.24 1.24 1.19 1.15 1.05 1.04 1.18 1.09 1.00 0.99 1.00 0.97 1.12 1.24 1.24 1.03 1.23 1.36 0.90 0.61 0.47 0.40 0.30 0.26 0.28 0.28 0.33 0.45 0.59 0.74 0.75 0.84
1.99 2.49 2.53 2.05 1.58 1.30 1.15 1.03 0.92 0.89 0.88 0.87 0.84 0.82 0.81 0.82 0.87 0.95 0.93 0.84 0.79 0.82 0.81 0.89 1.02 1.02 0.90 1.17 1.30 1.15 0.80 0.59 0.47 0.32 0.30 0.29 0.31 0.40 0.45 0.52 0.72 0.86 0.91
1.76 1.79 1.48 1.18 0.92 0.73 0.63 0.59 0.62 0.59 0.58 0.53 0.48 0.47 0.53 0.58 0.59 0.59 0.60 0.64 0.68 0.69 0.71 0.77 0.93 1.05 0.91 0.94 1.17 1.29 1.01 0.69 0.61 0.48 0.47 0.50 0.52 0.57 0.62 0.74 0.84 0.93 0.98
1.17 1.01 0.83 0.72 0.60 0.55 0.55 0.50 0.55 0.50 0.45 0.41 0.35 0.36 0.40 0.42 0.42 0.41 0.43 0.53 0.60 0.66 0.71 0.66 0.71 0.87 0.92 0.84 0.94 1.05 1.07 1.07 0.99 0.71 0.54 0.52 0.58 0.59 0.61 0.66 0.75 0.87 0.92
0.62 0.57 0.48 0.56 0.63 0.58 0.55 0.49 0.45 0.38 0.33 0.29 0.32 0.36 0.41 0.42 0.41 0.38 0.37 0.39 0.49 0.57 0.64 0.66 0.68 0.74 0.81 0.79 0.80 0.85 0.93 1.03 1.02 0.93 0.68 0.53 0.54 0.53 0.59 0.64 0.71 0.78 0.84
0.27 0.27 0.27 0.37 0.47 0.45 0.44 0.42 0.40 0.37 0.35 0.31 0.30 0.31 0.33 0.36 0.38 0.38 0.38 0.40 0.42 0.43 0.47 0.54 0.60 0.65 0.71 0.73 0.74 0.80 0.89 0.88 0.88 0.99 0.86 0.70 0.64 0.58 0.67 0.73 0.84 0.93 0.94

GEFSSE_prec_meanprecacc_084.txt.gz
Total_Precipitation_Accumulation
0.02 0.01 0.02 0.01 0.01 0.01 0.03 0.04 0.05 0.06 0.06 0.05 0.04 0.03 0.01 0.01 0.01 0.01 0.01 0.01 0.02 0.02 0.02 0.03 0.04 0.04 0.04 0.04 0.04 0.03 0.03 0.04 0.05 0.05 0.06 0.08 0.12 0.18 0.22 0.25 0.38 0.34 0.15
0.01 0.01 0.02 0.01 0.01 0.02 0.03 0.05 0.06 0.07 0.08 0.07 0.06 0.04 0.02 0.01 0.01 0.01 0.02 0.02 0.02 0.02 0.02 0.02 0.02 0.02 0.02 0.02 0.02 0.02 0.03 0.04 0.07 0.10 0.13 0.13 0.15 0.22 0.22 0.21 0.39 0.27 0.11
0.00 0.01 0.02 0.02 0.01 0.01 0.02 0.04 0.06 0.07 0.09 0.08 0.07 0.06 0.03 0.02 0.01 0.01 0.02 0.02 0.02 0.02 0.02 0.01 0.01 0.01 0.01 0.01 0.01 0.01 0.02 0.05 0.10 0.18 0.33 0.32 0.15 0.21 0.22 0.20 0.22 0.12 0.09
0.00 0.01 0.01 0.01 0.01 0.01 0.02 0.04 0.06 0.07 0.08 0.07 0.07 0.05 0.04 0.03 0.02 0.02 0.02 0.01 0.02 0.03 0.02 0.01 0.01 0.01 0.01 0.01 0.01 0.01 0.03 0.05 0.11 0.24 0.53 0.38 0.14 0.11 0.14 0.13 0.12 0.07 0.06
0.00 0.00 0.01 0.02 0.01 0.02 0.02 0.03 0.04 0.06 0.07 0.06 0.06 0.05 0.03 0.03 0.03 0.02 0.02 0.02 0.03 0.03 0.02 0.01 0.01 0.01 0.00 0.01 0.01 0.02 0.03 0.06 0.14 0.30 0.37 0.32 0.32 0.14 0.09 0.11 0.11 0.07 0.05
0.01 0.00 0.01 0.02 0.02 0.02 0.01 0.02 0.03 0.04 0.05 0.05 0.04 0.04 0.03 0.03 0.03 0.02 0.02 0.03 0.03 0.03 0.02 0.01 0.01 0.01 0.00 0.00 0.01 0.02 0.03 0.07 0.16 0.22 0.24 0.29 0.35 0.20 0.12 0.17 0.17 0.11 0.07
0.01 0.01 0.01 0.03 0.03 0.02 0.02 0.02 0.03 0.03 0.04 0.05 0.05 0.04 0.03 0.03 0.04 0.03 0.03 0.03 0.04 0.04 0.03 0.02 0.01 0.01 0.01 0.00 0.00 0.01 0.03 0.08 0.17 0.20 0.26 0.39 0.40 0.24 0.24 0.40 0.44 0.31 0.17
0.01 0.01 0.02 0.03 0.03 0.03 0.04 0.04 0.04 0.04 0.05 0.05 0.05 0.05 0.04 0.04 0.04 0.04 0.03 0.03 0.05 0.06 0.05 0.03 0.02 0.02 0.02 0.01 0.01 0.01 0.04 0.07 0.12 0.19 0.26 0.38 0.34 0.31 0.45 0.67 0.69 0.55 0.39
0.02 0.01 0.03 0.04 0.04 0.05 0.05 0.05 0.05 0.06 0.07 0.07 0.06 0.06 0.05 0.05 0.06 0.06 0.05 0.05 0.06 0.08 0.09 0.07 0.04 0.03 0.03 0.03 0.03 0.03 0.05 0.08 0.13 0.22 0.28 0.29 0.24 0.26 0.50 0.69 0.64 0.57 0.48
0.04 0.02 0.03 0.06 0.08 0.08 0.07 0.08 0.08 0.09 0.08 0.08 0.08 0.09 0.09 0.09 0.10 0.12 0.11 0.11 0.11 0.13 0.14 0.13 0.11 0.10 0.11 0.11 0.10 0.09 0.10 0.08 0.08 0.12 0.26 0.39 0.30 0.38 0.64 0.78 0.69 0.62 0.55
0.06 0.04 0.03 0.05 0.08 0.09 0.09 0.09 0.10 0.10 0.11 0.11 0.12 0.12 0.13 0.16 0.28 0.36 0.38 0.41 0.36 0.35 0.32 0.28 0.28 0.28 0.25 0.18 0.21 0.31 0.22 0.07 0.06 0.11 0.27 0.45 0.41 0.56 0.84 0.93 0.88 0.78 0.68
0.07 0.05 0.05 0.05 0.07 0.08 0.08 0.14 0.15 0.17 0.21 0.18 0.24 0.32 0.35 0.43 0.44 0.38 0.59 0.67 0.67 0.73 0.67 0.63 0.79 0.67 0.48 0.38 0.71 1.08 0.41 0.17 0.14 0.16 0.26 0.41 0.62 0.89 1.10 1.03 0.94 0.87 0.79
0.12 0.09 0.10 0.11 0.13 0.15 0.16 0.17 0.20 0.26 0.40 0.36 0.38 0.51 0.67 0.66 0.53 0.42 0.54 0.82 0.98 1.12 1.07 1.18 1.33 0.97 0.90 0.97 1.12 1.13 0.67 0.47 0.35 0.37 0.49 0.72 1.04 1.28 1.35 1.16 1.04 0.98 0.91
0.24 0.24 0.28 0.29 0.33 0.31 0.33 0.35 0.35 0.41 0.55 0.63 0.79 0.85 1.00 1.01 0.87 0.76 0.78 0.89 1.11 1.28 1.61 1.68 1.57 1.48 1.44 1.34 1.27 1.11 0.94 0.90 0.72 0.76 0.96 1.08 1.24 1.40 1.53 1.38 1.19 1.11 1.05
0.45 0.54 0.62 0.58 0.65 0.72 0.74 0.76 0.67 0.73 0.82 0.91 1.09 1.24 1.36 1.50 1.44 1.39 1.30 1.24 1.16 1.33 1.66 1.88 1.82 1.85 1.82 1.71 1.52 1.34 1.16 1.12 1.10 1.14 1.26 1.47 1.49 1.43 1.45 1.51 1.37 1.20 1.11
0.68 0.86 1.00 1.06 1.21 1.23 1.18 1.19 1.17 1.01 1.01 1.04 1.18 1.31 1.51 1.72 1.92 1.99 1.87 1.71 1.44 1.42 1.53 1.86 1.99 2.12 1.99 1.84 1.32 1.26 1.27 1.33 1.35 1.31 1.34 1.81 1.86 1.48 1.33 1.33 1.35 1.30 1.22
1.07 1.24 1.40 1.57 1.74 1.72 1.61 1.49 1.34 1.24 1.24 1.37 1.47 1.48 1.70 1.94 2.12 2.12 1.86 1.55 1.39 1.51 1.59 1.55 1.59 1.88 1.65 1.51 1.31 1.40 1.44 1.37 1.33 1.31 1.32 1.58 1.67 1.39 1.12 1.04 1.11 1.17 1.23
1.41 1.53 1.71 1.81 1.95 2.02 1.98 1.93 1.71 1.55 1.61 1.58 1.51 1.50 1.61 1.82 1.86 1.87 1.51 1.16 1.25 1.47 1.55 1.50 1.45 1.54 1.52 1.57 1.54 1.52 1.49 1.34 1.13 1.06 0.96 0.92 1.02 0.91 0.96 1.08 1.01 0.95 1.09
1.78 2.06 2.29 2.41 2.30 2.31 2.30 2.26 2.09 1.90 1.69 1.51 1.50 1.46 1.39 1.34 1.38 1.45 1.15 1.03 1.19 1.33 1.35 1.32 1.45 1.55 1.44 1.50 1.54 1.42 1.17 1.02 0.87 0.76 0.71 0.63 0.64 0.66 0.65 0.85 0.89 0.91 1.08
2.08 2.51 2.83 2.84 2.62 2.34 2.10 1.84 1.79 1.69 1.61 1.50 1.43 1.31 1.17 1.07 1.09 1.26 1.14 1.03 1.16 1.24 1.19 1.33 1.45 1.53 1.33 1.30 1.25 1.00 0.82 0.61 0.57 0.50 0.41 0.43 0.44 0.43 0.50 0.62 0.84 0.76 0.99
2.21 2.66 2.85 2.80 2.32 1.83 1.63 1.44 1.34 1.22 1.18 1.24 1.24 1.19 1.15 1.05 1.04 1.18 1.09 1.00 0.99 1.01 0.98 1.12 1.24 1.24 1.03 1.24 1.38 0.92 0.62 0.49 0.41 0.31 0.27 0.29 0.30 0.36 0.49 0.65 0.80 0.81 0.90
2.03 2.51 2.54 2.06 1.59 1.30 1.15 1.04 0.92 0.89 0.88 0.87 0.84 0.82 0.81 0.82 0.87 0.95 0.93 0.84 0.79 0.82 0.81 0.89 1.02 1.02 0.90 1.17 1.31 1.16 0.81 0.60 0.48 0.33 0.32 0.31 0.33 0.43 0.49 0.57 0.79 0.94 0.98
1.77 1.79 1.48 1.18 0.92 0.73 0.63 0.59 0.62 0.59 0.59 0.53 0.48 0.48 0.53 0.58 0.59 0.59 0.60 0.64 0.68 0.69 0.71 0.77 0.93 1.05 0.91 0.94 1.17 1.30 1.02 0.70 0.61 0.48 0.48 0.51 0.54 0.60 0.65 0.77 0.88 0.97 1.04
1.18 1.01 0.83 0.73 0.61 0.55 0.55 0.50 0.56 0.50 0.45 0.41 0.35 0.36 0.40 0.42 0.42 0.41 0.43 0.53 0.60 0.66 0.71 0.66 0.71 0.87 0.92 0.84 0.94 1.05 1.07 1.07 0.99 0.71 0.54 0.52 0.59 0.61 0.63 0.68 0.77 0.90 0.97
0.63 0.58 0.49 0.56 0.63 0.59 0.55 0.49 0.45 0.38 0.33 0.30 0.32 0.36 0.41 0.42 0.41 0.38 0.37 0.39 0.49 0.57 0.64 0.66 0.68 0.74 0.81 0.79 0.80 0.85 0.93 1.03 1.02 0.93 0.68 0.53 0.54 0.54 0.60 0.66 0.73 0.79 0.87
0.27 0.27 0.28 0.37 0.48 0.45 0.44 0.42 0.40 0.37 0.35 0.31 0.30 0.31 0.33 0.36 0.38 0.38 0.38 0.40 0.42 0.43 0.47 0.54 0.60 0.65 0.71 0.74 0.74 0.80 0.89 0.88 0.88 0.99 0.86 0.70 0.64 0.58 0.67 0.74 0.85 0.94 0.95

GEFSSE_prec_meanprecacc_090.txt.gz
Total_Precipitation_Accumulation
0.03 0.03 0.05 0.03 0.02 0.02 0.03 0.04 0.05 0.06 0.06 0.05 0.04 0.03 0.01 0.01 0.01 0.01 0.01 0.02 0.02 0.02 0.02 0.04 0.05 0.05 0.05 0.05 0.05 0.04 0.03 0.04 0.06 0.07 0.08 0.11 0.14 0.21 0.28 0.28 0.40 0.35 0.17
0.01 0.03 0.05 0.05 0.03 0.03 0.04 0.05 0.06 0.07 0.08 0.07 0.06 0.05 0.02 0.01 0.01 0.01 0.02 0.02 0.02 0.02 0.02 0.03 0.03 0.03 0.02 0.02 0.02 0.03 0.03 0.05 0.09 0.14 0.19 0.18 0.20 0.28 0.29 0.23 0.40 0.29 0.13
0.01 0.02 0.04 0.05 0.03 0.03 0.03 0.05 0.06 0.08 0.09 0.08 0.07 0.06 0.04 0.02 0.01 0.02 0.02 0.02 0.02 0.02 0.02 0.02 0.02 0.02 0.01 0.01 0.02 0.02 0.04 0.07 0.13 0.22 0.38 0.35 0.19 0.27 0.27 0.22 0.23 0.14 0.11
0.01 0.01 0.02 0.05 0.04 0.03 0.03 0.05 0.06 0.08 0.09 0.08 0.07 0.06 0.04 0.03 0.02 0.02 0.02 0.02 0.02 0.03 0.02 0.02 0.01 0.01 0.01 0.01 0.01 0.03 0.05 0.09 0.15 0.28 0.55 0.39 0.15 0.14 0.17 0.15 0.13 0.08 0.07
0.02 0.02 0.02 0.04 0.04 0.03 0.03 0.04 0.05 0.06 0.07 0.07 0.07 0.05 0.04 0.04 0.04 0.03 0.02 0.02 0.03 0.03 0.02 0.01 0.01 0.01 0.01 0.01 0.02 0.03 0.06 0.11 0.19 0.32 0.38 0.33 0.34 0.16 0.11 0.13 0.12 0.08 0.06
0.02 0.02 0.03 0.04 0.04 0.04 0.03 0.03 0.04 0.05 0.06 0.06 0.05 0.04 0.04 0.04 0.04 0.04 0.03 0.03 0.04 0.04 0.02 0.02 0.01 0.01 0.01 0.01 0.01 0.03 0.06 0.11 0.19 0.23 0.25 0.29 0.36 0.22 0.13 0.18 0.17 0.12 0.08
0.02 0.02 0.03 0.05 0.05 0.04 0.04 0.04 0.04 0.04 0.05 0.05 0.05 0.05 0.04 0.04 0.05 0.05 0.04 0.03 0.04 0.05 0.04 0.02 0.02 0.01 0.01 0.01 0.01 0.02 0.05 0.12 0.19 0.21 0.26 0.39 0.41 0.26 0.25 0.41 0.44 0.31 0.18
0.03 0.03 0.04 0.06 0.06 0.05 0.05 0.05 0.05 0.05 0.06 0.05 0.05 0.05 0.05 0.06 0.06 0.06 0.05 0.04 0.07 0.08 0.06 0.04 0.02 0.02 0.02 0.02 0.02 0.03 0.06 0.10 0.14 0.20 0.26 0.38 0.36 0.33 0.46 0.68 0.70 0.55 0.39
0.05 0.05 0.05 0.05 0.06 0.06 0.07 0.07 0.06 0.07 0.08 0.08 0.07 0.07 0.07 0.07 0.08 0.09 0.08 0.08 0.08 0.10 0.11 0.08 0.05 0.04 0.04 0.03 0.03 0.04 0.06 0.10 0.15 0.24 0.29 0.30 0.26 0.29 0.52 0.71 0.64 0.58 0.49
0.09 0.07 0.07 0.08 0.10 0.10 0.09 0.10 0.10 0.10 0.10 0.10 0.10 0.10 0.10 0.11 0.13 0.15 0.13 0.14 0.15 0.16 0.17 0.17 0.14 0.12 0.12 0.12 0.11 0.10 0.12 0.10 0.10 0.13 0.27 0.41 0.33 0.42 0.68 0.81 0.71 0.63 0.55
0.09 0.07 0.07 0.08 0.10 0.11 0.10 0.11 0.12 0.12 0.13 0.13 0.14 0.15 0.16 0.18 0.30 0.38 0.41 0.46 0.43 0.41 0.38 0.34 0.34 0.33 0.29 0.21 0.23 0.33 0.23 0.08 0.08 0.13 0.28 0.47 0.44 0.61 0.90 0.97 0.92 0.81 0.69
0.09 0.07 0.09 0.09 0.10 0.10 0.10 0.16 0.17 0.20 0.23 0.19 0.27 0.36 0.38 0.45 0.47 0.41 0.65 0.78 0.78 0.85 0.78 0.72 0.87 0.74 0.55 0.43 0.75 1.11 0.43 0.18 0.15 0.18 0.27 0.43 0.66 0.95 1.18 1.11 1.00 0.92 0.83
0.17 0.13 0.15 0.16 0.16 0.17 0.20 0.20 0.23 0.29 0.43 0.39 0.41 0.56 0.72 0.71 0.58 0.48 0.60 0.88 1.06 1.22 1.16 1.28 1.41 1.03 0.97 1.03 1.16 1.18 0.70 0.50 0.37 0.39 0.50 0.74 1.09 1.35 1.46 1.27 1.12 1.05 0.97
0.39 0.34 0.35 0.35 0.39 0.37 0.39 0.40 0.40 0.46 0.61 0.68 0.84 0.92 1.07 1.08 0.93 0.82 0.83 0.94 1.16 1.34 1.66 1.73 1.62 1.52 1.51 1.41 1.33 1.16 0.99 0.94 0.74 0.78 0.99 1.12 1.29 1.47 1.65 1.52 1.30 1.21 1.13
0.67 0.78 0.78 0.67 0.75 0.83 0.85 0.84 0.74 0.79 0.89 0.98 1.17 1.30 1.42 1.57 1.50 1.44 1.35 1.30 1.22 1.39 1.70 1.92 1.85 1.89 1.85 1.73 1.55 1.38 1.19 1.16 1.12 1.16 1.28 1.51 1.55 1.50 1.55 1.64 1.51 1.34 1.24
0.96 1.16 1.21 1.22 1.35 1.37 1.31 1.30 1.25 1.08 1.08 1.11 1.25 1.36 1.56 1.77 1.98 2.06 1.93 1.76 1.48 1.46 1.56 1.89 2.02 2.15 2.02 1.86 1.35 1.28 1.29 1.35 1.37 1.33 1.36 1.84 1.93 1.57 1.43 1.45 1.50 1.47 1.39
1.46 1.55 1.62 1.78 1.91 1.86 1.74 1.59 1.41 1.30 1.30 1.41 1.50 1.52 1.74 1.97 2.16 2.16 1.91 1.60 1.41 1.52 1.61 1.57 1.61 1.89 1.67 1.53 1.34 1.43 1.46 1.39 1.34 1.33 1.34 1.60 1.71 1.47 1.22 1.14 1.24 1.31 1.40
1.85 1.85 1.94 2.00 2.12 2.16 2.09 2.01 1.75 1.58 1.64 1.61 1.54 1.53 1.63 1.84 1.88 1.89 1.53 1.17 1.26 1.48 1.56 1.51 1.46 1.56 1.54 1.58 1.56 1.55 1.51 1.37 1.17 1.10 1.00 0.95 1.05 0.94 1.02 1.18 1.12 1.06 1.23
2.18 2.36 2.51 2.59 2.46 2.44 2.39 2.31 2.13 1.93 1.71 1.53 1.53 1.48 1.41 1.36 1.39 1.46 1.16 1.03 1.20 1.34 1.37 1.34 1.47 1.57 1.46 1.52 1.55 1.44 1.18 1.04 0.90 0.79 0.73 0.65 0.67 0.69 0.69 0.90 0.99 1.02 1.21
2.35 2.74 2.99 2.98 2.74 2.43 2.17 1.88 1.81 1.70 1.62 1.51 1.44 1.32 1.17 1.08 1.10 1.26 1.15 1.04 1.17 1.25 1.20 1.34 1.46 1.54 1.34 1.31 1.26 1.01 0.83 0.62 0.58 0.51 0.43 0.45 0.47 0.45 0.53 0.65 0.88 0.82 1.11
2.37 2.80 2.97 2.90 2.40 1.88 1.66 1.46 1.35 1.23 1.19 1.24 1.25 1.19 1.15 1.05 1.04 1.18 1.09 1.00 0.99 1.01 0.98 1.12 1.25 1.26 1.04 1.25 1.39 0.92 0.63 0.49 0.42 0.32 0.29 0.31 0.32 0.38 0.51 0.67 0.82 0.84 0.95
2.15 2.62 2.64 2.15 1.65 1.33 1.17 1.05 0.93 0.90 0.89 0.87 0.84 0.82 0.81 0.82 0.87 0.95 0.93 0.84 0.79 0.82 0.81 0.89 1.02 1.02 0.90 1.18 1.32 1.17 0.81 0.60 0.48 0.34 0.33 0.32 0.35 0.45 0.51 0.58 0.80 0.96 1.01
1.87 1.88 1.55 1.23 0.95 0.74 0.64 0.60 0.63 0.60 0.59 0.53 0.48 0.48 0.53 0.58 0.59 0.59 0.60 0.64 0.68 0.69 0.71 0.77 0.93 1.05 0.91 0.94 1.17 1.30 1.02 0.70 0.61 0.48 0.48 0.52 0.55 0.62 0.67 0.79 0.90 0.99 1.07
1.25 1.08 0.88 0.76 0.63 0.56 0.56 0.51 0.56 0.50 0.45 0.41 0.35 0.36 0.40 0.42 0.42 0.41 0.43 0.53 0.60 0.66 0.71 0.66 0.71 0.87 0.92 0.84 0.94 1.05 1.07 1.07 0.99 0.71 0.54 0.52 0.59 0.62 0.64 0.69 0.79 0.92 0.99
0.68 0.62 0.51 0.58 0.64 0.59 0.56 0.49 0.45 0.38 0.33 0.30 0.32 0.36 0.41 0.42 0.41 0.38 0.37 0.39 0.49 0.57 0.64 0.66 0.68 0.74 0.81 0.79 0.80 0.85 0.93 1.03 1.02 0.93 0.68 0.53 0.54 0.54 0.61 0.67 0.74 0.80 0.88
0.30 0.30 0.30 0.39 0.49 0.46 0.44 0.42 0.40 0.37 0.35 0.31 0.30 0.31 0.33 0.36 0.38 0.38 0.38 0.40 0.42 0.43 0.47 0.54 0.60 0.65 0.71 0.74 0.74 0.80 0.89 0.88 0.88 0.99 0.86 0.70 0.64 0.58 0.67 0.74 0.85 0.94 0.95

GEFSSE_prec_meanprecacc_096.txt.gz
Total_Precipitation_Accumulation
0.03 0.03 0.06 0.05 0.04 0.03 0.05 0.06 0.06 0.07 0.06 0.05 0.04 0.03 0.01 0.01 0.01 0.02 0.02 0.02 0.02 0.03 0.03 0.04 0.05 0.06 0.06 0.06 0.06 0.04 0.04 0.04 0.07 0.08 0.11 0.13 0.17 0.25 0.32 0.31 0.44 0.38 0.20
0.01 0.03 0.07 0.07 0.05 0.05 0.06 0.06 0.07 0.08 0.08 0.08 0.07 0.05 0.02 0.02 0.02 0.02 0.02 0.02 0.02 0.03 0.03 0.03 0.03 0.03 0.03 0.03 0.03 0.03 0.04 0.06 0.10 0.16 0.21 0.21 0.24 0.32 0.32 0.26 0.43 0.31 0.16
0.01 0.02 0.05 0.08 0.06 0.05 0.05 0.06 0.07 0.08 0.10 0.09 0.07 0.06 0.04 0.02 0.02 0.02 0.02 0.02 0.02 0.03 0.03 0.03 0.02 0.02 0.02 0.02 0.02 0.03 0.04 0.08 0.14 0.24 0.40 0.40 0.21 0.28 0.29 0.24 0.25 0.16 0.13
0.01 0.02 0.03 0.07 0.07 0.05 0.04 0.06 0.07 0.08 0.09 0.08 0.07 0.06 0.05 0.04 0.03 0.02 0.02 0.02 0.03 0.04 0.03 0.02 0.02 0.02 0.02 0.02 0.02 0.03 0.06 0.10 0.16 0.29 0.57 0.40 0.17 0.15 0.19 0.17 0.14 0.10 0.09
0.03 0.02 0.03 0.05 0.06 0.06 0.05 0.05 0.06 0.07 0.08 0.07 0.07 0.05 0.04 0.05 0.05 0.03 0.02 0.03 0.04 0.04 0.03 0.02 0.02 0.01 0.01 0.01 0.02 0.04 0.07 0.12 0.20 0.33 0.38 0.35 0.38 0.19 0.13 0.14 0.13 0.10 0.07
0.04 0.03 0.04 0.06 0.06 0.06 0.05 0.05 0.05 0.06 0.06 0.06 0.05 0.05 0.04 0.05 0.05 0.05 0.04 0.04 0.04 0.05 0.03 0.02 0.02 0.01 0.01 0.01 0.02 0.05 0.08 0.13 0.21 0.24 0.25 0.31 0.39 0.24 0.15 0.19 0.19 0.13 0.09
0.03 0.03 0.04 0.07 0.08 0.07 0.06 0.06 0.06 0.06 0.06 0.06 0.06 0.05 0.05 0.06 0.07 0.06 0.05 0.04 0.05 0.05 0.05 0.03 0.02 0.02 0.02 0.02 0.03 0.06 0.10 0.16 0.21 0.22 0.27 0.41 0.44 0.28 0.26 0.42 0.46 0.32 0.18
0.04 0.04 0.05 0.08 0.09 0.09 0.08 0.08 0.08 0.08 0.08 0.07 0.06 0.06 0.06 0.07 0.08 0.07 0.07 0.06 0.08 0.09 0.08 0.05 0.03 0.03 0.03 0.03 0.04 0.06 0.12 0.14 0.16 0.22 0.28 0.41 0.38 0.35 0.47 0.69 0.71 0.56 0.40
0.07 0.08 0.08 0.07 0.08 0.10 0.12 0.12 0.11 0.10 0.10 0.09 0.08 0.08 0.07 0.09 0.10 0.10 0.10 0.11 0.11 0.13 0.13 0.10 0.06 0.06 0.05 0.05 0.05 0.07 0.12 0.16 0.19 0.27 0.30 0.33 0.27 0.31 0.54 0.72 0.65 0.58 0.50
0.14 0.12 0.12 0.12 0.13 0.12 0.12 0.14 0.14 0.13 0.12 0.11 0.11 0.11 0.11 0.13 0.15 0.17 0.15 0.17 0.18 0.20 0.20 0.19 0.16 0.14 0.14 0.13 0.13 0.12 0.15 0.14 0.13 0.17 0.31 0.44 0.35 0.45 0.71 0.84 0.72 0.64 0.57
0.16 0.13 0.12 0.13 0.15 0.15 0.14 0.13 0.15 0.16 0.16 0.15 0.17 0.17 0.19 0.23 0.36 0.44 0.45 0.50 0.48 0.46 0.44 0.39 0.38 0.37 0.32 0.22 0.25 0.35 0.26 0.10 0.10 0.15 0.32 0.50 0.48 0.65 0.95 1.03 0.97 0.84 0.72
0.15 0.13 0.14 0.15 0.16 0.15 0.14 0.21 0.23 0.24 0.28 0.24 0.33 0.43 0.47 0.54 0.55 0.47 0.70 0.84 0.86 0.92 0.85 0.79 0.94 0.80 0.58 0.46 0.79 1.14 0.45 0.20 0.16 0.19 0.31 0.47 0.72 1.01 1.26 1.19 1.08 0.99 0.87
0.21 0.15 0.18 0.21 0.22 0.22 0.27 0.27 0.31 0.37 0.51 0.47 0.49 0.65 0.82 0.80 0.67 0.57 0.71 0.98 1.17 1.32 1.27 1.37 1.49 1.09 1.02 1.08 1.21 1.21 0.73 0.52 0.38 0.40 0.53 0.78 1.14 1.43 1.57 1.37 1.23 1.15 1.04
0.43 0.37 0.37 0.38 0.43 0.43 0.46 0.48 0.47 0.54 0.70 0.78 0.94 1.02 1.19 1.21 1.06 0.92 0.93 1.05 1.27 1.46 1.80 1.84 1.71 1.60 1.56 1.46 1.37 1.19 1.01 0.97 0.76 0.80 1.02 1.15 1.33 1.53 1.74 1.64 1.43 1.33 1.26
0.74 0.83 0.82 0.72 0.80 0.89 0.92 0.94 0.84 0.91 1.00 1.08 1.28 1.43 1.54 1.70 1.61 1.53 1.44 1.39 1.30 1.48 1.81 2.02 1.94 1.96 1.91 1.80 1.61 1.43 1.26 1.22 1.15 1.18 1.31 1.54 1.60 1.56 1.63 1.75 1.65 1.47 1.38
1.04 1.22 1.26 1.27 1.42 1.46 1.42 1.44 1.41 1.24 1.22 1.25 1.38 1.45 1.65 1.85 2.06 2.13 2.01 1.83 1.54 1.52 1.63 1.97 2.09 2.21 2.09 1.95 1.42 1.34 1.35 1.40 1.40 1.36 1.39 1.87 1.95 1.62 1.49 1.54 1.64 1.63 1.54
1.56 1.63 1.68 1.84 2.00 1.99 1.89 1.74 1.57 1.46 1.45 1.56 1.61 1.59 1.80 2.04 2.22 2.22 1.97 1.65 1.47 1.57 1.67 1.62 1.66 1.95 1.74 1.60 1.43 1.52 1.54 1.44 1.38 1.37 1.38 1.65 1.75 1.50 1.28 1.22 1.36 1.46 1.57
1.96 1.98 2.04 2.06 2.21 2.28 2.22 2.14 1.90 1.71 1.76 1.70 1.62 1.59 1.70 1.91 1.93 1.94 1.58 1.22 1.31 1.53 1.60 1.56 1.51 1.61 1.59 1.62 1.60 1.58 1.54 1.41 1.20 1.14 1.04 0.99 1.09 0.98 1.07 1.24 1.21 1.17 1.37
2.31 2.52 2.64 2.70 2.58 2.57 2.50 2.42 2.23 2.02 1.80 1.59 1.58 1.53 1.45 1.39 1.42 1.49 1.20 1.08 1.23 1.37 1.40 1.37 1.49 1.59 1.47 1.53 1.56 1.46 1.20 1.06 0.92 0.81 0.77 0.69 0.71 0.73 0.72 0.93 1.03 1.08 1.31
2.47 2.87 3.11 3.10 2.85 2.54 2.26 1.97 1.88 1.76 1.66 1.54 1.47 1.36 1.20 1.10 1.11 1.28 1.16 1.07 1.19 1.27 1.22 1.36 1.47 1.56 1.35 1.32 1.27 1.02 0.84 0.63 0.59 0.53 0.45 0.48 0.50 0.49 0.55 0.68 0.92 0.86 1.16
2.48 2.90 3.06 3.00 2.49 1.98 1.73 1.53 1.43 1.30 1.23 1.28 1.28 1.21 1.16 1.07 1.05 1.19 1.09 1.01 1.01 1.02 0.99 1.13 1.26 1.27 1.05 1.26 1.40 0.93 0.64 0.50 0.43 0.33 0.30 0.33 0.35 0.41 0.54 0.71 0.86 0.89 1.01
2.26 2.72 2.73 2.26 1.75 1.42 1.24 1.11 1.00 0.98 0.94 0.91 0.86 0.83 0.81 0.83 0.87 0.95 0.93 0.84 0.80 0.83 0.82 0.90 1.03 1.03 0.91 1.19 1.33 1.19 0.84 0.62 0.49 0.35 0.34 0.34 0.37 0.47 0.53 0.61 0.85 1.02 1.05
1.97 1.97 1.63 1.32 1.04 0.82 0.70 0.65 0.67 0.65 0.62 0.55 0.49 0.48 0.53 0.58 0.60 0.59 0.60 0.65 0.69 0.70 0.71 0.78 0.93 1.05 0.92 0.95 1.18 1.30 1.03 0.72 0.63 0.49 0.48 0.53 0.56 0.63 0.69 0.82 0.93 1.04 1.12
1.34 1.17 0.97 0.83 0.69 0.61 0.59 0.54 0.59 0.53 0.47 0.42 0.36 0.37 0.41 0.43 0.42 0.41 0.44 0.54 0.61 0.66 0.71 0.66 0.71 0.87 0.92 0.84 0.94 1.05 1.07 1.08 1.00 0.72 0.55 0.53 0.60 0.62 0.65 0.70 0.80 0.93 1.00
0.75 0.70 0.58 0.63 0.68 0.62 0.58 0.51 0.48 0.41 0.35 0.31 0.33 0.37 0.42 0.43 0.42 0.38 0.37 0.39 0.49 0.58 0.64 0.66 0.68 0.74 0.81 0.79 0.80 0.85 0.93 1.03 1.02 0.94 0.69 0.53 0.55 0.54 0.61 0.67 0.74 0.80 0.88
0.34 0.35 0.35 0.42 0.50 0.47 0.46 0.43 0.42 0.39 0.36 0.32 0.31 0.33 0.34 0.37 0.39 0.38 0.38 0.40 0.42 0.43 0.47 0.54 0.60 0.66 0.71 0.74 0.74 0.81 0.89 0.88 0.88 0.99 0.86 0.70 0.64 0.58 0.67 0.74 0.85 0.94 0.95

GEFSSE_prec_meanprecacc_102.txt.gz
Total_Precipitation_Accumulation
0.03 0.03 0.06 0.05 0.04 0.04 0.06 0.08 0.09 0.09 0.08 0.07 0.04 0.03 0.02 0.02 0.02 0.02 0.02 0.03 0.04 0.04 0.05 0.06 0.07 0.07 0.07 0.07 0.07 0.05 0.04 0.05 0.08 0.10 0.12 0.14 0.19 0.27 0.35 0.35 0.53 0.44 0.23
0.01 0.03 0.07 0.07 0.06 0.06 0.07 0.08 0.10 0.10 0.10 0.09 0.07 0.05 0.03 0.02 0.02 0.03 0.03 0.04 0.03 0.04 0.04 0.05 0.04 0.04 0.04 0.04 0.04 0.03 0.04 0.07 0.11 0.18 0.23 0.24 0.25 0.33 0.36 0.33 0.57 0.36 0.18
0.01 0.02 0.05 0.08 0.06 0.05 0.06 0.08 0.10 0.10 0.11 0.10 0.08 0.07 0.05 0.03 0.03 0.03 0.04 0.03 0.04 0.04 0.04 0.04 0.03 0.03 0.03 0.03 0.03 0.04 0.05 0.09 0.17 0.31 0.52 0.50 0.24 0.30 0.33 0.30 0.31 0.18 0.14
0.01 0.02 0.03 0.07 0.08 0.06 0.05 0.07 0.09 0.10 0.11 0.09 0.08 0.07 0.06 0.05 0.04 0.04 0.04 0.04 0.05 0.05 0.04 0.03 0.03 0.03 0.02 0.02 0.03 0.04 0.07 0.11 0.21 0.45 0.79 0.51 0.22 0.16 0.21 0.20 0.16 0.11 0.11
0.03 0.02 0.03 0.05 0.06 0.07 0.06 0.07 0.08 0.08 0.09 0.08 0.08 0.06 0.06 0.06 0.06 0.05 0.04 0.04 0.06 0.06 0.04 0.03 0.02 0.02 0.02 0.02 0.03 0.05 0.08 0.13 0.25 0.49 0.53 0.44 0.44 0.20 0.14 0.15 0.15 0.11 0.09
0.04 0.03 0.04 0.06 0.06 0.06 0.06 0.06 0.06 0.07 0.07 0.07 0.06 0.06 0.06 0.06 0.06 0.06 0.06 0.05 0.05 0.06 0.05 0.04 0.03 0.02 0.02 0.02 0.03 0.05 0.09 0.14 0.30 0.35 0.32 0.37 0.43 0.26 0.16 0.21 0.21 0.15 0.10
0.04 0.03 0.04 0.07 0.08 0.08 0.07 0.07 0.07 0.07 0.07 0.07 0.07 0.07 0.06 0.07 0.08 0.07 0.07 0.05 0.06 0.07 0.06 0.04 0.03 0.03 0.03 0.03 0.04 0.06 0.11 0.19 0.29 0.28 0.32 0.50 0.49 0.29 0.27 0.43 0.48 0.34 0.20
0.07 0.05 0.06 0.09 0.10 0.10 0.10 0.10 0.10 0.09 0.09 0.08 0.07 0.07 0.07 0.08 0.09 0.08 0.07 0.07 0.09 0.10 0.09 0.06 0.04 0.04 0.04 0.04 0.05 0.07 0.12 0.16 0.19 0.25 0.32 0.47 0.41 0.35 0.48 0.70 0.72 0.57 0.41
0.16 0.16 0.09 0.07 0.08 0.10 0.14 0.16 0.14 0.12 0.11 0.10 0.08 0.08 0.08 0.09 0.11 0.10 0.11 0.11 0.12 0.14 0.13 0.11 0.07 0.06 0.05 0.05 0.06 0.07 0.12 0.17 0.23 0.31 0.39 0.39 0.28 0.31 0.54 0.73 0.66 0.59 0.51
0.27 0.25 0.16 0.12 0.14 0.12 0.13 0.16 0.18 0.16 0.14 0.12 0.12 0.11 0.11 0.13 0.16 0.17 0.16 0.18 0.19 0.21 0.21 0.20 0.16 0.14 0.14 0.14 0.14 0.13 0.16 0.16 0.18 0.24 0.46 0.53 0.37 0.46 0.72 0.85 0.73 0.65 0.58
0.32 0.26 0.17 0.15 0.16 0.18 0.15 0.14 0.17 0.18 0.18 0.16 0.18 0.18 0.21 0.30 0.44 0.49 0.49 0.52 0.50 0.47 0.45 0.40 0.39 0.38 0.32 0.23 0.26 0.35 0.26 0.12 0.22 0.30 0.51 0.58 0.50 0.66 0.96 1.05 0.98 0.85 0.74
0.33 0.25 0.21 0.18 0.20 0.19 0.18 0.25 0.28 0.29 0.32 0.30 0.42 0.48 0.56 0.69 0.71 0.59 0.78 0.88 0.89 0.95 0.87 0.81 0.96 0.82 0.60 0.51 0.85 1.16 0.47 0.25 0.24 0.31 0.44 0.53 0.75 1.03 1.28 1.23 1.12 1.02 0.90
0.32 0.31 0.32 0.25 0.26 0.29 0.37 0.36 0.39 0.48 0.64 0.61 0.64 0.78 0.96 0.92 0.76 0.68 0.82 1.08 1.25 1.39 1.34 1.44 1.53 1.14 1.08 1.19 1.33 1.26 0.77 0.63 0.52 0.49 0.60 0.84 1.17 1.45 1.59 1.40 1.26 1.19 1.08
0.55 0.52 0.52 0.45 0.50 0.53 0.55 0.56 0.54 0.62 0.80 0.93 1.10 1.16 1.32 1.34 1.18 1.03 1.06 1.26 1.44 1.60 1.91 1.95 1.83 1.67 1.63 1.52 1.43 1.24 1.08 1.06 0.87 0.91 1.11 1.19 1.35 1.55 1.77 1.67 1.47 1.37 1.31
0.90 0.98 0.99 0.83 0.88 0.97 1.03 1.04 0.91 0.99 1.10 1.20 1.42 1.55 1.66 1.81 1.73 1.63 1.53 1.49 1.40 1.58 1.91 2.12 2.04 2.03 1.97 1.86 1.66 1.48 1.30 1.27 1.21 1.27 1.40 1.60 1.62 1.57 1.65 1.79 1.70 1.53 1.44
1.23 1.38 1.44 1.41 1.50 1.53 1.50 1.53 1.51 1.32 1.32 1.34 1.45 1.52 1.72 1.93 2.14 2.20 2.08 1.90 1.61 1.59 1.71 2.05 2.16 2.29 2.18 2.04 1.50 1.42 1.42 1.43 1.45 1.42 1.46 1.95 1.99 1.64 1.51 1.57 1.70 1.71 1.62
1.79 1.81 1.83 1.95 2.09 2.09 1.98 1.82 1.65 1.54 1.51 1.64 1.68 1.66 1.85 2.09 2.28 2.28 2.04 1.71 1.52 1.61 1.71 1.67 1.72 2.02 1.81 1.67 1.48 1.58 1.63 1.53 1.47 1.44 1.45 1.76 1.85 1.55 1.30 1.25 1.39 1.52 1.64
2.24 2.20 2.20 2.18 2.35 2.41 2.34 2.24 1.99 1.79 1.85 1.78 1.67 1.65 1.73 1.93 1.96 1.97 1.62 1.27 1.35 1.56 1.64 1.60 1.56 1.66 1.65 1.68 1.66 1.63 1.61 1.50 1.27 1.19 1.09 1.07 1.18 1.05 1.12 1.27 1.24 1.22 1.44
2.60 2.73 2.81 2.88 2.77 2.72 2.63 2.53 2.33 2.12 1.89 1.65 1.63 1.59 1.48 1.40 1.42 1.51 1.23 1.11 1.25 1.40 1.43 1.40 1.54 1.63 1.51 1.58 1.60 1.49 1.23 1.10 0.96 0.84 0.79 0.72 0.75 0.79 0.78 0.99 1.07 1.12 1.39
2.69 3.05 3.27 3.27 3.03 2.72 2.42 2.10 2.02 1.88 1.76 1.63 1.54 1.42 1.23 1.11 1.12 1.29 1.18 1.08 1.21 1.29 1.25 1.39 1.50 1.58 1.36 1.34 1.28 1.04 0.86 0.65 0.61 0.55 0.47 0.50 0.53 0.52 0.59 0.74 1.00 0.91 1.23
2.66 3.08 3.21 3.16 2.65 2.16 1.92 1.69 1.57 1.43 1.34 1.36 1.33 1.24 1.18 1.08 1.06 1.20 1.10 1.02 1.02 1.03 1.00 1.15 1.27 1.28 1.06 1.26 1.41 0.94 0.65 0.51 0.44 0.34 0.31 0.35 0.37 0.44 0.58 0.77 0.95 1.00 1.14
2.37 2.89 2.87 2.41 1.90 1.57 1.40 1.26 1.14 1.09 1.01 0.96 0.89 0.86 0.82 0.83 0.88 0.95 0.94 0.85 0.81 0.83 0.82 0.90 1.04 1.03 0.92 1.19 1.33 1.20 0.85 0.63 0.50 0.35 0.34 0.35 0.38 0.49 0.56 0.65 0.89 1.08 1.13
2.05 2.08 1.75 1.45 1.17 0.94 0.82 0.77 0.77 0.74 0.68 0.60 0.53 0.52 0.55 0.59 0.60 0.59 0.61 0.65 0.70 0.70 0.72 0.78 0.94 1.05 0.93 0.96 1.19 1.31 1.05 0.74 0.64 0.50 0.49 0.53 0.57 0.64 0.70 0.84 0.96 1.07 1.16
1.40 1.26 1.09 0.96 0.81 0.71 0.70 0.64 0.67 0.59 0.53 0.47 0.40 0.40 0.42 0.44 0.43 0.41 0.44 0.54 0.61 0.67 0.71 0.66 0.71 0.87 0.93 0.85 0.95 1.06 1.08 1.08 1.02 0.73 0.55 0.53 0.60 0.63 0.66 0.71 0.81 0.96 1.03
0.80 0.78 0.68 0.73 0.78 0.70 0.66 0.61 0.57 0.48 0.40 0.35 0.36 0.40 0.44 0.44 0.42 0.39 0.38 0.40 0.50 0.58 0.64 0.66 0.68 0.74 0.81 0.79 0.81 0.86 0.93 1.03 1.03 0.94 0.69 0.54 0.55 0.54 0.61 0.67 0.74 0.81 0.89
0.38 0.42 0.43 0.51 0.59 0.54 0.52 0.50 0.48 0.45 0.42 0.37 0.35 0.35 0.35 0.38 0.39 0.39 0.38 0.41 0.43 0.44 0.47 0.55 0.61 0.66 0.72 0.74 0.74 0.81 0.89 0.88 0.88 0.99 0.86 0.70 0.64 0.58 0.67 0.74 0.85 0.94 0.96

GEFSSE_prec_meanprecacc_108.txt.gz
Total_Precipitation_Accumulation
0.04 0.04 0.07 0.05 0.04 0.04 0.06 0.08 0.10 0.10 0.08 0.07 0.05 0.03 0.02 0.02 0.02 0.03 0.03 0.04 0.04 0.05 0.05 0.07 0.08 0.08 0.08 0.08 0.08 0.07 0.07 0.10 0.12 0.14 0.16 0.19 0.23 0.31 0.39 0.40 0.56 0.46 0.25
0.01 0.03 0.07 0.07 0.06 0.06 0.07 0.09 0.10 0.10 0.10 0.09 0.08 0.05 0.03 0.03 0.03 0.03 0.04 0.04 0.04 0.05 0.05 0.05 0.05 0.05 0.04 0.05 0.06 0.05 0.07 0.11 0.16 0.24 0.28 0.28 0.29 0.38 0.42 0.38 0.60 0.38 0.20
0.01 0.02 0.05 0.08 0.06 0.05 0.06 0.08 0.10 0.11 0.12 0.10 0.08 0.07 0.05 0.04 0.04 0.04 0.04 0.04 0.05 0.05 0.05 0.04 0.04 0.04 0.03 0.04 0.04 0.06 0.08 0.13 0.24 0.39 0.57 0.52 0.27 0.35 0.38 0.34 0.35 0.20 0.16
0.02 0.02 0.03 0.07 0.08 0.06 0.06 0.08 0.10 0.11 0.11 0.10 0.08 0.07 0.07 0.06 0.05 0.05 0.05 0.05 0.06 0.06 0.04 0.04 0.03 0.03 0.03 0.03 0.04 0.07 0.10 0.16 0.28 0.54 0.84 0.53 0.23 0.20 0.24 0.21 0.18 0.13 0.13
0.04 0.02 0.03 0.05 0.07 0.07 0.06 0.07 0.08 0.09 0.09 0.09 0.08 0.07 0.06 0.06 0.06 0.06 0.05 0.06 0.07 0.07 0.05 0.04 0.03 0.02 0.02 0.03 0.04 0.07 0.12 0.19 0.35 0.60 0.60 0.46 0.45 0.22 0.16 0.17 0.16 0.12 0.11
0.04 0.03 0.04 0.06 0.07 0.07 0.06 0.06 0.07 0.07 0.08 0.08 0.07 0.06 0.06 0.07 0.07 0.07 0.07 0.06 0.07 0.07 0.05 0.04 0.03 0.02 0.03 0.04 0.05 0.08 0.13 0.24 0.40 0.42 0.39 0.40 0.43 0.27 0.17 0.22 0.22 0.16 0.12
0.06 0.04 0.05 0.08 0.09 0.08 0.08 0.07 0.07 0.07 0.07 0.08 0.08 0.07 0.06 0.07 0.08 0.08 0.08 0.06 0.07 0.08 0.06 0.05 0.03 0.03 0.04 0.04 0.06 0.09 0.16 0.29 0.39 0.37 0.38 0.52 0.50 0.30 0.29 0.44 0.49 0.35 0.21
0.18 0.10 0.08 0.11 0.12 0.11 0.10 0.10 0.10 0.10 0.09 0.08 0.08 0.08 0.07 0.08 0.09 0.08 0.08 0.08 0.10 0.11 0.09 0.06 0.04 0.04 0.04 0.05 0.07 0.09 0.17 0.24 0.29 0.38 0.41 0.51 0.43 0.37 0.49 0.70 0.73 0.58 0.42
0.27 0.22 0.17 0.13 0.12 0.13 0.15 0.16 0.14 0.12 0.12 0.10 0.09 0.09 0.08 0.10 0.11 0.11 0.11 0.12 0.13 0.14 0.14 0.11 0.07 0.06 0.06 0.06 0.08 0.10 0.17 0.26 0.36 0.47 0.53 0.47 0.32 0.34 0.56 0.73 0.67 0.60 0.52
0.36 0.32 0.29 0.24 0.19 0.16 0.15 0.17 0.18 0.17 0.15 0.12 0.12 0.12 0.12 0.14 0.16 0.18 0.17 0.18 0.20 0.22 0.21 0.20 0.17 0.15 0.15 0.14 0.15 0.16 0.21 0.23 0.43 0.48 0.65 0.67 0.42 0.49 0.75 0.86 0.73 0.66 0.59
0.52 0.35 0.26 0.28 0.27 0.22 0.18 0.16 0.18 0.18 0.18 0.17 0.19 0.20 0.22 0.32 0.45 0.51 0.50 0.53 0.51 0.48 0.45 0.41 0.40 0.38 0.33 0.23 0.28 0.38 0.30 0.21 0.44 0.56 0.66 0.69 0.55 0.71 1.00 1.07 0.99 0.86 0.75
0.71 0.41 0.33 0.28 0.28 0.24 0.21 0.28 0.30 0.30 0.33 0.31 0.43 0.50 0.58 0.72 0.74 0.62 0.82 0.91 0.90 0.96 0.87 0.82 0.97 0.83 0.61 0.53 0.87 1.20 0.51 0.34 0.42 0.54 0.57 0.61 0.82 1.09 1.33 1.26 1.13 1.03 0.92
0.59 0.57 0.53 0.38 0.37 0.35 0.42 0.40 0.42 0.51 0.65 0.62 0.66 0.80 0.99 0.95 0.80 0.71 0.85 1.11 1.27 1.40 1.35 1.45 1.54 1.16 1.10 1.23 1.37 1.31 0.82 0.73 0.75 0.74 0.76 0.95 1.26 1.52 1.65 1.44 1.29 1.20 1.10
0.81 0.87 0.95 0.71 0.70 0.65 0.66 0.63 0.59 0.64 0.81 0.95 1.11 1.17 1.34 1.36 1.21 1.06 1.08 1.28 1.46 1.62 1.94 1.96 1.84 1.69 1.65 1.57 1.48 1.30 1.16 1.16 1.08 1.19 1.37 1.32 1.44 1.64 1.84 1.72 1.51 1.40 1.33
1.37 1.45 1.45 1.16 1.10 1.10 1.14 1.11 0.97 1.03 1.12 1.22 1.43 1.56 1.67 1.82 1.74 1.64 1.56 1.51 1.42 1.60 1.93 2.14 2.06 2.05 1.99 1.89 1.70 1.52 1.37 1.34 1.32 1.42 1.52 1.70 1.70 1.65 1.73 1.86 1.75 1.58 1.48
1.83 1.91 1.89 1.76 1.76 1.68 1.61 1.62 1.58 1.36 1.36 1.38 1.47 1.54 1.72 1.93 2.14 2.20 2.10 1.92 1.63 1.61 1.73 2.06 2.18 2.30 2.19 2.05 1.52 1.44 1.45 1.47 1.51 1.50 1.55 2.01 2.05 1.69 1.57 1.64 1.76 1.78 1.67
2.49 2.39 2.30 2.28 2.44 2.31 2.10 1.91 1.71 1.63 1.64 1.70 1.71 1.67 1.86 2.09 2.29 2.29 2.05 1.73 1.54 1.63 1.73 1.69 1.73 2.03 1.82 1.68 1.49 1.59 1.64 1.54 1.50 1.49 1.52 1.81 1.89 1.59 1.36 1.30 1.45 1.59 1.70
3.03 2.81 2.65 2.48 2.63 2.60 2.46 2.33 2.05 1.86 1.93 1.83 1.70 1.66 1.74 1.94 1.96 1.98 1.63 1.28 1.36 1.57 1.66 1.62 1.57 1.67 1.66 1.69 1.67 1.64 1.62 1.52 1.29 1.22 1.13 1.12 1.23 1.08 1.15 1.31 1.29 1.27 1.51
3.39 3.40 3.31 3.25 3.04 2.88 2.75 2.63 2.39 2.16 1.91 1.67 1.65 1.60 1.49 1.41 1.43 1.51 1.23 1.11 1.26 1.40 1.44 1.41 1.55 1.64 1.52 1.58 1.60 1.49 1.24 1.11 0.97 0.86 0.82 0.75 0.79 0.83 0.81 1.02 1.11 1.17 1.46
3.28 3.66 3.79 3.66 3.29 2.86 2.53 2.21 2.11 1.94 1.80 1.65 1.55 1.42 1.23 1.11 1.12 1.29 1.18 1.08 1.21 1.29 1.26 1.40 1.51 1.58 1.36 1.34 1.28 1.04 0.87 0.66 0.61 0.56 0.48 0.52 0.55 0.55 0.64 0.77 1.02 0.94 1.29
3.00 3.43 3.59 3.55 2.89 2.27 2.00 1.77 1.66 1.50 1.37 1.38 1.34 1.25 1.18 1.08 1.06 1.20 1.10 1.02 1.02 1.04 1.01 1.15 1.27 1.28 1.06 1.26 1.41 0.94 0.65 0.51 0.44 0.34 0.32 0.36 0.39 0.47 0.62 0.82 1.01 1.02 1.16
2.60 3.05 3.07 2.63 2.09 1.67 1.46 1.32 1.21 1.16 1.05 0.97 0.90 0.87 0.83 0.83 0.88 0.96 0.94 0.85 0.81 0.84 0.83 0.90 1.04 1.04 0.92 1.19 1.33 1.20 0.85 0.63 0.50 0.35 0.35 0.36 0.40 0.51 0.58 0.68 0.95 1.10 1.14
2.29 2.23 1.86 1.55 1.28 1.02 0.88 0.83 0.84 0.81 0.71 0.61 0.54 0.52 0.55 0.59 0.60 0.60 0.61 0.65 0.70 0.70 0.72 0.78 0.94 1.05 0.93 0.96 1.19 1.31 1.05 0.74 0.65 0.50 0.49 0.53 0.57 0.64 0.71 0.85 0.97 1.08 1.17
1.61 1.39 1.17 1.02 0.88 0.77 0.75 0.70 0.74 0.63 0.54 0.48 0.40 0.40 0.42 0.44 0.43 0.42 0.44 0.55 0.61 0.67 0.71 0.66 0.71 0.87 0.93 0.85 0.95 1.06 1.08 1.08 1.02 0.74 0.56 0.53 0.60 0.63 0.66 0.71 0.81 0.96 1.04
0.98 0.88 0.75 0.80 0.85 0.77 0.71 0.65 0.62 0.51 0.42 0.36 0.37 0.41 0.44 0.44 0.42 0.39 0.38 0.40 0.50 0.58 0.64 0.66 0.69 0.74 0.81 0.79 0.81 0.86 0.93 1.03 1.03 0.94 0.69 0.54 0.55 0.54 0.61 0.67 0.74 0.81 0.89
0.51 0.52 0.51 0.58 0.67 0.62 0.59 0.56 0.53 0.48 0.43 0.38 0.35 0.36 0.35 0.38 0.39 0.39 0.38 0.41 0.43 0.44 0.47 0.55 0.61 0.66 0.72 0.74 0.74 0.81 0.89 0.88 0.88 0.99 0.86 0.70 0.64 0.58 0.67 0.74 0.85 0.94 0.96

GEFSSE_prec_meanprecacc_114.txt.gz
Total_Precipitation_Accumulation
0.06 0.05 0.08 0.07 0.05 0.05 0.07 0.09 0.10 0.10 0.08 0.07 0.05 0.04 0.02 0.02 0.02 0.03 0.03 0.04 0.05 0.06 0.06 0.08 0.09 0.09 0.09 0.10 0.10 0.10 0.11 0.13 0.15 0.16 0.19 0.23 0.27 0.35 0.45 0.45 0.59 0.47 0.28
0.02 0.03 0.09 0.08 0.06 0.06 0.08 0.09 0.11 0.11 0.10 0.09 0.08 0.06 0.03 0.03 0.03 0.03 0.04 0.05 0.05 0.05 0.06 0.06 0.06 0.06 0.05 0.06 0.07 0.07 0.09 0.13 0.19 0.28 0.33 0.33 0.36 0.45 0.48 0.41 0.62 0.40 0.23
0.01 0.02 0.06 0.09 0.07 0.06 0.07 0.09 0.11 0.11 0.12 0.10 0.09 0.07 0.05 0.04 0.04 0.05 0.05 0.05 0.05 0.06 0.06 0.05 0.05 0.04 0.04 0.04 0.05 0.07 0.09 0.16 0.27 0.43 0.61 0.54 0.32 0.43 0.42 0.38 0.38 0.22 0.18
0.02 0.02 0.03 0.08 0.08 0.06 0.06 0.08 0.10 0.11 0.11 0.10 0.08 0.07 0.07 0.06 0.05 0.06 0.05 0.06 0.08 0.07 0.05 0.04 0.04 0.04 0.03 0.04 0.06 0.09 0.13 0.19 0.33 0.57 0.85 0.53 0.25 0.24 0.27 0.25 0.21 0.15 0.14
0.04 0.02 0.03 0.06 0.07 0.07 0.07 0.07 0.08 0.09 0.10 0.09 0.08 0.07 0.07 0.07 0.07 0.07 0.07 0.08 0.09 0.07 0.05 0.04 0.03 0.03 0.03 0.04 0.06 0.09 0.15 0.23 0.39 0.61 0.60 0.46 0.46 0.25 0.18 0.19 0.18 0.14 0.12
0.05 0.04 0.06 0.07 0.08 0.08 0.07 0.07 0.07 0.08 0.08 0.08 0.08 0.07 0.07 0.07 0.07 0.08 0.08 0.08 0.09 0.08 0.06 0.05 0.03 0.03 0.04 0.05 0.07 0.12 0.18 0.29 0.43 0.42 0.39 0.40 0.44 0.29 0.18 0.24 0.24 0.17 0.13
0.10 0.08 0.08 0.10 0.11 0.09 0.08 0.07 0.08 0.07 0.08 0.08 0.08 0.08 0.07 0.08 0.09 0.08 0.09 0.07 0.09 0.08 0.07 0.05 0.04 0.04 0.05 0.06 0.08 0.13 0.21 0.35 0.41 0.37 0.38 0.53 0.50 0.31 0.30 0.45 0.51 0.37 0.23
0.25 0.18 0.12 0.15 0.15 0.13 0.12 0.11 0.11 0.10 0.10 0.09 0.08 0.08 0.08 0.09 0.10 0.09 0.09 0.08 0.11 0.12 0.09 0.07 0.05 0.04 0.05 0.06 0.09 0.13 0.22 0.27 0.29 0.38 0.41 0.51 0.43 0.37 0.50 0.72 0.74 0.59 0.43
0.33 0.30 0.23 0.17 0.16 0.16 0.18 0.18 0.16 0.13 0.13 0.11 0.09 0.09 0.09 0.10 0.12 0.12 0.12 0.12 0.13 0.15 0.15 0.12 0.08 0.07 0.07 0.07 0.09 0.13 0.21 0.30 0.36 0.47 0.53 0.48 0.34 0.35 0.57 0.74 0.67 0.61 0.53
0.42 0.37 0.35 0.29 0.24 0.19 0.18 0.20 0.21 0.19 0.16 0.13 0.13 0.13 0.14 0.16 0.18 0.19 0.18 0.19 0.21 0.22 0.22 0.21 0.18 0.16 0.16 0.16 0.17 0.19 0.25 0.26 0.43 0.48 0.66 0.67 0.45 0.51 0.76 0.87 0.75 0.67 0.60
0.60 0.42 0.34 0.36 0.32 0.25 0.20 0.19 0.21 0.22 0.21 0.18 0.20 0.21 0.24 0.33 0.46 0.52 0.51 0.54 0.52 0.49 0.47 0.42 0.42 0.40 0.34 0.25 0.30 0.42 0.33 0.22 0.45 0.57 0.66 0.70 0.58 0.74 1.02 1.09 1.01 0.88 0.77
0.84 0.53 0.42 0.34 0.33 0.28 0.23 0.30 0.32 0.33 0.36 0.33 0.45 0.52 0.60 0.73 0.75 0.63 0.84 0.94 0.92 0.98 0.89 0.84 0.99 0.85 0.62 0.53 0.88 1.22 0.53 0.35 0.43 0.55 0.58 0.63 0.85 1.13 1.37 1.29 1.16 1.06 0.95
0.83 0.82 0.71 0.49 0.44 0.42 0.47 0.42 0.44 0.52 0.67 0.64 0.67 0.82 1.01 0.96 0.81 0.72 0.87 1.15 1.31 1.43 1.37 1.46 1.55 1.16 1.11 1.24 1.38 1.32 0.83 0.74 0.76 0.75 0.77 0.98 1.30 1.57 1.71 1.49 1.33 1.24 1.13
1.09 1.14 1.19 0.85 0.80 0.73 0.74 0.68 0.62 0.66 0.83 0.96 1.13 1.19 1.35 1.37 1.22 1.07 1.10 1.31 1.49 1.65 1.95 1.97 1.85 1.70 1.67 1.58 1.49 1.31 1.16 1.16 1.10 1.20 1.39 1.35 1.48 1.70 1.89 1.78 1.57 1.45 1.37
1.67 1.65 1.65 1.30 1.20 1.18 1.22 1.18 1.02 1.06 1.14 1.24 1.45 1.58 1.68 1.83 1.77 1.67 1.58 1.54 1.45 1.63 1.95 2.15 2.08 2.07 2.02 1.90 1.71 1.53 1.39 1.35 1.32 1.43 1.53 1.73 1.73 1.70 1.80 1.92 1.82 1.64 1.54
2.10 2.12 2.07 1.89 1.87 1.76 1.69 1.69 1.63 1.40 1.38 1.39 1.50 1.56 1.74 1.95 2.16 2.24 2.13 1.95 1.65 1.63 1.74 2.07 2.20 2.32 2.21 2.07 1.54 1.46 1.47 1.48 1.52 1.51 1.56 2.03 2.09 1.73 1.63 1.71 1.84 1.85 1.75
2.79 2.64 2.52 2.42 2.55 2.41 2.18 1.98 1.77 1.67 1.67 1.72 1.74 1.71 1.89 2.12 2.31 2.31 2.09 1.77 1.57 1.65 1.74 1.70 1.75 2.05 1.84 1.70 1.51 1.60 1.65 1.55 1.51 1.51 1.54 1.83 1.91 1.63 1.41 1.36 1.53 1.68 1.81
3.46 3.18 2.94 2.64 2.74 2.74 2.57 2.40 2.10 1.92 1.98 1.87 1.73 1.69 1.78 1.98 1.99 2.00 1.66 1.30 1.38 1.59 1.67 1.63 1.58 1.69 1.68 1.71 1.68 1.64 1.62 1.52 1.30 1.24 1.15 1.14 1.24 1.10 1.18 1.37 1.36 1.34 1.60
3.74 3.76 3.60 3.48 3.19 3.02 2.89 2.74 2.49 2.26 1.99 1.73 1.68 1.63 1.52 1.45 1.45 1.53 1.25 1.12 1.27 1.41 1.45 1.42 1.56 1.65 1.53 1.60 1.61 1.50 1.24 1.11 0.98 0.87 0.83 0.76 0.80 0.84 0.83 1.05 1.16 1.22 1.54
3.63 4.03 4.10 3.89 3.48 3.02 2.68 2.36 2.25 2.07 1.89 1.71 1.58 1.45 1.26 1.15 1.14 1.30 1.20 1.09 1.22 1.30 1.27 1.41 1.52 1.60 1.37 1.35 1.30 1.05 0.87 0.66 0.62 0.57 0.49 0.53 0.56 0.56 0.65 0.80 1.04 0.97 1.36
3.38 3.86 3.96 3.83 3.12 2.46 2.15 1.91 1.79 1.61 1.45 1.44 1.38 1.27 1.20 1.10 1.08 1.21 1.11 1.02 1.02 1.04 1.01 1.16 1.28 1.29 1.07 1.27 1.42 0.95 0.65 0.52 0.45 0.35 0.33 0.37 0.40 0.48 0.64 0.84 1.03 1.04 1.20
2.97 3.46 3.42 2.92 2.35 1.90 1.64 1.49 1.36 1.29 1.16 1.06 0.96 0.91 0.86 0.86 0.89 0.96 0.94 0.85 0.81 0.84 0.83 0.90 1.04 1.04 0.93 1.20 1.34 1.20 0.85 0.63 0.50 0.36 0.36 0.37 0.41 0.52 0.59 0.70 0.97 1.11 1.16
2.64 2.64 2.20 1.81 1.49 1.25 1.10 1.01 1.00 0.94 0.82 0.67 0.58 0.55 0.58 0.62 0.62 0.61 0.61 0.65 0.70 0.70 0.72 0.78 0.94 1.07 0.94 0.97 1.19 1.31 1.05 0.74 0.65 0.50 0.49 0.53 0.58 0.65 0.72 0.86 0.98 1.09 1.18
1.89 1.71 1.49 1.28 1.06 0.95 0.92 0.84 0.84 0.71 0.61 0.52 0.43 0.43 0.44 0.45 0.44 0.43 0.45 0.55 0.62 0.67 0.71 0.67 0.72 0.88 0.93 0.85 0.95 1.06 1.08 1.08 1.02 0.74 0.56 0.53 0.60 0.63 0.66 0.71 0.81 0.96 1.04
1.24 1.17 1.02 1.06 1.04 0.93 0.85 0.77 0.73 0.59 0.48 0.41 0.42 0.45 0.46 0.45 0.43 0.39 0.39 0.41 0.50 0.58 0.64 0.66 0.69 0.74 0.81 0.80 0.81 0.86 0.93 1.03 1.03 0.94 0.69 0.54 0.55 0.54 0.61 0.67 0.74 0.81 0.89
0.71 0.75 0.75 0.79 0.86 0.77 0.73 0.70 0.65 0.57 0.50 0.43 0.40 0.39 0.38 0.39 0.39 0.39 0.39 0.41 0.43 0.44 0.48 0.55 0.61 0.66 0.72 0.74 0.74 0.81 0.89 0.88 0.88 0.99 0.86 0.70 0.64 0.58 0.67 0.74 0.85 0.94 0.96

GEFSSE_prec_meanprecacc_120.txt.gz
Total_Precipitation_Accumulation
0.06 0.05 0.09 0.08 0.06 0.06 0.08 0.11 0.12 0.12 0.09 0.08 0.06 0.04 0.02 0.02 0.03 0.03 0.03 0.05 0.06 0.07 0.08 0.10 0.11 0.10 0.10 0.11 0.12 0.12 0.14 0.16 0.18 0.19 0.22 0.25 0.30 0.40 0.51 0.52 0.64 0.51 0.30
0.02 0.04 0.10 0.10 0.07 0.07 0.09 0.11 0.12 0.11 0.11 0.10 0.08 0.06 0.04 0.03 0.03 0.04 0.05 0.06 0.06 0.07 0.07 0.07 0.07 0.06 0.06 0.07 0.09 0.09 0.12 0.16 0.22 0.31 0.36 0.36 0.40 0.52 0.54 0.47 0.68 0.43 0.26
0.02 0.03 0.07 0.11 0.08 0.07 0.07 0.09 0.11 0.11 0.12 0.10 0.09 0.08 0.06 0.04 0.04 0.05 0.06 0.06 0.06 0.07 0.06 0.05 0.05 0.05 0.05 0.05 0.06 0.08 0.11 0.18 0.30 0.46 0.65 0.60 0.35 0.48 0.47 0.41 0.41 0.24 0.21
0.02 0.02 0.03 0.09 0.09 0.07 0.06 0.09 0.10 0.11 0.11 0.10 0.09 0.08 0.07 0.07 0.06 0.06 0.06 0.07 0.09 0.08 0.06 0.05 0.04 0.04 0.04 0.05 0.07 0.09 0.14 0.21 0.34 0.58 0.89 0.57 0.28 0.27 0.31 0.28 0.25 0.18 0.17
0.04 0.03 0.04 0.06 0.08 0.08 0.08 0.08 0.09 0.09 0.10 0.09 0.09 0.08 0.07 0.07 0.08 0.07 0.08 0.10 0.10 0.08 0.06 0.05 0.04 0.03 0.03 0.05 0.07 0.10 0.16 0.24 0.40 0.62 0.63 0.52 0.53 0.29 0.21 0.22 0.21 0.16 0.14
0.06 0.05 0.07 0.09 0.08 0.08 0.07 0.07 0.07 0.08 0.08 0.09 0.08 0.08 0.07 0.08 0.08 0.09 0.09 0.10 0.10 0.09 0.07 0.05 0.04 0.03 0.05 0.06 0.08 0.13 0.20 0.31 0.44 0.43 0.41 0.44 0.49 0.34 0.22 0.27 0.26 0.20 0.16
0.13 0.10 0.11 0.14 0.13 0.11 0.09 0.09 0.09 0.08 0.08 0.09 0.09 0.09 0.08 0.08 0.10 0.10 0.10 0.09 0.11 0.09 0.08 0.06 0.05 0.05 0.07 0.07 0.10 0.15 0.24 0.38 0.42 0.38 0.39 0.56 0.54 0.35 0.34 0.49 0.54 0.39 0.26
0.28 0.20 0.15 0.18 0.18 0.16 0.14 0.13 0.12 0.11 0.11 0.10 0.09 0.09 0.09 0.10 0.11 0.10 0.10 0.09 0.12 0.13 0.10 0.07 0.05 0.06 0.08 0.09 0.12 0.17 0.26 0.30 0.30 0.38 0.42 0.54 0.46 0.40 0.52 0.74 0.78 0.62 0.46
0.34 0.33 0.27 0.20 0.18 0.19 0.21 0.22 0.19 0.15 0.14 0.12 0.11 0.10 0.09 0.11 0.13 0.13 0.13 0.14 0.14 0.16 0.15 0.12 0.09 0.09 0.09 0.11 0.13 0.16 0.24 0.32 0.38 0.49 0.54 0.50 0.36 0.38 0.60 0.77 0.70 0.64 0.56
0.45 0.42 0.41 0.35 0.29 0.23 0.22 0.25 0.25 0.22 0.20 0.16 0.15 0.14 0.14 0.17 0.18 0.20 0.19 0.20 0.22 0.23 0.23 0.23 0.20 0.18 0.18 0.20 0.22 0.24 0.29 0.28 0.44 0.49 0.67 0.69 0.47 0.55 0.80 0.90 0.78 0.71 0.64
0.65 0.49 0.40 0.42 0.38 0.32 0.25 0.23 0.26 0.27 0.26 0.23 0.24 0.23 0.25 0.35 0.48 0.53 0.52 0.55 0.53 0.50 0.48 0.44 0.44 0.43 0.36 0.28 0.35 0.48 0.36 0.23 0.46 0.58 0.68 0.71 0.61 0.78 1.07 1.13 1.05 0.92 0.81
0.87 0.59 0.51 0.43 0.40 0.34 0.27 0.34 0.38 0.39 0.42 0.38 0.49 0.55 0.62 0.76 0.78 0.65 0.86 0.96 0.93 0.98 0.90 0.86 1.01 0.86 0.64 0.56 0.92 1.25 0.54 0.36 0.44 0.56 0.59 0.65 0.89 1.20 1.44 1.34 1.21 1.11 1.00
0.89 0.90 0.82 0.61 0.53 0.49 0.53 0.46 0.49 0.58 0.73 0.69 0.71 0.85 1.04 0.99 0.83 0.74 0.89 1.19 1.34 1.45 1.39 1.47 1.56 1.17 1.12 1.27 1.42 1.35 0.84 0.75 0.76 0.76 0.79 1.01 1.35 1.64 1.78 1.55 1.38 1.30 1.20
1.20 1.35 1.42 1.00 0.90 0.80 0.79 0.74 0.66 0.70 0.87 1.00 1.16 1.22 1.38 1.40 1.25 1.10 1.13 1.35 1.53 1.69 1.99 1.99 1.87 1.71 1.68 1.59 1.52 1.33 1.18 1.17 1.10 1.22 1.42 1.38 1.51 1.75 1.95 1.82 1.61 1.50 1.44
1.77 1.87 2.06 1.54 1.31 1.26 1.28 1.23 1.05 1.08 1.18 1.28 1.49 1.61 1.71 1.87 1.81 1.71 1.63 1.58 1.49 1.66 1.98 2.17 2.09 2.08 2.03 1.92 1.72 1.56 1.43 1.37 1.34 1.45 1.57 1.77 1.77 1.74 1.85 1.98 1.87 1.70 1.60
2.21 2.30 2.39 2.15 2.01 1.85 1.75 1.74 1.67 1.43 1.43 1.44 1.55 1.60 1.78 1.99 2.21 2.29 2.18 2.00 1.71 1.68 1.78 2.10 2.21 2.35 2.24 2.11 1.57 1.49 1.49 1.51 1.55 1.54 1.60 2.09 2.14 1.77 1.67 1.77 1.91 1.92 1.81
2.93 2.81 2.75 2.62 2.73 2.54 2.27 2.04 1.82 1.72 1.73 1.78 1.80 1.76 1.93 2.17 2.36 2.36 2.15 1.83 1.62 1.70 1.79 1.74 1.79 2.09 1.88 1.74 1.54 1.64 1.68 1.59 1.55 1.54 1.58 1.90 1.98 1.68 1.45 1.42 1.60 1.76 1.89
3.63 3.37 3.14 2.79 2.90 2.89 2.68 2.47 2.18 2.00 2.06 1.96 1.81 1.74 1.81 2.02 2.04 2.06 1.72 1.35 1.42 1.63 1.71 1.68 1.64 1.73 1.71 1.74 1.72 1.68 1.65 1.55 1.33 1.26 1.18 1.20 1.33 1.16 1.24 1.41 1.40 1.40 1.66
3.90 3.92 3.78 3.64 3.34 3.17 3.02 2.83 2.58 2.36 2.08 1.82 1.75 1.68 1.57 1.50 1.51 1.60 1.32 1.19 1.31 1.44 1.48 1.45 1.60 1.69 1.57 1.63 1.64 1.53 1.26 1.14 1.01 0.89 0.86 0.81 0.87 0.92 0.93 1.11 1.19 1.25 1.58
3.77 4.19 4.26 4.06 3.65 3.19 2.83 2.50 2.36 2.18 1.99 1.79 1.65 1.49 1.29 1.19 1.21 1.37 1.26 1.14 1.25 1.33 1.30 1.44 1.56 1.63 1.41 1.38 1.31 1.07 0.89 0.67 0.63 0.58 0.51 0.57 0.61 0.62 0.70 0.86 1.12 1.01 1.39
3.46 3.98 4.08 3.99 3.26 2.60 2.28 2.03 1.90 1.71 1.52 1.51 1.45 1.32 1.26 1.15 1.12 1.28 1.17 1.07 1.06 1.08 1.04 1.18 1.31 1.31 1.08 1.28 1.43 0.97 0.67 0.52 0.45 0.36 0.35 0.40 0.43 0.50 0.67 0.89 1.09 1.10 1.24
3.04 3.56 3.53 3.05 2.48 2.04 1.74 1.59 1.47 1.39 1.25 1.14 1.02 0.96 0.92 0.92 0.95 1.02 1.00 0.88 0.85 0.88 0.85 0.93 1.06 1.06 0.94 1.20 1.35 1.22 0.87 0.66 0.52 0.37 0.37 0.38 0.42 0.54 0.62 0.73 1.01 1.16 1.20
2.70 2.73 2.30 1.93 1.63 1.38 1.21 1.13 1.12 1.05 0.93 0.75 0.63 0.59 0.63 0.67 0.68 0.66 0.66 0.69 0.73 0.73 0.74 0.81 0.96 1.08 0.95 0.97 1.19 1.33 1.06 0.76 0.67 0.51 0.50 0.54 0.59 0.68 0.75 0.88 1.01 1.12 1.21
1.95 1.81 1.63 1.42 1.21 1.08 1.04 0.96 0.96 0.82 0.70 0.59 0.49 0.49 0.50 0.51 0.49 0.47 0.49 0.58 0.65 0.69 0.74 0.68 0.72 0.89 0.94 0.86 0.95 1.06 1.08 1.09 1.03 0.76 0.57 0.54 0.61 0.65 0.68 0.73 0.83 0.99 1.07
1.29 1.26 1.15 1.23 1.21 1.07 0.98 0.90 0.86 0.73 0.60 0.50 0.49 0.53 0.52 0.50 0.47 0.43 0.42 0.44 0.53 0.60 0.66 0.68 0.69 0.75 0.81 0.80 0.81 0.86 0.93 1.04 1.03 0.95 0.71 0.55 0.55 0.54 0.61 0.68 0.77 0.83 0.91
0.75 0.82 0.86 0.94 1.01 0.92 0.84 0.80 0.78 0.70 0.61 0.51 0.47 0.47 0.44 0.44 0.44 0.43 0.42 0.44 0.45 0.46 0.49 0.56 0.62 0.67 0.72 0.75 0.74 0.81 0.89 0.88 0.88 0.99 0.87 0.71 0.65 0.59 0.67 0.75 0.86 0.95 0.96

GEFSSE_prec_meanprecacc_126.txt.gz
Total_Precipitation_Accumulation
0.06 0.05 0.09 0.08 0.07 0.06 0.09 0.12 0.14 0.14 0.12 0.09 0.06 0.05 0.03 0.02 0.03 0.04 0.04 0.06 0.07 0.09 0.11 0.13 0.14 0.13 0.12 0.12 0.13 0.14 0.17 0.19 0.19 0.20 0.24 0.28 0.33 0.42 0.56 0.59 0.76 0.56 0.34
0.02 0.04 0.10 0.10 0.08 0.07 0.09 0.11 0.14 0.13 0.12 0.11 0.10 0.07 0.04 0.04 0.04 0.04 0.06 0.08 0.08 0.09 0.10 0.09 0.08 0.08 0.07 0.08 0.10 0.11 0.15 0.17 0.24 0.33 0.40 0.40 0.44 0.56 0.62 0.57 0.79 0.47 0.30
0.02 0.03 0.07 0.11 0.08 0.07 0.08 0.10 0.13 0.12 0.13 0.12 0.11 0.09 0.06 0.05 0.05 0.06 0.08 0.08 0.09 0.09 0.08 0.07 0.07 0.06 0.06 0.07 0.08 0.11 0.13 0.19 0.33 0.53 0.79 0.69 0.37 0.53 0.56 0.50 0.46 0.27 0.24
0.02 0.02 0.03 0.09 0.09 0.07 0.07 0.09 0.12 0.12 0.13 0.12 0.10 0.10 0.08 0.08 0.07 0.08 0.08 0.09 0.11 0.10 0.07 0.07 0.05 0.05 0.05 0.06 0.08 0.11 0.16 0.23 0.41 0.75 1.12 0.68 0.31 0.30 0.37 0.34 0.29 0.22 0.19
0.04 0.03 0.04 0.07 0.08 0.09 0.08 0.09 0.09 0.10 0.11 0.11 0.10 0.09 0.09 0.10 0.10 0.09 0.10 0.12 0.12 0.10 0.08 0.07 0.05 0.04 0.05 0.06 0.08 0.11 0.18 0.27 0.49 0.85 0.83 0.68 0.60 0.32 0.25 0.27 0.25 0.20 0.17
0.06 0.05 0.07 0.09 0.09 0.09 0.08 0.08 0.08 0.09 0.09 0.10 0.10 0.10 0.10 0.10 0.10 0.11 0.11 0.12 0.13 0.10 0.08 0.06 0.05 0.04 0.05 0.07 0.10 0.14 0.22 0.34 0.55 0.55 0.52 0.58 0.56 0.37 0.27 0.33 0.31 0.24 0.20
0.14 0.12 0.11 0.14 0.14 0.12 0.10 0.10 0.09 0.09 0.09 0.10 0.11 0.10 0.09 0.10 0.12 0.12 0.11 0.11 0.13 0.11 0.09 0.06 0.05 0.06 0.07 0.08 0.12 0.17 0.26 0.42 0.52 0.43 0.47 0.69 0.61 0.38 0.38 0.55 0.58 0.44 0.29
0.29 0.21 0.16 0.18 0.19 0.17 0.15 0.14 0.13 0.12 0.12 0.12 0.11 0.11 0.10 0.12 0.12 0.12 0.10 0.11 0.14 0.15 0.11 0.08 0.06 0.07 0.09 0.10 0.12 0.17 0.27 0.34 0.34 0.41 0.50 0.61 0.49 0.43 0.55 0.78 0.83 0.67 0.50
0.35 0.34 0.28 0.20 0.19 0.20 0.22 0.23 0.21 0.17 0.17 0.16 0.13 0.12 0.11 0.13 0.14 0.14 0.14 0.15 0.16 0.17 0.16 0.13 0.10 0.10 0.11 0.12 0.13 0.17 0.25 0.34 0.42 0.52 0.57 0.54 0.38 0.41 0.62 0.80 0.75 0.70 0.61
0.48 0.44 0.43 0.37 0.32 0.25 0.24 0.27 0.28 0.26 0.24 0.21 0.18 0.16 0.16 0.18 0.20 0.21 0.20 0.22 0.23 0.24 0.23 0.24 0.21 0.19 0.19 0.20 0.22 0.24 0.30 0.29 0.47 0.52 0.70 0.71 0.48 0.57 0.82 0.94 0.83 0.75 0.68
0.67 0.52 0.45 0.46 0.43 0.36 0.27 0.25 0.29 0.30 0.29 0.27 0.28 0.27 0.29 0.40 0.51 0.56 0.54 0.57 0.55 0.52 0.49 0.45 0.45 0.43 0.37 0.28 0.35 0.48 0.37 0.25 0.51 0.63 0.72 0.73 0.62 0.80 1.09 1.15 1.08 0.95 0.84
0.90 0.63 0.56 0.46 0.43 0.38 0.30 0.37 0.42 0.43 0.46 0.43 0.54 0.60 0.72 0.87 0.85 0.70 0.89 0.99 0.96 1.00 0.91 0.87 1.02 0.87 0.65 0.57 0.92 1.27 0.56 0.37 0.49 0.60 0.63 0.66 0.91 1.21 1.46 1.36 1.22 1.14 1.03
0.94 0.97 0.91 0.72 0.60 0.55 0.60 0.53 0.54 0.63 0.78 0.75 0.77 0.92 1.16 1.08 0.90 0.80 0.93 1.23 1.38 1.47 1.41 1.49 1.57 1.18 1.13 1.29 1.44 1.36 0.86 0.76 0.78 0.77 0.80 1.03 1.37 1.67 1.79 1.56 1.39 1.31 1.23
1.28 1.46 1.56 1.22 1.08 0.92 0.87 0.80 0.72 0.73 0.90 1.05 1.22 1.28 1.45 1.48 1.33 1.17 1.21 1.41 1.59 1.73 2.04 2.03 1.90 1.74 1.69 1.60 1.52 1.35 1.19 1.19 1.11 1.23 1.44 1.39 1.53 1.77 1.97 1.83 1.61 1.52 1.47
1.86 1.99 2.22 1.76 1.52 1.40 1.40 1.32 1.11 1.13 1.21 1.32 1.54 1.66 1.76 1.93 1.88 1.79 1.71 1.66 1.55 1.72 2.05 2.24 2.13 2.12 2.05 1.93 1.73 1.57 1.44 1.39 1.35 1.48 1.60 1.78 1.78 1.75 1.87 2.00 1.89 1.71 1.62
2.31 2.42 2.54 2.39 2.26 2.03 1.87 1.84 1.75 1.49 1.49 1.49 1.60 1.63 1.82 2.05 2.28 2.36 2.24 2.09 1.78 1.74 1.84 2.15 2.25 2.38 2.27 2.13 1.58 1.50 1.50 1.52 1.57 1.57 1.65 2.12 2.15 1.78 1.68 1.79 1.93 1.92 1.82
3.06 2.95 2.93 2.88 3.01 2.76 2.42 2.15 1.91 1.78 1.78 1.84 1.87 1.81 1.97 2.21 2.42 2.42 2.20 1.87 1.67 1.75 1.83 1.77 1.82 2.13 1.91 1.76 1.57 1.66 1.69 1.59 1.56 1.57 1.62 1.96 2.01 1.68 1.46 1.43 1.62 1.78 1.90
3.78 3.56 3.36 3.01 3.15 3.12 2.87 2.62 2.30 2.08 2.12 2.01 1.86 1.78 1.85 2.06 2.07 2.11 1.76 1.39 1.46 1.67 1.74 1.72 1.67 1.76 1.74 1.78 1.76 1.71 1.69 1.57 1.35 1.29 1.21 1.22 1.37 1.19 1.27 1.43 1.42 1.42 1.68
4.03 4.11 4.03 3.90 3.56 3.40 3.23 3.01 2.74 2.49 2.19 1.88 1.79 1.72 1.60 1.52 1.53 1.63 1.36 1.24 1.34 1.47 1.50 1.47 1.63 1.74 1.63 1.68 1.67 1.56 1.28 1.16 1.03 0.92 0.89 0.83 0.89 0.96 0.97 1.13 1.20 1.26 1.59
3.89 4.34 4.47 4.39 3.94 3.49 3.08 2.72 2.56 2.33 2.11 1.89 1.73 1.55 1.33 1.22 1.22 1.39 1.28 1.16 1.28 1.36 1.34 1.49 1.61 1.68 1.46 1.42 1.34 1.09 0.90 0.69 0.65 0.61 0.53 0.59 0.63 0.65 0.74 0.91 1.16 1.03 1.41
3.57 4.11 4.22 4.22 3.59 2.93 2.53 2.23 2.08 1.85 1.63 1.59 1.51 1.37 1.29 1.19 1.15 1.30 1.20 1.10 1.09 1.12 1.10 1.24 1.35 1.35 1.12 1.32 1.46 1.01 0.70 0.54 0.47 0.37 0.36 0.42 0.45 0.53 0.70 0.95 1.14 1.15 1.28
3.12 3.67 3.67 3.20 2.75 2.31 1.97 1.78 1.64 1.53 1.35 1.22 1.08 1.02 0.95 0.94 0.98 1.04 1.02 0.91 0.89 0.93 0.90 0.98 1.11 1.10 0.97 1.22 1.37 1.28 0.95 0.73 0.56 0.38 0.38 0.39 0.44 0.56 0.65 0.76 1.05 1.21 1.24
2.78 2.81 2.40 2.07 1.83 1.60 1.44 1.35 1.32 1.22 1.04 0.84 0.70 0.65 0.66 0.69 0.70 0.69 0.69 0.72 0.78 0.76 0.79 0.85 1.00 1.10 0.98 1.00 1.21 1.36 1.13 0.83 0.72 0.55 0.52 0.56 0.61 0.70 0.77 0.91 1.03 1.15 1.24
2.01 1.88 1.74 1.56 1.37 1.27 1.26 1.17 1.14 0.93 0.79 0.67 0.54 0.55 0.57 0.55 0.53 0.50 0.52 0.62 0.69 0.72 0.79 0.71 0.75 0.92 0.98 0.89 0.97 1.08 1.10 1.12 1.06 0.80 0.59 0.56 0.63 0.68 0.70 0.75 0.86 1.01 1.10
1.33 1.33 1.25 1.35 1.37 1.25 1.16 1.08 1.05 0.89 0.73 0.59 0.55 0.60 0.59 0.55 0.51 0.45 0.45 0.48 0.57 0.64 0.71 0.71 0.73 0.77 0.83 0.82 0.83 0.87 0.94 1.04 1.04 0.98 0.75 0.58 0.58 0.57 0.63 0.69 0.78 0.85 0.93
0.78 0.86 0.93 1.04 1.15 1.10 1.02 0.97 0.94 0.85 0.74 0.60 0.54 0.54 0.50 0.48 0.47 0.45 0.45 0.47 0.48 0.50 0.53 0.59 0.64 0.68 0.74 0.76 0.76 0.82 0.91 0.89 0.89 1.01 0.90 0.74 0.69 0.62 0.69 0.75 0.87 0.96 0.97

GEFSSE_prec_meanprecacc_132.txt.gz
Total_Precipitation_Accumulation
0.07 0.05 0.10 0.08 0.07 0.06 0.09 0.12 0.14 0.14 0.12 0.09 0.07 0.05 0.03 0.03 0.03 0.04 0.04 0.06 0.07 0.10 0.12 0.14 0.15 0.14 0.14 0.15 0.16 0.17 0.19 0.22 0.22 0.23 0.26 0.31 0.36 0.46 0.59 0.62 0.76 0.56 0.36
0.02 0.04 0.10 0.10 0.08 0.07 0.09 0.12 0.14 0.14 0.13 0.12 0.10 0.07 0.04 0.04 0.04 0.05 0.07 0.09 0.09 0.10 0.11 0.10 0.09 0.09 0.09 0.10 0.13 0.14 0.17 0.21 0.29 0.38 0.43 0.43 0.48 0.61 0.67 0.59 0.80 0.48 0.33
0.02 0.03 0.07 0.11 0.08 0.07 0.08 0.10 0.13 0.13 0.14 0.12 0.11 0.10 0.07 0.05 0.06 0.07 0.08 0.09 0.09 0.10 0.09 0.08 0.07 0.07 0.07 0.08 0.10 0.13 0.16 0.23 0.39 0.60 0.83 0.70 0.40 0.57 0.60 0.52 0.47 0.28 0.26
0.02 0.02 0.03 0.09 0.09 0.08 0.07 0.09 0.12 0.13 0.13 0.12 0.11 0.10 0.09 0.08 0.08 0.09 0.09 0.10 0.11 0.11 0.08 0.07 0.06 0.06 0.06 0.07 0.10 0.14 0.19 0.28 0.47 0.83 1.19 0.70 0.32 0.33 0.39 0.35 0.30 0.22 0.20
0.05 0.03 0.04 0.07 0.08 0.09 0.09 0.09 0.10 0.11 0.11 0.11 0.11 0.10 0.10 0.10 0.11 0.10 0.11 0.13 0.13 0.11 0.09 0.07 0.05 0.05 0.06 0.08 0.10 0.14 0.22 0.33 0.58 0.94 0.88 0.70 0.60 0.34 0.27 0.28 0.25 0.21 0.18
0.07 0.06 0.07 0.09 0.09 0.09 0.08 0.08 0.08 0.09 0.10 0.11 0.10 0.11 0.11 0.11 0.11 0.12 0.12 0.14 0.14 0.11 0.08 0.07 0.05 0.05 0.06 0.08 0.11 0.17 0.26 0.41 0.63 0.61 0.54 0.59 0.56 0.38 0.28 0.34 0.31 0.25 0.21
0.15 0.12 0.11 0.14 0.14 0.12 0.10 0.10 0.10 0.09 0.10 0.11 0.12 0.11 0.10 0.12 0.13 0.14 0.13 0.13 0.14 0.12 0.09 0.07 0.05 0.06 0.08 0.09 0.14 0.20 0.31 0.51 0.57 0.46 0.49 0.70 0.62 0.39 0.39 0.56 0.59 0.45 0.30
0.30 0.21 0.16 0.19 0.20 0.17 0.15 0.15 0.13 0.12 0.13 0.12 0.11 0.11 0.11 0.12 0.13 0.13 0.12 0.13 0.16 0.15 0.11 0.08 0.06 0.07 0.10 0.11 0.14 0.20 0.32 0.42 0.39 0.44 0.51 0.62 0.50 0.45 0.56 0.79 0.84 0.68 0.50
0.36 0.35 0.29 0.21 0.19 0.21 0.24 0.24 0.21 0.18 0.18 0.17 0.13 0.12 0.12 0.13 0.15 0.15 0.15 0.16 0.17 0.17 0.16 0.14 0.10 0.10 0.11 0.13 0.15 0.19 0.29 0.42 0.49 0.56 0.59 0.54 0.39 0.42 0.63 0.81 0.76 0.71 0.61
0.51 0.47 0.44 0.38 0.32 0.26 0.25 0.28 0.29 0.27 0.24 0.21 0.18 0.17 0.17 0.20 0.21 0.22 0.21 0.23 0.25 0.25 0.24 0.24 0.21 0.19 0.19 0.21 0.23 0.26 0.33 0.35 0.56 0.58 0.72 0.73 0.49 0.57 0.82 0.94 0.83 0.76 0.69
0.73 0.62 0.52 0.47 0.44 0.36 0.28 0.26 0.30 0.31 0.30 0.27 0.28 0.28 0.30 0.40 0.52 0.57 0.54 0.58 0.56 0.53 0.50 0.45 0.45 0.43 0.37 0.29 0.37 0.51 0.42 0.32 0.60 0.71 0.78 0.79 0.65 0.81 1.10 1.16 1.09 0.95 0.85
0.96 0.71 0.62 0.49 0.44 0.39 0.31 0.37 0.43 0.44 0.47 0.43 0.55 0.61 0.73 0.88 0.86 0.71 0.91 1.01 0.98 1.01 0.92 0.87 1.02 0.87 0.66 0.58 0.94 1.30 0.62 0.46 0.59 0.66 0.69 0.72 0.95 1.23 1.46 1.36 1.23 1.14 1.03
1.01 1.05 0.98 0.77 0.63 0.56 0.61 0.53 0.55 0.63 0.79 0.76 0.77 0.93 1.16 1.08 0.91 0.81 0.94 1.25 1.40 1.49 1.41 1.49 1.58 1.20 1.16 1.34 1.50 1.43 0.93 0.85 0.84 0.82 0.83 1.07 1.42 1.69 1.80 1.56 1.40 1.32 1.23
1.36 1.54 1.66 1.34 1.20 1.00 0.90 0.81 0.73 0.74 0.90 1.05 1.23 1.29 1.46 1.49 1.35 1.19 1.22 1.42 1.59 1.74 2.05 2.04 1.92 1.77 1.74 1.65 1.58 1.42 1.26 1.25 1.15 1.27 1.47 1.43 1.57 1.82 1.99 1.84 1.63 1.53 1.48
1.95 2.08 2.31 1.89 1.71 1.58 1.51 1.36 1.13 1.15 1.23 1.33 1.55 1.67 1.77 1.94 1.90 1.81 1.72 1.67 1.56 1.73 2.06 2.25 2.15 2.16 2.09 1.96 1.77 1.61 1.50 1.47 1.41 1.51 1.63 1.81 1.81 1.79 1.91 2.03 1.90 1.73 1.63
2.45 2.53 2.62 2.48 2.40 2.21 2.00 1.91 1.80 1.52 1.51 1.52 1.61 1.64 1.83 2.06 2.29 2.37 2.26 2.10 1.81 1.76 1.86 2.17 2.28 2.41 2.30 2.16 1.62 1.54 1.54 1.56 1.61 1.61 1.67 2.14 2.17 1.81 1.71 1.83 1.96 1.95 1.83
3.26 3.08 3.02 2.97 3.13 2.92 2.54 2.24 1.97 1.82 1.81 1.88 1.90 1.82 1.98 2.23 2.43 2.44 2.22 1.89 1.69 1.77 1.86 1.80 1.86 2.16 1.93 1.79 1.60 1.70 1.72 1.63 1.61 1.61 1.65 1.98 2.02 1.70 1.48 1.47 1.66 1.81 1.93
3.99 3.75 3.52 3.14 3.28 3.28 3.01 2.72 2.40 2.17 2.18 2.08 1.91 1.81 1.87 2.08 2.08 2.13 1.77 1.41 1.48 1.70 1.76 1.74 1.69 1.79 1.77 1.81 1.79 1.75 1.72 1.60 1.39 1.33 1.25 1.26 1.40 1.21 1.29 1.46 1.45 1.46 1.72
4.23 4.32 4.26 4.11 3.75 3.57 3.38 3.14 2.90 2.66 2.30 1.95 1.84 1.75 1.63 1.54 1.54 1.64 1.37 1.26 1.36 1.49 1.53 1.49 1.65 1.75 1.64 1.70 1.69 1.59 1.31 1.19 1.07 0.96 0.93 0.86 0.92 0.99 1.00 1.15 1.23 1.29 1.62
4.05 4.53 4.72 4.64 4.19 3.71 3.28 2.89 2.76 2.53 2.25 1.99 1.80 1.58 1.35 1.24 1.23 1.40 1.29 1.18 1.29 1.38 1.36 1.51 1.63 1.69 1.47 1.43 1.35 1.11 0.93 0.71 0.68 0.64 0.56 0.61 0.66 0.68 0.78 0.93 1.17 1.05 1.43
3.69 4.28 4.40 4.46 3.87 3.20 2.78 2.44 2.28 2.04 1.79 1.72 1.62 1.45 1.34 1.22 1.17 1.32 1.21 1.11 1.11 1.14 1.12 1.25 1.36 1.36 1.13 1.32 1.48 1.03 0.73 0.56 0.49 0.39 0.39 0.45 0.48 0.55 0.72 0.96 1.15 1.16 1.29
3.22 3.80 3.82 3.39 2.98 2.58 2.21 2.00 1.83 1.71 1.52 1.36 1.19 1.10 1.02 0.99 1.02 1.06 1.03 0.92 0.90 0.94 0.92 0.99 1.12 1.11 0.98 1.23 1.38 1.29 0.96 0.74 0.57 0.39 0.40 0.41 0.46 0.58 0.67 0.77 1.06 1.22 1.24
2.86 2.90 2.50 2.21 2.04 1.88 1.67 1.56 1.54 1.45 1.26 1.00 0.82 0.73 0.72 0.73 0.73 0.71 0.70 0.73 0.78 0.77 0.80 0.86 1.01 1.11 0.99 1.00 1.22 1.37 1.13 0.84 0.73 0.56 0.53 0.58 0.64 0.74 0.79 0.93 1.04 1.16 1.25
2.07 1.94 1.81 1.65 1.54 1.54 1.48 1.37 1.32 1.08 0.92 0.75 0.61 0.61 0.63 0.60 0.56 0.53 0.53 0.63 0.69 0.72 0.79 0.72 0.77 0.93 0.99 0.89 0.98 1.08 1.11 1.13 1.07 0.81 0.60 0.57 0.64 0.70 0.73 0.77 0.87 1.02 1.12
1.37 1.38 1.32 1.43 1.47 1.43 1.33 1.28 1.26 1.05 0.85 0.69 0.63 0.67 0.65 0.61 0.54 0.47 0.46 0.48 0.57 0.64 0.71 0.72 0.75 0.78 0.84 0.82 0.83 0.87 0.94 1.05 1.04 0.99 0.76 0.59 0.59 0.58 0.64 0.70 0.79 0.86 0.95
0.80 0.90 0.98 1.09 1.21 1.20 1.14 1.12 1.15 1.06 0.89 0.72 0.63 0.60 0.55 0.52 0.50 0.48 0.46 0.47 0.49 0.50 0.53 0.61 0.65 0.69 0.74 0.76 0.76 0.82 0.91 0.90 0.89 1.01 0.90 0.75 0.69 0.62 0.69 0.75 0.87 0.96 0.97